[[{"header":{"parameterUnit":"m.s-1","parameterCategory":1,"la1":31.0,"la2":29.5877,"lo1":-88.7671,"lo2":-86.6584,"dy":0.0162,"dx":0.0185,"nx":115,"ny":88,"refTime":"2024-06-04T06:00:00:Z","depth":0,"parameterNumber":2,"parameterNumberName":"U-component_of_WINDS"},"data":[0.0,0.0,0.0,0.0,0.0,0.0,0.0,0.0,0.0,0.0,0.0,0.0,0.0,0.0,0.0,0.0,0.0,0.0,0.0,0.0,0.0,0.0,0.0,0.0,0.0,0.0,0.0,0.0,0.0,0.0,0.0,0.0,0.0,0.0,0.0,0.0,0.0,0.0,0.0,0.0,0.0,0.0,0.0,0.0,0.0,0.0,0.0,0.0,0.0,0.0,0.0,0.0,0.0,0.0,0.0,0.0,0.0,0.0,0.0,0.0,0.0,0.0,0.0,0.0,0.0,0.0,0.0,0.0,0.0,0.0,0.0,0.0,0.0,0.0,0.0,0.0,0.0,0.0,0.0,0.0,0.0,0.0,0.0,0.0,0.0,0.0,0.0,0.0,0.0,0.0,0.0,0.0,0.0,0.0,0.0,0.0,0.0,0.0,0.0,0.0,0.0,0.0,0.0,0.0,0.0,0.0,0.0,0.0,0.0,0.0,0.0,0.0,0.0,0.0,0.0,0.0,0.0,0.0,0.0,0.0,0.0,0.0,0.0,0.0,0.0,0.0,0.0,0.0,0.0,0.0,0.0,0.0,0.0,0.0,0.0,0.0,0.0,0.0,0.0,0.0,0.0,0.0,0.0,0.0,0.0,0.0,0.0,0.0,0.0,0.0,0.0,0.0,0.0,0.0,0.0,0.0,0.0,0.0,0.0,0.0,0.0,0.0,0.0,0.0,0.0,0.0,0.0,0.0,0.0,0.0,0.0,0.0,0.0,0.0,0.0,0.0,0.0,0.0,0.0,0.0,0.0,0.0,0.0,0.0,0.0,0.0,0.0,0.0,0.0,0.0,0.0,0.0,0.0,0.0,0.0,0.0,0.0,0.0,0.0,0.0,0.0,0.0,0.0,0.0,0.0,0.0,0.0,0.0,0.0,0.0,0.0,0.0,0.0,0.0,0.0,0.0,0.0,0.0,0.0,0.0,0.0,0.0,0.0,0.0,0.0,0.0,0.0,0.0,0.0,0.0,0.0,0.0,0.0,0.0,0.0,0.0,0.0,0.0,0.0,0.0,0.0,0.0,0.0,0.0,0.0,0.0,0.0,0.0,0.0,0.0,0.0,0.0,0.0,0.0,0.0,0.0,0.0,0.0,0.0,0.0,0.0,0.0,0.0,0.0,0.0,0.0,0.0,0.0,0.0,0.0,0.0,0.0,0.0,0.0,0.0,0.0,0.0,0.0,0.0,0.0,0.0,0.0,0.0,0.0,0.0,0.0,0.0,0.0,0.0,0.0,0.0,0.0,0.0,0.0,0.0,0.0,0.0,0.0,0.0,0.0,0.0,0.0,0.0,0.0,0.0,0.0,0.0,0.0,0.0,0.0,0.0,0.0,0.0,0.0,0.0,0.0,0.0,0.0,0.0,0.0,0.0,0.0,0.0,0.0,0.0,0.0,0.0,0.0,0.0,0.0,0.0,0.0,0.0,0.0,0.0,0.0,0.0,0.0,0.0,0.0,0.0,0.0,0.0,0.0,0.0,0.0,0.0,0.0,0.0,0.0,0.0,0.0,0.0,0.0,0.0,0.0,0.0,0.0,0.0,0.0,0.0,0.0,0.0,0.0,0.0,0.0,0.0,0.0,0.0,0.0,0.0,0.0,0.0,0.0,0.0,0.0,0.0,0.0,0.0,0.0,0.0,0.0,0.0,0.0,0.0,0.0,0.0,0.0,0.0,0.0,0.0,0.0,0.0,0.0,0.0,0.0,0.0,0.0,0.0,0.0,0.0,0.0,0.0,0.0,0.0,0.0,0.0,0.0,0.0,0.0,0.0,0.0,0.0,0.0,0.0,0.0,0.0,0.0,0.0,0.0,0.0,0.0,0.0,0.0,0.0,0.0,0.0,0.0,0.0,0.0,0.0,0.0,0.0,0.0,0.0,0.0,0.0,0.0,0.0,0.0,0.0,0.0,0.0,0.0,0.0,0.0,0.0,0.0,0.0,0.0,0.0,0.0,0.0,0.0,0.0,0.0,0.0,0.0,0.0,0.0,0.0,0.0,0.0,0.0,0.0,0.0,0.0,0.0,0.0,0.0,0.0,0.0,0.0,0.0,0.0,0.0,0.0,0.0,0.0,0.0,0.0,0.0,0.0,0.0,0.0,0.0,0.0,0.0,0.0,0.0,0.0,0.0,0.0,0.0,0.0,0.0,0.0,0.0,0.0,0.0,0.0,0.0,0.0,0.0,0.0,0.0,0.0,0.0,0.0,0.0,0.0,0.0,0.0,0.0,0.0,0.0,0.0,0.0,0.0,0.0,0.0,0.0,0.0,0.0,0.0,0.0,0.0,0.0,0.0,0.0,0.0,0.0,0.0,0.0,0.0,0.0,0.0,0.0,0.0,0.0,0.0,0.0,0.0,0.0,0.0,0.0,0.0,0.0,0.0,0.0,0.0,0.0,0.0,0.0,0.0,0.0,0.0,0.0,0.0,0.0,0.0,0.0,0.0,0.0,0.0,0.0,0.0,0.0,0.0,0.0,0.0,0.0,0.0,0.0,0.0,0.0,0.0,0.0,0.0,0.0,0.0,0.0,0.0,0.0,0.0,0.0,0.0,0.0,0.0,0.0,0.0,0.0,0.0,0.0,0.0,0.0,0.0,0.0,0.0,0.0,0.0,0.0,0.0,0.0,0.0,0.0,0.0,0.0,0.0,0.0,0.0,0.0,0.0,0.0,0.0,0.0,0.0,0.0,0.0,0.0,0.0,0.0,0.0,0.0,0.0,0.0,0.0,0.0,0.0,0.0,0.0,0.0,0.0,0.0,0.0,0.0,0.0,0.0,0.0,0.0,0.0,0.0,0.0,0.0,0.0,0.0,0.0,0.0,0.0,0.0,0.0,0.0,0.0,0.0,0.0,0.0,0.0,0.0,0.0,0.0,0.0,0.0,0.0,0.0,0.0,0.0,0.0,0.0,0.0,0.0,0.0,0.0,0.0,0.0,0.0,0.0,0.0,0.0,0.0,0.0,0.0,0.0,0.0,0.0,0.0,0.0,0.0,0.0,0.0,0.0,0.0,0.0,0.0,0.0,0.0,0.0,0.0,0.0,0.0,0.0,0.0,0.0,0.0,0.0,0.0,0.0,0.0,0.0,0.0,0.0,0.0,0.0,0.0,0.0,0.0,0.0,0.0,0.0,0.0,0.0,0.0,0.0,0.0,0.0,0.0,0.0,0.0,0.0,0.0,0.0,0.0,0.0,0.0,0.0,0.0,0.0,0.0,0.0,0.0,0.0,0.0,0.0,0.0,0.0,0.0,0.0,0.0,0.0,0.0,0.0,0.0,0.0,0.0,0.0,0.0,0.0,0.0,0.0,0.0,0.0,0.0,0.0,0.0,0.0,0.0,0.0,0.0,0.0,0.0,0.0,0.0,0.0,0.0,0.0,0.0,0.0,0.0,0.0,0.0,0.0,0.0,0.0,0.0,0.0,0.0,0.0,0.0,0.0,0.0,0.0,0.0,0.0,0.0,0.0,0.0,0.0,0.0,0.0,0.0,0.0,0.0,0.0,0.0,0.0,0.0,0.0,0.0,0.0,0.0,0.0,0.0,0.0,0.0,0.0,0.0,0.0,0.0,0.0,0.0,0.0,0.0,0.0,0.0,0.0,0.0,0.0,0.0,0.0,0.0,0.0,0.0,0.0,0.0,0.0,0.0,0.0,0.0,0.0,0.0,0.0,0.0,0.0,0.0,0.0,0.0,0.0,0.0,0.0,0.0,0.0,0.0,0.0,0.0,0.0,0.0,0.0,0.0,0.0,0.0,0.0,0.0,0.0,0.0,0.0,0.0,0.0,0.0,0.0,0.0,0.0,0.0,0.0,0.0,0.0,0.0,0.0,0.0,0.0,0.0,0.0,0.0,0.0,0.0,0.0,0.0,0.0,0.0,0.0,0.0,0.0,0.0,0.0,0.0,0.0,0.0,0.0,0.0,0.0,0.0,0.0,0.0,0.0,0.0,0.0,0.0,0.0,0.0,0.0,0.0,0.0,0.0,0.0,0.0,0.0,0.0,0.0,0.0,0.0,0.0,0.0,0.0,0.0,0.0,0.0,0.0,0.0,0.0,0.0,0.0,0.0,0.0,0.0,0.0,0.0,0.0,0.0,0.0,0.0,0.0,0.0,0.0,0.0,0.0,0.0,0.0,0.0,0.0,0.0,0.0,0.0,0.0,0.0,0.0,0.0,0.0,0.0,0.0,0.0,0.0,0.0,0.0,0.0,0.0,0.0,0.0,0.0,-0.674,0.0,0.0,0.0,0.0,0.0,0.0,0.0,0.0,0.0,0.0,0.0,0.0,0.0,0.0,0.0,0.0,0.0,0.0,0.0,0.0,0.0,0.0,0.0,0.0,0.0,0.0,0.0,0.0,0.0,0.0,0.0,0.0,0.0,0.0,0.0,0.0,0.0,0.0,0.0,0.0,0.0,0.0,0.0,0.0,0.0,0.0,0.0,0.0,0.0,0.0,0.0,0.0,0.0,0.0,0.0,0.0,0.0,0.0,0.0,0.0,0.0,0.0,0.0,0.0,0.0,0.0,0.0,0.0,0.0,0.0,0.0,0.0,0.0,0.0,0.0,0.0,0.0,0.0,0.0,0.0,0.0,0.0,0.0,0.0,0.0,0.0,0.0,0.0,0.0,0.0,0.0,0.0,0.0,0.0,0.0,0.0,0.0,0.0,0.0,0.0,0.0,0.0,0.0,0.0,0.0,0.0,0.0,0.0,0.0,0.0,-0.6129,-0.6254,-0.6395,-0.6505,-0.6604,0.0,0.0,0.0,0.0,0.0,0.0,0.0,0.0,0.0,0.0,0.0,0.0,0.0,0.0,0.0,0.0,0.0,0.0,0.0,0.0,0.0,0.0,0.0,0.0,0.0,0.0,0.0,0.0,0.0,0.0,0.0,0.0,0.0,0.0,0.0,0.0,0.0,0.0,0.0,0.0,0.0,0.0,0.0,0.0,0.0,0.0,0.0,0.0,0.0,0.0,0.0,0.0,0.0,0.0,0.0,0.0,0.0,0.0,0.0,0.0,0.0,0.0,0.0,0.0,0.0,0.0,0.0,0.0,0.0,0.0,0.0,0.0,0.0,0.0,0.0,0.0,0.0,0.0,0.0,0.0,0.0,0.0,0.0,0.0,0.0,0.0,0.0,0.0,0.0,0.0,0.0,0.0,0.0,0.0,0.0,0.0,0.0,0.0,0.0,0.0,0.0,0.0,0.0,0.0,0.0,0.0,0.0,0.0,0.0,0.0,0.0,0.0,-0.6542,-0.6655,-0.6828,0.0,0.0,0.0,0.0,0.0,0.0,0.0,0.0,0.0,0.0,0.0,0.0,0.0,0.0,0.0,0.0,0.0,0.0,0.0,0.0,0.0,0.0,0.0,0.0,0.0,0.0,0.0,0.0,0.0,0.0,0.0,0.0,0.0,0.0,0.0,0.0,0.0,0.0,0.0,0.0,0.0,0.0,0.0,0.0,0.0,0.0,0.0,0.0,0.0,0.0,0.0,0.0,0.0,0.0,0.0,0.0,0.0,0.0,0.0,0.0,0.0,0.0,0.0,0.0,0.0,0.0,0.0,0.0,0.0,0.0,0.0,0.0,0.0,0.0,0.0,0.0,0.0,0.0,0.0,0.0,0.0,0.0,0.0,0.0,0.0,0.0,0.0,0.0,0.0,0.0,0.0,0.0,0.0,0.0,0.0,0.0,0.0,0.0,0.0,0.0,0.0,0.0,0.0,0.0,0.0,0.0,0.0,0.0,0.0,0.0,-0.5888,-0.7169,-0.7338,0.0,-0.778,0.0,0.0,0.0,0.0,0.0,0.0,0.0,0.0,0.0,0.0,0.0,0.0,0.0,0.0,0.0,0.0,0.0,0.0,0.0,0.0,0.0,0.0,0.0,0.0,0.0,0.0,0.0,0.0,0.0,0.0,0.0,0.0,0.0,0.0,0.0,0.0,0.0,0.0,0.0,0.0,0.0,0.0,0.0,0.0,0.0,0.0,0.0,0.0,0.0,0.0,0.0,0.0,0.0,0.0,0.0,0.0,0.0,0.0,0.0,0.0,0.0,0.0,0.0,0.0,0.0,0.0,0.0,0.0,0.0,0.0,0.0,0.0,0.0,0.0,0.0,0.0,0.0,0.0,0.0,0.0,0.0,0.0,0.0,0.0,0.0,0.0,0.0,0.0,0.0,0.0,0.0,0.0,0.0,0.0,0.0,0.0,0.0,0.0,0.0,0.0,0.0,0.0,0.0,0.0,0.0,0.0,0.0,0.0,0.0,0.0,0.0,-0.7383,-0.7406,-0.7463,0.0,0.0,0.0,0.0,0.0,0.0,0.0,0.0,0.0,0.0,0.0,0.0,0.0,0.0,0.0,0.0,0.0,0.0,0.0,0.0,0.0,0.0,0.0,0.0,0.0,0.0,0.0,0.0,0.0,0.0,0.0,0.0,0.0,0.0,0.0,0.0,0.0,0.0,0.0,0.0,0.0,0.0,0.0,0.0,0.0,0.0,0.0,0.0,0.0,0.0,0.0,0.0,0.0,0.0,0.0,0.0,0.0,0.0,0.0,0.0,0.0,0.0,0.0,0.0,0.0,0.0,0.0,0.0,0.0,0.0,0.0,0.0,0.0,0.0,0.0,0.0,0.0,0.0,0.0,0.0,0.0,0.0,0.0,0.0,0.0,0.0,0.0,0.0,0.0,0.0,0.0,0.0,0.0,0.0,0.0,0.0,0.0,0.0,0.0,0.0,0.0,0.0,0.0,0.0,0.0,0.0,0.0,0.0,0.0,0.0,-0.6398,0.0,-0.7642,-0.7762,-0.7686,-0.7474,0.0,0.0,0.0,0.0,0.0,0.0,0.0,0.0,0.0,0.0,0.0,0.0,0.0,0.0,0.0,0.0,0.0,0.0,0.0,0.0,0.0,0.0,0.0,0.0,0.0,0.0,0.0,0.0,0.0,0.0,0.0,0.0,0.0,0.0,0.0,0.0,0.0,0.0,0.0,0.0,0.0,0.0,0.0,0.0,0.0,0.0,0.0,0.0,0.0,0.0,0.0,0.0,0.0,0.0,0.0,0.0,0.0,0.0,0.0,0.0,0.0,0.0,0.0,0.0,0.0,0.0,0.0,0.0,0.0,0.0,0.0,0.0,0.0,0.0,0.0,0.0,0.0,0.0,0.0,0.0,0.0,0.0,0.0,0.0,0.0,0.0,0.0,0.0,0.0,0.0,0.0,0.0,0.0,0.0,0.0,0.0,0.0,0.0,0.0,0.0,0.0,0.0,0.0,0.0,0.0,0.0,0.0,0.0,0.0,-0.6505,-0.6739,-0.8136,-0.8728,-0.8501,0.0,0.0,0.0,0.0,0.0,0.0,0.0,0.0,0.0,0.0,0.0,0.0,0.0,0.0,0.0,0.0,0.0,0.0,0.0,0.0,0.0,0.0,0.0,0.0,0.0,0.0,0.0,0.0,0.0,0.0,0.0,0.0,0.0,0.0,0.0,0.0,0.0,0.0,0.0,0.0,0.0,0.0,0.0,0.0,0.0,0.0,0.0,0.0,0.0,0.0,0.0,0.0,0.0,0.0,0.0,0.0,0.0,0.0,0.0,0.0,0.0,0.0,0.0,0.0,0.0,0.0,0.0,0.0,0.0,0.0,0.0,0.0,0.0,0.0,0.0,0.0,0.0,0.0,0.0,0.0,0.0,0.0,0.0,0.0,0.0,0.0,0.0,0.0,0.0,0.0,0.0,0.0,0.0,0.0,0.0,0.0,0.0,0.0,0.0,0.0,0.0,0.0,0.0,0.0,0.0,0.0,0.0,0.0,0.0,-0.581,-0.6337,-0.7445,0.0,-0.8144,-0.7708,0.0,0.0,0.0,0.0,0.0,0.0,0.0,0.0,0.0,0.0,0.0,0.0,0.0,0.0,0.0,0.0,0.0,0.0,0.0,0.0,0.0,0.0,0.0,0.0,0.0,0.0,0.0,0.0,0.0,0.0,0.0,0.0,0.0,0.0,0.0,0.0,0.0,0.0,0.0,0.0,0.0,0.0,0.0,0.0,0.0,0.0,0.0,0.0,0.0,0.0,0.0,0.0,0.0,0.0,0.0,0.0,0.0,0.0,0.0,0.0,0.0,0.0,0.0,0.0,0.0,0.0,0.0,0.0,0.0,0.0,0.0,0.0,0.0,0.0,0.0,0.0,0.0,0.0,0.0,0.0,0.0,0.0,0.0,0.0,0.0,0.0,0.0,0.0,0.0,0.0,0.0,0.0,0.0,0.0,0.0,0.0,0.0,0.0,0.0,0.0,0.0,0.0,0.0,0.0,0.0,0.0,0.0,0.0,0.0,-0.563,0.0,-0.8042,0.0,-0.7804,-0.7159,0.0,0.0,0.0,0.0,0.0,0.0,0.0,0.0,0.0,0.0,0.0,0.0,0.0,0.0,0.0,0.0,0.0,0.0,0.0,0.0,0.0,0.0,0.0,0.0,0.0,0.0,0.0,0.0,0.0,0.0,0.0,0.0,0.0,0.0,0.0,0.0,0.0,0.0,0.0,0.0,0.0,0.0,0.0,0.0,0.0,0.0,0.0,0.0,0.0,0.0,0.0,0.0,0.0,0.0,0.0,0.0,0.0,0.0,0.0,0.0,0.0,0.0,0.0,0.0,0.0,0.0,0.0,0.0,0.0,0.0,0.0,0.0,0.0,0.0,0.0,0.0,0.0,0.0,0.0,0.0,0.0,0.0,0.0,0.0,0.0,0.0,0.0,0.0,0.0,0.0,0.0,0.0,0.0,0.0,0.0,0.0,0.0,0.0,0.0,0.0,0.0,0.0,0.0,0.0,0.0,0.0,0.0,0.0,0.0,-0.7095,-0.8112,-0.8308,-0.7586,-0.7734,-0.7004,0.0,0.0,0.0,0.0,0.0,0.0,0.0,0.0,0.0,0.0,0.0,0.0,0.0,0.0,0.0,0.0,0.0,0.0,0.0,0.0,0.0,0.0,0.0,0.0,0.0,0.0,0.0,0.0,0.0,0.0,0.0,0.0,0.0,0.0,0.0,0.0,0.0,0.0,0.0,0.0,0.0,0.0,0.0,0.0,0.0,0.0,0.0,0.0,0.0,0.0,0.0,0.0,0.0,0.0,0.0,0.0,0.0,0.0,0.0,0.0,0.0,0.0,0.0,0.0,0.0,0.0,0.0,0.0,0.0,0.0,0.0,0.0,0.0,0.0,0.0,0.0,0.0,0.0,0.0,0.0,0.0,0.0,0.0,0.0,0.0,0.0,0.0,0.0,0.0,0.0,0.0,0.0,0.0,0.0,0.0,0.0,0.0,0.0,0.0,0.0,0.0,0.0,0.0,0.0,0.0,0.0,0.0,0.0,0.0,-0.6401,-0.7355,-0.8204,-0.8795,-0.7511,-0.6956,0.0,0.0,0.0,0.0,0.0,0.0,0.0,0.0,0.0,0.0,0.0,0.0,0.0,0.0,0.0,0.0,0.0,0.0,0.0,0.0,0.0,0.0,0.0,0.0,0.0,0.0,0.0,0.0,0.0,0.0,0.0,0.0,0.0,0.0,0.0,0.0,0.0,0.0,0.0,0.0,0.0,0.0,0.0,0.0,0.0,0.0,0.0,0.0,0.0,0.0,0.0,0.0,0.0,0.0,0.0,0.0,0.0,0.0,0.0,0.0,0.0,0.0,0.0,0.0,0.0,0.0,0.0,0.0,0.0,0.0,0.0,0.0,0.0,0.0,0.0,0.0,0.0,0.0,0.0,0.0,0.0,0.0,0.0,0.0,0.0,0.0,0.0,0.0,0.0,0.0,0.0,0.0,0.0,0.0,0.0,0.0,0.0,0.0,0.0,0.0,0.0,0.0,0.0,0.0,0.0,0.0,0.0,0.0,0.0,-0.6931,-0.795,-0.8802,-0.9346,-0.7904,-0.7206,-0.7357,0.0,0.0,0.0,0.0,0.0,0.0,0.0,0.0,0.0,0.0,0.0,0.0,0.0,0.0,0.0,0.0,0.0,0.0,0.0,0.0,0.0,0.0,0.0,0.0,0.0,0.0,0.0,0.0,0.0,0.0,0.0,0.0,0.0,0.0,0.0,0.0,0.0,0.0,0.0,0.0,0.0,0.0,0.0,0.0,0.0,0.0,0.0,0.0,0.0,0.0,0.0,0.0,0.0,0.0,0.0,0.0,0.0,0.0,0.0,0.0,0.0,0.0,0.0,0.0,0.0,0.0,0.0,0.0,0.0,0.0,0.0,0.0,0.0,0.0,0.0,0.0,0.0,0.0,0.0,0.0,0.0,0.0,0.0,0.0,0.0,0.0,0.0,0.0,0.0,0.0,0.0,0.0,0.0,0.0,0.0,0.0,0.0,0.0,0.0,0.0,0.0,0.0,0.0,0.0,0.0,0.0,0.0,0.0,-0.8451,-0.9731,-1.0008,-0.9271,-0.8747,-0.7716,0.0,0.0,0.0,0.0,0.0,0.0,0.0,0.0,0.0,0.0,0.0,0.0,0.0,0.0,0.0,0.0,0.0,0.0,0.0,0.0,0.0,0.0,0.0,0.0,0.0,0.0,0.0,0.0,0.0,0.0,0.0,0.0,0.0,0.0,0.0,0.0,0.0,0.0,0.0,0.0,0.0,0.0,0.0,0.0,0.0,0.0,0.0,0.0,0.0,0.0,0.0,0.0,0.0,0.0,0.0,0.0,0.0,0.0,0.0,0.0,0.0,0.0,0.0,0.0,0.0,0.0,0.0,0.0,0.0,0.0,0.0,0.0,0.0,0.0,0.0,0.0,0.0,0.0,0.0,0.0,0.0,0.0,0.0,0.0,0.0,0.0,0.0,0.0,0.0,0.0,0.0,0.0,0.0,0.0,0.0,0.0,0.0,0.0,0.0,0.0,0.0,0.0,0.0,0.0,0.0,0.0,0.0,0.0,0.0,-0.9138,-1.0513,-1.1067,-1.082,-0.9174,-0.8192,0.0,0.0,0.0,0.0,0.0,0.0,0.0,0.0,0.0,0.0,0.0,0.0,0.0,0.0,0.0,0.0,0.0,0.0,0.0,0.0,0.0,0.0,0.0,0.0,0.0,0.0,0.0,0.0,0.0,0.0,0.0,0.0,0.0,0.0,0.0,0.0,0.0,0.0,0.0,0.0,0.0,0.0,0.0,0.0,0.0,0.0,0.0,0.0,0.0,0.0,0.0,0.0,0.0,0.0,0.0,0.0,0.0,0.0,0.0,0.0,0.0,0.0,0.0,0.0,0.0,0.0,0.0,0.0,0.0,0.0,0.0,0.0,0.0,0.0,0.0,0.0,0.0,0.0,0.0,0.0,0.0,0.0,0.0,0.0,0.0,0.0,0.0,0.0,0.0,0.0,0.0,0.0,0.0,0.0,0.0,0.0,0.0,0.0,0.0,0.0,0.0,0.0,0.0,0.0,0.0,0.0,0.0,0.0,-0.8437,-0.9562,-1.0898,-1.1583,-1.1583,-1.0134,-0.9005,0.0,0.0,0.0,0.0,0.0,0.0,0.0,0.0,0.0,0.0,0.0,0.0,0.0,0.0,0.0,0.0,0.0,0.0,0.0,0.0,0.0,0.0,0.0,0.0,0.0,0.0,0.0,0.0,0.0,0.0,0.0,0.0,0.0,0.0,0.0,0.0,0.0,0.0,0.0,0.0,0.0,0.0,0.0,0.0,0.0,0.0,0.0,0.0,0.0,0.0,0.0,0.0,0.0,0.0,0.0,0.0,0.0,0.0,0.0,0.0,0.0,0.0,0.0,0.0,0.0,0.0,0.0,0.0,0.0,0.0,0.0,0.0,0.0,0.0,0.0,0.0,0.0,0.0,0.0,0.0,0.0,0.0,0.0,0.0,0.0,0.0,0.0,0.0,0.0,0.0,0.0,0.0,0.0,0.0,0.0,0.0,0.0,0.0,0.0,0.0,0.0,0.0,0.0,0.0,0.0,0.0,0.0,0.0,-0.8598,-0.973,-1.0937,-1.1619,-1.1651,-1.1093,-0.9882,0.0,0.0,0.0,0.0,0.0,0.0,0.0,0.0,0.0,0.0,0.0,0.0,0.0,0.0,0.0,0.0,0.0,0.0,0.0,0.0,0.0,0.0,0.0,0.0,0.0,0.0,0.0,0.0,0.0,0.0,0.0,0.0,0.0,0.0,0.0,0.0,0.0,0.0,0.0,0.0,0.0,0.0,0.0,0.0,0.0,0.0,0.0,0.0,0.0,0.0,0.0,0.0,0.0,0.0,0.0,0.0,0.0,0.0,0.0,0.0,0.0,0.0,0.0,0.0,0.0,0.0,0.0,0.0,0.0,0.0,0.0,0.0,0.0,0.0,0.0,0.0,0.0,0.0,0.0,0.0,0.0,0.0,0.0,0.0,0.0,0.0,0.0,0.0,0.0,0.0,0.0,0.0,0.0,0.0,0.0,0.0,0.0,0.0,0.0,0.0,0.0,0.0,0.0,0.0,0.0,0.0,0.0,0.0,-0.8578,-0.9307,-1.0204,-1.0897,-1.136,-1.0728,-0.9709,0.0,0.0,0.0,0.0,0.0,0.0,0.0,0.0,0.0,0.0,0.0,0.0,0.0,0.0,0.0,0.0,0.0,0.0,0.0,0.0,0.0,0.0,0.0,0.0,0.0,0.0,0.0,0.0,0.0,0.0,0.0,0.0,0.0,0.0,0.0,0.0,0.0,0.0,0.0,0.0,0.0,0.0,0.0,0.0,0.0,0.0,0.0,0.0,0.1257,0.0,0.0,0.0,0.0,0.0,0.0,0.0,0.0,0.0,0.0,0.0,0.0,0.0,0.0,0.0,0.0,0.0,0.0,0.0,0.0,0.0,0.0,0.0,0.0,0.0,0.0,0.0,0.0,0.0,0.0,0.0,0.0,0.0,0.0,0.0,0.0,0.0,0.0,0.0,0.0,0.0,0.0,0.0,0.0,0.0,0.0,0.0,0.0,0.0,0.0,0.0,0.0,0.0,0.0,0.0,0.0,0.0,0.0,0.0,-0.8617,-0.9291,-0.9887,-1.0379,-1.0677,-1.0327,-0.9582,0.0,0.0,0.0,0.0,0.0,0.0,0.0,0.0,0.0,0.0,0.0,0.0,0.0,0.0,0.0,0.0,0.0,0.0,0.0,0.0,0.0,0.0,0.0,0.0,0.0,0.0,0.0,0.0,0.0,0.0,0.0,0.0,0.0,0.0,0.0,0.0,0.0,0.0,0.0,0.0,0.0,0.0,0.0,0.0,0.0,0.0,0.0,0.0,0.0,0.0,0.0,0.0,0.0,0.0,0.0,0.0,0.0,0.0,0.0,0.0,0.0,0.0,0.0,0.0,0.0,0.0,0.0,0.0,0.0,0.0,0.0,0.0,0.0,0.0,0.0,0.0,0.0,0.0,0.0,0.0,0.0,0.0,0.0,0.0,0.0,0.0,0.0,0.0,0.0,0.0,0.0,0.0,0.0,0.0,0.0,0.0,0.0,0.0,0.0,0.0,0.0,0.0,0.0,0.0,0.0,0.0,0.0,-0.7342,-0.8454,-0.9266,-0.9607,-0.9814,-0.9909,-0.9917,-0.9387,-0.8348,0.0,0.0,0.0,0.0,0.0,0.0,0.0,0.0,0.0,0.0,0.0,0.0,0.0,0.0,0.0,0.0,0.0,0.0,0.0,0.0,0.0,0.0,0.0,0.0,0.0,0.0,0.0,0.0,0.0,0.0,0.0,0.0,0.0,0.0,0.0,0.0,0.0,0.0,-0.0526,-0.0649,0.0,0.0,0.0,0.0,0.0,0.0,0.0,0.0,0.1636,0.0,0.0,0.0,0.0,0.0,0.0,0.0,0.0,0.0,0.0,0.0,0.0,0.0,0.0,0.0,0.0,0.0,0.0,0.0,0.0,0.0,0.0,0.0,0.0,0.0,0.0,0.0,0.0,0.0,0.0,0.0,0.0,0.0,0.0,0.0,0.0,0.0,0.0,0.0,0.0,0.0,0.0,0.0,0.0,0.0,0.0,0.0,0.0,0.0,0.0,0.0,0.0,0.0,0.0,0.0,0.0,-0.6967,-0.7313,-0.7848,-0.8698,-0.8679,-0.8942,-0.9458,-0.9517,-0.8958,-0.7874,0.0,0.0,0.0,0.0,0.0,0.0,0.0,0.0,0.0,0.0,0.0,0.0,0.0,0.0,0.0,0.0,0.0,0.0,0.0,0.0,0.0,0.0,0.0,0.0,0.0,0.0,0.0,0.0,0.0,0.0,0.0,0.0,0.0,0.0,0.0,0.0,0.0,0.0,0.0,-0.0447,-0.0256,0.0,0.0,0.0,0.0,0.0,0.0,0.0,0.0,0.1886,0.0,0.0,0.0,0.0,0.0,0.0,0.0,0.0,0.0,0.0,0.0,0.0,0.0,0.0,0.0,0.0,0.0,0.0,0.0,0.0,0.0,0.0,0.0,0.0,0.0,0.0,0.0,0.0,0.0,0.0,0.0,0.0,0.0,0.0,0.0,0.0,0.0,0.0,0.0,0.0,0.0,0.0,0.0,0.0,0.0,0.0,0.0,0.0,0.0,0.0,0.0,0.0,0.0,0.0,0.0,-0.682,-0.7537,-0.8125,-0.8666,-0.8639,-0.8745,-0.9047,-0.8751,-0.8153,0.0,0.0,0.0,0.0,0.0,0.0,0.0,0.0,0.0,0.0,0.0,0.0,0.0,0.0,0.0,0.0,0.0,0.0,0.0,0.0,0.0,0.0,0.0,0.0,0.0,0.0,0.0,0.0,0.0,0.0,0.0,0.0,0.0,0.0,0.0,0.0,0.0,0.0,0.0,0.0,0.0488,0.0594,0.1173,0.0,0.0,0.0,0.0,0.0,0.0,0.2107,0.2075,0.0,0.0,0.0,0.0,0.0,0.0,0.0,0.0,0.0,0.0,0.0,0.0,0.0,0.0,0.0,0.0,0.0,0.0,0.0,0.0,0.0,0.0,0.0,0.0,0.0,0.0,0.0,0.0,0.0,0.0,0.0,0.0,0.0,0.0,0.0,0.0,0.0,0.0,0.0,0.0,0.0,0.0,0.0,0.0,0.0,0.0,0.0,0.0,0.0,0.0,0.0,0.0,0.0,0.0,0.0,-0.6579,-0.7696,-0.845,-0.8732,-0.8745,-0.8752,-0.8738,-0.8243,-0.7622,0.0,0.0,0.0,0.0,0.0,0.0,0.0,0.0,0.0,0.0,0.0,0.0,0.0,0.0,0.0,0.0,0.0,0.0,0.0,0.0,0.0,0.0,0.0,0.0,0.0,0.0,0.0,0.0,0.0,0.0,0.0,0.0,0.0,0.0,0.0,0.0,0.0,0.0,0.0,0.0,0.0,0.1523,0.1683,0.1643,0.0,0.0,0.0,0.0,0.2225,0.2277,0.0,0.0,0.0,0.0,0.0,0.0,0.0,0.0,0.0,0.0,0.0,0.0,0.0,0.0,0.0,0.0,0.0,0.0,0.0,0.0,0.0,0.0,0.0,0.0,0.0,0.0,0.0,0.0,0.0,0.0,0.0,0.0,0.0,0.0,0.0,0.0,0.0,0.0,0.0,0.0,0.0,0.0,0.0,0.0,0.0,0.0,0.0,0.0,0.0,0.0,0.0,0.0,0.0,0.0,0.0,0.0,-0.6842,-0.7445,-0.8032,-0.8593,-0.8527,-0.8474,-0.8626,-0.8561,-0.7974,0.0,0.0,0.0,0.0,0.0,0.0,0.0,0.0,0.0,0.0,0.0,0.0,0.0,0.0,0.0,0.0,0.0,0.0,0.0,0.0,0.0,0.0,0.0,0.0,0.0,0.0,0.0,0.0,0.0,0.0,0.0,0.0,0.0,0.0,0.0,0.0,0.0,0.0,0.0,0.0,0.0,0.1949,0.2546,0.2076,0.1886,0.0,0.0,0.0,0.2507,0.244,0.0,0.0,0.0,0.0,0.0,0.0,0.0,0.0,0.0,0.0,0.0,0.0,0.0,0.0,0.0,0.0,0.0,0.0,0.0,0.0,0.0,0.0,0.0,0.0,0.0,0.0,0.0,0.0,0.0,0.0,0.0,0.0,0.0,0.0,0.0,0.0,0.0,0.0,0.0,0.0,0.0,0.0,0.0,0.0,0.0,0.0,0.0,0.0,0.0,0.0,0.0,0.0,0.0,0.0,0.0,-0.6149,-0.6943,-0.7854,-0.8441,-0.8679,-0.8646,-0.8639,-0.8745,-0.8217,-0.7518,0.0,0.0,0.0,0.0,0.0,0.0,0.0,0.0,0.0,0.0,0.0,0.0,0.0,0.0,0.0,0.0,0.0,0.0,0.0,0.0,0.0,0.0,0.0,0.0,0.0,0.0,0.0,0.0,0.0,0.0,0.0,0.0,0.0,0.0,0.0,0.0,0.0,0.0,0.0,0.0,0.0,0.0,0.2551,0.2355,0.0,0.0,0.0,0.2482,0.2472,0.0,0.0,0.0,0.0,0.0,0.0,0.0,0.0,0.0,0.0,0.0,0.0,0.0,0.0,0.0,0.0,0.0,0.0,0.0,0.0,0.0,0.0,0.0,0.0,0.0,0.0,0.0,0.0,0.0,0.0,0.0,0.0,0.0,0.0,0.0,0.0,0.0,0.0,0.0,0.0,0.0,0.0,0.0,0.0,0.0,0.0,0.0,0.0,0.0,0.0,0.0,0.0,0.0,0.0,0.0,0.0,0.0,-0.6901,-0.8147,-0.8804,-0.8804,-0.8804,-0.8804,-0.8791,-0.8048,0.0,0.0,0.0,0.0,0.0,0.0,0.0,0.0,0.0,0.0,0.0,0.0,0.0,0.0,0.0,0.0,0.0,0.0,0.0,0.0,0.0,0.0,0.0,0.0,0.0,0.0,0.0,-0.0406,0.0,0.0,0.0,0.0,0.0,0.0,0.0,0.0,0.0,0.0,0.0,0.0,0.0,0.0,0.2475,0.2494,0.2582,0.2617,0.0,0.0,0.2564,0.2497,0.2599,0.26,0.0,0.0,0.0,0.0,0.0,0.0,0.0,0.0,0.0,0.0,0.0,0.0,0.0,0.0,0.0,0.0,0.0,0.0,0.0,0.0,0.0,0.0,0.0,0.0,0.0,0.0,0.0,0.0,0.0,0.0,0.0,0.0,0.0,0.0,0.0,0.0,0.0,0.0,0.0,0.0,0.0,0.0,0.0,0.0,0.0,0.0,0.0,0.0,0.0,0.0,0.0,0.0,0.0,0.0,0.0,-0.6581,-0.8006,-0.8804,-0.8804,-0.8804,-0.8804,-0.8798,-0.8484,-0.7848,0.0,0.0,0.0,0.0,0.0,0.0,0.0,0.0,0.0,0.0,0.0,0.0,0.0,0.0,0.0,0.0,0.0,0.0,0.0,0.0,0.0,0.0,0.0,0.0,0.0,0.0,0.0,0.0,0.0,0.0,0.0,0.0,0.0,0.0,0.0,0.0,0.0,0.0,0.0,0.0,0.0,0.275,0.2704,0.2678,0.2681,0.0,0.0,0.2681,0.2672,0.2676,0.2642,0.2317,0.0,0.0,0.0,0.0,0.0,0.0,0.0,0.0,0.0,0.0,0.0,0.0,0.0,0.0,0.0,0.0,0.0,0.0,0.0,0.0,0.0,0.0,0.0,0.0,0.0,0.0,0.0,0.0,0.0,0.0,0.0,0.0,0.0,0.0,0.0,0.0,0.0,0.0,0.0,0.0,0.0,0.0,0.0,0.0,0.0,0.0,0.0,0.0,0.0,0.0,0.0,0.0,0.0,-0.6123,-0.6816,-0.8105,-0.8804,-0.8804,-0.8804,-0.8804,-0.8804,-0.8524,-0.7862,0.0,0.0,0.0,0.0,0.0,0.0,0.0,0.0,0.0,0.0,0.0,0.0,0.0,0.0,0.0,0.0,0.0,0.0,0.0,0.0,0.0,0.0,0.0,0.0,0.0,0.0,0.0,0.0,-0.0406,-0.0315,-0.0157,0.0,0.0,0.0,0.0,0.0,0.0,0.0,0.0,0.0,0.0,0.225,0.263,0.2668,0.0,0.0,0.2738,0.2754,0.2699,0.2567,0.2531,0.2485,0.2293,0.0,0.0,0.0,0.0,0.0,0.0,0.0,0.0,0.0,0.0,0.0,0.0,0.0,0.0,0.0,0.0,0.0,0.0,0.0,0.0,0.0,0.0,0.0,0.0,0.0,0.0,0.0,0.0,0.0,0.0,0.0,0.0,0.0,0.0,0.0,0.0,0.0,0.0,0.0,0.0,0.0,0.0,0.0,0.0,0.0,0.0,0.0,0.0,0.0,0.0,0.0,0.0,-0.6201,-0.6847,-0.8187,-0.891,-0.891,-0.8903,-0.8903,-0.8896,-0.8626,-0.7984,0.0,0.0,0.0,0.0,0.0,0.0,0.0,0.0,0.0,0.0,0.0,0.0,0.0,0.0,0.0,0.0,0.0,0.0,0.0,0.0,0.0,0.0,0.0,0.0,0.0,0.0,0.0,0.0,-0.0406,-0.0337,-0.0135,0.0,0.0,0.0,0.0,0.0,0.0,0.0,0.0,0.0,0.0,0.1457,0.1921,0.1989,0.2053,0.219,0.2274,0.2334,0.2398,0.2376,0.2244,0.2152,0.0,0.0,0.0,0.0,0.0,0.0,0.0,0.0,0.0,0.0,0.0,0.0,0.0,0.0,0.0,0.0,0.0,0.0,0.0,0.0,0.0,0.0,0.0,0.0,0.0,0.0,0.0,0.0,0.0,0.0,0.0,0.0,0.0,0.0,0.0,0.0,0.0,0.0,0.0,0.0,0.0,0.0,0.0,0.0,0.0,0.0,0.0,0.0,0.0,0.0,0.0,0.0,0.0,0.0,-0.6537,-0.828,-0.9159,-0.9152,-0.9204,-0.9152,-0.9145,-0.8823,-0.8366,-0.7856,0.0,0.0,0.0,0.0,0.0,0.0,0.0,0.0,0.0,0.0,0.0,0.0,0.0,0.0,0.0,0.0,0.0,0.0,0.0,0.0,0.0,0.0,0.0,0.0,0.0,0.0,-0.0405,-0.0406,-0.0406,0.0,0.0,0.0,0.0,0.0,0.0,0.0,0.0,0.0,0.0,0.0311,0.0381,0.0464,0.0469,0.0652,0.1099,0.1078,0.1234,0.1703,0.194,0.1842,0.0,0.0,0.0,0.0,0.0,0.0,0.0,0.0,0.0,0.0,0.0,0.0,0.0,0.0,0.0,0.0,0.0,0.0,0.0,0.0,0.0,0.0,0.0,0.0,0.0,0.0,0.0,-0.5811,-0.5481,0.0,0.0,0.0,0.0,0.0,0.0,0.0,0.0,0.0,0.0,0.0,-0.7092,-0.7854,0.0,0.0,0.0,0.0,0.0,0.0,0.0,0.0,0.0,0.0,0.0,0.0,-0.6448,-0.743,-0.8586,-0.9204,-0.9204,-0.9204,-0.9204,-0.9204,-0.9061,-0.8532,-0.7609,0.0,0.0,0.0,0.0,0.0,0.0,0.0,0.0,0.0,0.0,0.0,0.0,0.0,0.0,0.0,0.0,0.0,0.0,0.0,0.0,0.0,0.0,0.0,0.0,0.0,-0.056,0.0,0.0,0.0,0.0,0.0,0.0,0.0,0.0,0.0,0.0,0.0,-0.0198,0.0207,-0.0,-0.0057,0.0351,0.0359,0.0365,0.0,0.0,0.0,0.0,0.0,0.0,0.0,0.0,0.0,0.0,0.0,0.0,0.0,0.0,-0.1286,-0.0969,-0.0918,-0.0904,-0.0917,0.0,0.0,0.0,0.0,0.0,0.0,0.0,0.0,0.0,0.0,0.0,0.0,0.0,0.0,0.0,0.0,-0.687,0.0,0.0,0.0,0.0,0.0,0.0,0.0,0.0,-0.8764,-0.912,-0.854,-0.9254,-0.918,0.0,-0.8402,-0.7709,0.0,0.0,0.0,0.0,0.0,0.0,0.0,0.0,-0.6996,-0.8055,-0.889,-0.9361,-0.9361,-0.9361,-0.9309,-0.9361,-0.9261,-0.8728,-0.772,-0.7284,-0.6583,0.0,0.0,0.0,0.0,0.0,0.0,0.0,0.0,0.0,0.0,0.0,0.0,0.0,0.0,0.0,0.0,0.0,0.0,0.0,0.0,0.0,0.0,0.0,-0.0631,0.0,0.0,0.0,0.0,0.0,0.0,0.0,0.0,0.0,-0.0571,-0.0807,-0.0906,-0.0556,-0.0814,-0.0899,-0.0545,0.0,0.0,0.0,0.0,0.0,0.0,0.0,-0.0448,-0.0314,-0.0626,-0.0814,-0.0563,-0.093,-0.1293,-0.1293,0.0,0.0,-0.1612,-0.1552,-0.1546,-0.1567,-0.1585,-0.1604,-0.1519,-0.1575,-0.1585,0.0,0.0,0.0,0.0,0.0,0.0,0.0,0.0,-0.8487,-0.8509,0.0,-0.8099,0.0,0.0,0.0,0.0,0.0,0.0,0.0,0.0,-1.0199,-1.0631,-1.0631,-1.066,-1.0653,-1.0638,-1.0609,-1.0217,-0.9429,-0.7419,0.0,0.0,0.0,0.0,0.0,0.0,-0.7832,-0.834,-0.9183,-0.9614,-0.9614,-0.9614,-0.9614,-0.9607,-0.9343,-0.8938,-0.8362,-0.8189,-0.7644,-0.6612,-0.6265,0.0,0.0,0.0,0.0,0.0,0.0,0.0,0.0,0.0,0.0,0.0,0.0,0.0,0.0,0.0,0.0,0.0,0.0,0.0,0.0,-0.0864,0.0,0.0,0.0,0.0,0.0,0.0,0.0,0.0,0.0,0.0,-0.1616,-0.1603,-0.1671,-0.1955,0.0,0.0,0.0,0.0,-0.1913,-0.1461,-0.151,-0.1361,-0.0908,-0.1121,-0.1306,-0.1371,0.0,0.0,-0.2093,-0.2025,-0.1992,-0.1985,-0.1996,-0.2046,-0.1982,-0.1916,-0.1891,-0.1943,-0.1907,-0.1903,-0.2013,-0.194,-0.195,-1.1209,0.0,0.0,0.0,0.0,-1.025,-1.0572,-1.107,-1.0915,-1.0594,-1.0031,-0.9848,0.0,0.0,0.0,0.0,0.0,0.0,-1.0365,-1.0565,-1.1282,-1.1619,-1.1626,-1.186,-1.1845,-1.1619,-1.1392,-1.1063,-1.0581,-0.9796,-0.8386,-0.6507,0.0,0.0,0.0,0.0,-0.8219,-0.8898,-0.9409,-0.9614,-0.9614,-0.9614,-0.9614,-0.9614,-0.9533,-0.9293,-0.8938,-0.8885,-0.85,-0.768,-0.7126,0.0,0.0,0.0,0.0,0.0,0.0,0.0,0.0,0.0,0.0,0.0,0.0,0.0,0.0,0.0,0.0,0.0,0.0,0.0,-0.2014,-0.1507,-0.1266,0.0,0.0,0.0,0.0,0.0,0.0,0.0,0.0,0.0,-0.2003,-0.1965,-0.1935,0.0,0.0,-0.2123,-0.2186,-0.2165,-0.215,-0.2083,0.0,0.0,0.0,-0.1917,-0.1966,-0.2044,-0.2215,-0.2297,-0.2263,-0.2243,-0.223,-0.223,-0.223,-0.223,-0.2221,-0.2074,-0.2025,-0.1967,-0.1956,-0.1951,-0.1967,-0.2033,-0.2036,-1.3394,-1.2624,-1.1844,-1.1677,-1.1838,-1.1902,-1.2204,-1.2592,-1.2276,-1.2036,-1.1714,-1.1333,-1.0806,-1.0192,-0.9943,0.0,0.0,0.0,-1.1267,-1.1472,-1.1992,-1.2167,-1.2241,-1.2431,-1.2416,-1.2226,-1.2036,-1.1838,-1.1641,-1.1194,-1.0205,-0.8609,0.0,0.0,-0.8287,-0.8651,-0.9147,-0.9716,-0.9782,-0.9804,-0.9804,-0.968,-0.9614,-0.9614,-0.9614,-0.9533,-0.9358,-0.9351,-0.9109,-0.855,-0.791,-0.7093,0.0,0.0,0.0,0.0,0.0,0.0,0.0,0.0,0.0,0.0,0.0,-0.2946,0.0,0.0,0.0,0.0,-0.2483,-0.2577,-0.273,-0.2144,0.0,0.0,0.0,0.0,0.0,0.0,0.0,-0.2079,-0.2121,-0.2312,-0.2636,-0.2679,-0.2509,-0.2182,-0.2348,-0.2455,-0.2496,0.0,-0.28,-0.2875,-0.2886,-0.2896,-0.285,-0.2893,-0.2878,-0.2921,-0.2878,-0.2783,-0.2806,-0.2717,-0.2625,-0.2769,-0.2696,-0.2625,-0.2769,-0.2692,-0.2509,-0.2182,-0.2116,-0.2116,-0.2116,-0.2116,-0.211,-1.5194,-1.5087,-1.3772,-1.3185,-1.3189,-1.3338,-1.3509,-1.3594,-1.3005,-1.3064,-1.3528,-1.2584,-1.2336,-1.2562,-1.2042,0.0,-1.1765,-1.2028,-1.2109,-1.2131,-1.2467,-1.2599,-1.2592,-1.2599,-1.2599,-1.2599,-1.257,-1.2562,-1.2526,-1.1941,-1.1549,-1.118,-1.0565,-1.0199,-1.0104,-1.0119,-1.0287,-1.0572,-1.0294,-1.0133,-1.0097,-0.9775,-0.9614,-0.9614,-0.9614,-0.9614,-0.9614,-0.9614,-0.949,-0.9261,-0.859,-0.7807,-0.6819,0.0,0.0,0.0,0.0,0.0,0.0,0.0,0.0,0.0,0.0,0.0,0.0,0.0,0.0,0.0,-0.2992,0.0,-0.3317,-0.2833,0.0,0.0,0.0,-0.2511,-0.1847,-0.2507,-0.2902,-0.2662,0.0,0.0,0.0,0.0,-0.3287,-0.2494,-0.2777,-0.3061,-0.3069,-0.3354,-0.3607,-0.3624,-0.3714,-0.3743,-0.3653,-0.3742,-0.374,-0.374,-0.3697,-0.363,-0.3616,-0.3356,-0.3231,-0.3524,-0.3297,-0.3154,-0.3514,-0.3582,-0.3368,-0.2561,-0.2478,-0.2401,-0.2462,-0.2458,-0.2439,-1.6232,-1.6186,-1.5759,-1.5188,-1.4638,-1.4638,-1.4691,-1.4744,-1.4517,-1.4396,-1.4283,-1.3895,-1.3556,-1.3258,-1.323,-1.3375,-1.3404,-1.3228,-1.3287,-1.3506,-1.3338,-1.3265,-1.3265,-1.3265,-1.3265,-1.3243,-1.3009,-1.2892,-1.287,-1.2489,-1.2255,-1.216,-1.1772,-1.1077,-1.0148,-1.0346,-1.0507,-1.058,-1.0507,-1.0346,-1.0104,-0.9775,-0.9614,-0.9614,-0.9614,-0.9614,-0.9614,-0.9614,-0.9585,-0.9504,-0.8904,-0.8246,-0.7473,-0.652,0.0,0.0,0.0,0.0,0.0,0.0,0.0,0.0,0.0,-0.3885,-0.3483,0.0,-0.3778,0.0,-0.3901,-0.4177,-0.4546,-0.426,0.0,0.0,-0.4155,-0.3886,-0.3507,-0.3635,-0.3627,-0.3305,-0.3297,-0.3383,-0.3616,-0.3655,-0.3622,-0.3457,-0.343,-0.3516,-0.3509,-0.3595,-0.3703,-0.3787,-0.3805,-0.3816,-0.3837,-0.3841,-0.3841,-0.3841,-0.3801,-0.3787,-0.3803,-0.3716,-0.3623,-0.3699,-0.3699,-0.3623,-0.377,-0.3774,-0.3695,-0.3459,-0.3367,-0.3276,-0.3276,-0.3277,-0.327,-1.7149,-1.7134,-1.7109,-1.6719,-1.6269,-1.5878,-1.5602,-1.5515,-1.537,-1.5194,-1.5011,-1.4774,-1.4464,-1.4074,-1.4209,-1.4238,-1.4179,-1.4004,-1.4026,-1.4187,-1.4011,-1.385,-1.3711,-1.3711,-1.3638,-1.3492,-1.3309,-1.3221,-1.3206,-1.2899,-1.2738,-1.2731,-1.2409,-1.1889,-1.1202,-1.1077,-1.1019,-1.1019,-1.0872,-1.0653,-1.0324,-1.0002,-0.9826,-0.9833,-0.9687,-0.9614,-0.9614,-0.9614,-0.9548,-0.9409,-0.8948,-0.8458,-0.7953,-0.7148,-0.6418,0.0,0.0,0.0,0.0,0.0,0.0,0.0,0.0,0.0,0.0,0.0,-0.4374,0.0,-0.4718,-0.506,-0.5451,-0.5177,-0.5112,-0.5253,-0.5246,-0.506,-0.4635,-0.4909,-0.503,-0.4671,-0.4693,-0.4694,-0.4654,-0.4678,-0.4624,-0.438,-0.4289,-0.4157,-0.4054,-0.4146,-0.4323,-0.4302,-0.4311,-0.4311,-0.4311,-0.4311,-0.4311,-0.4314,-0.4311,-0.4311,-0.4311,-0.4153,-0.4073,-0.4311,-0.4231,-0.4153,-0.4311,-0.4311,-0.4311,-0.4297,-0.4299,-0.4072,-0.3764,-0.3689,-0.368,-1.7834,-1.7834,-1.7787,-1.7763,-1.7723,-1.6944,-1.6451,-1.6277,-1.5986,-1.5832,-1.5683,-1.5426,-1.5124,-1.4881,-1.4881,-1.481,-1.4582,-1.4545,-1.4523,-1.4523,-1.4487,-1.4311,-1.4055,-1.404,-1.3894,-1.3623,-1.3579,-1.355,-1.355,-1.3228,-1.3067,-1.306,-1.2745,-1.2584,-1.2562,-1.1984,-1.1711,-1.1622,-1.1299,-1.0938,-1.0653,-1.0287,-1.0097,-1.0082,-0.9782,-0.9614,-0.9614,-0.9614,-0.949,-0.9233,-0.8926,-0.8626,-0.8334,-0.7704,-0.7212,0.0,-0.6867,0.0,0.0,0.0,0.0,0.0,0.0,0.0,0.0,-0.5129,-0.4992,-0.5196,-0.5553,-0.5864,-0.6174,-0.5959,-0.5825,-0.6054,-0.6233,-0.6138,-0.5676,-0.6239,-0.6531,-0.6254,-0.6193,-0.6173,-0.5989,-0.6015,-0.5786,-0.5427,-0.5347,-0.5268,-0.4891,-0.4951,-0.4932,-0.5018,-0.5018,-0.4937,-0.494,-0.494,-0.494,-0.494,-0.494,-0.5018,-0.494,-0.4701,-0.4621,-0.4859,-0.4701,-0.4621,-0.494,-0.5018,-0.5018,-0.494,-0.4927,-0.4763,-0.4139,-0.3982,-0.3971,-1.82,-1.8176,-1.789,-1.7763,-1.7755,-1.7628,-1.7486,-1.7486,-1.7423,-1.6986,-1.6385,-1.6198,-1.5881,-1.5323,-1.5472,-1.5397,-1.5233,-1.497,-1.4853,-1.4845,-1.4589,-1.4443,-1.4377,-1.4377,-1.434,-1.4275,-1.4011,-1.3887,-1.3887,-1.3558,-1.3404,-1.3389,-1.3075,-1.2921,-1.2899,0.0,0.0,0.0,-1.1238,-1.1108,-1.0967,-1.0397,-1.0097,-1.0089,-0.979,0.0,-0.9614,-0.9614,-0.9592,-0.9526,-0.9241,0.0,0.0,0.0,0.0,0.0,0.0,0.0,0.0,0.0,0.0,0.0,-0.6516,-0.595,-0.5233,-0.5604,-0.6023,-0.6225,-0.6416,-0.6657,-0.6955,-0.7103,-0.7177,-0.7435,-0.7628,-0.7548,-0.7159,-0.7216,-0.7154,-0.6794,-0.6736,-0.6747,-0.6707,-0.671,-0.6758,-0.672,-0.6817,-0.6791,-0.6827,-0.5772,-0.5026,-0.5018,-0.5037,-0.5023,-0.5018,-0.5026,-0.504,-0.5018,-0.5018,-0.5023,-0.5031,-0.4948,-0.4865,-0.5029,-0.494,-0.4945,-0.5023,-0.5018,-0.5031,-0.5021,-0.5023,-0.494,-0.4781,-0.4781,-0.4776,-1.8995,0.0,-1.8375,-1.8295,0.0,-1.8287,-1.8295,-1.8271,-1.7914,-1.751,-1.7,-1.69,-1.6476,-1.5819,-1.5896,-1.5738,-1.5423,-1.5255,-1.5182,-1.5174,-1.5484,-1.5238,-1.4699,-1.5159,-1.5068,-1.4543,-1.4304,-1.4223,-1.4201,-1.3894,-1.374,-1.3726,-1.3411,-1.325,-1.3243,-1.2921,-1.2445,-1.1802,-1.148,-1.138,-1.1358,-1.0836,-1.0499,-1.0338,0.0,0.0,0.0,0.0,0.0,0.0,0.0,0.0,0.0,0.0,0.0,-0.8648,-0.8494,-0.8316,-0.8141,-0.7782,-0.7808,-0.8204,-0.7699,-0.6939,-0.5982,-0.6298,-0.6662,-0.6955,-0.7092,-0.7277,-0.7579,-0.7711,-0.7858,-0.8061,-0.8179,-0.8175,-0.8132,-0.8103,-0.7983,-0.7833,-0.7783,-0.7735,-0.7524,-0.7536,-0.7446,-0.7358,-0.7388,-0.7419,-0.7401,-0.6813,-0.6154,-0.5749,-0.535,-0.5192,-0.5189,-0.5192,-0.5186,-0.5192,-0.5192,-0.5192,-0.5192,-0.5189,-0.5192,-0.5192,-0.5192,-0.5192,-0.5192,-0.5192,-0.5192,-0.5189,-0.5192,-0.5189,-0.5184,-0.5102,-0.5018,-2.0076,-1.9271,-1.918,-1.9096,-1.9096,-1.8827,-1.8827,-1.8788,0.0,0.0,0.0,-1.7461,-1.7014,-1.641,-1.6316,-1.6059,-1.5609,-1.5602,-1.5565,-1.5597,-1.6221,-1.5993,-1.519,-1.5725,-1.5579,-1.4798,-1.4661,-1.4631,-1.4695,-1.43,-1.4109,-1.4111,-1.3992,-1.3835,-1.3768,-1.3312,-1.2814,-1.2285,-1.1902,-1.1681,-1.1622,-1.1306,-1.1012,-1.0682,-1.036,-1.0031,-0.9709,-0.9702,-0.9563,-0.927,-0.9248,-0.9255,-0.9248,-0.9298,-0.9387,-0.9672,-0.9702,-0.9724,-0.9782,-0.9214,-0.9043,-0.9617,-0.8783,-0.7844,-0.6968,-0.688,-0.7116,-0.7555,-0.7612,-0.7788,-0.8094,-0.8136,-0.8222,-0.8429,-0.8453,-0.8519,-0.867,-0.8703,-0.8708,-0.8751,-0.8693,-0.8686,-0.8325,-0.8356,-0.8184,-0.7934,-0.7978,-0.7915,-0.7923,-0.7631,-0.699,-0.6166,-0.5909,-0.577,-0.5613,-0.5767,-0.5782,-0.5844,-0.585,-0.5785,-0.5785,-0.5782,-0.5782,-0.5844,-0.5782,-0.5773,-0.5776,-0.5847,-0.5702,-0.5618,-0.5702,-0.5699,-0.5601,-0.5378,-0.5255,-2.1427,-2.1248,-2.043,-2.0076,-1.9985,-1.9188,-1.8827,-1.8788,-1.8398,-1.8142,-1.7866,-1.757,-1.7319,-1.7003,-1.7003,-1.6827,-1.6452,-1.6437,-1.6285,0.0,-1.5906,-1.5884,-1.5936,-1.5681,-1.5659,-1.5853,-1.5168,-1.5035,-1.5317,-1.4937,-1.4629,-1.4599,-1.5086,-1.5203,-1.4919,-1.4018,-1.3469,-1.3362,-1.241,-1.1838,-1.163,-1.1299,-1.1055,-1.0997,-1.0689,-1.0368,-1.0046,-1.0031,-0.9885,-0.957,-0.9555,-0.9555,-0.9555,-0.9555,-0.9694,-1.0002,-1.0031,-1.0155,-1.0426,-1.0172,-1.035,-1.0885,-1.0107,-0.8877,-0.7303,-0.7286,-0.7489,-0.7783,-0.7955,-0.8089,-0.8321,-0.8359,-0.8508,-0.8694,-0.8656,-0.8675,-0.8775,-0.8789,-0.8856,-0.9018,-0.8978,-0.9053,-0.9161,-0.9117,-0.9196,-0.9289,-0.9256,-0.94,-0.9303,-0.8371,-0.704,-0.6031,-0.6529,-0.6857,-0.6476,-0.6864,-0.7051,-0.7188,-0.7123,-0.7062,-0.7058,-0.7062,-0.7058,-0.712,-0.6971,-0.7047,-0.7044,-0.7188,-0.6802,-0.6309,-0.6482,-0.6805,-0.6229,-0.6093,-0.5973,-2.2138,-2.1695,-2.1248,-2.1069,-2.106,-2.0529,-2.0348,-2.0339,-2.0257,-1.9389,-1.8315,-1.8076,-1.8068,-1.8129,-1.8129,-1.7946,-1.7712,-1.7712,-1.718,-1.6454,-1.7258,-1.707,-1.6268,-1.6804,-1.7041,-1.678,-1.6385,-1.6541,-1.7141,-1.6801,-1.6528,-1.6505,-1.6063,-1.5397,-1.4641,-1.4126,-1.376,-1.3576,-1.2953,-1.2415,-1.215,-1.1999,-1.1744,-1.1383,-1.1218,-1.0927,-1.0494,-1.0472,-1.035,-1.0148,-1.0141,-1.0141,-1.0141,-1.0141,-1.0207,-1.0353,-1.0472,-1.0539,-1.0686,-1.0914,-1.148,-1.2422,-1.1466,-1.0373,-0.9414,-0.87,-0.8378,-0.8704,-0.8837,-0.899,-0.9214,-0.9239,-0.928,-0.9296,-0.9387,-0.9387,-0.9402,-0.9499,-0.9606,-0.9713,-0.9831,-0.9989,-1.0208,-1.0238,-1.032,-1.0439,-1.0484,-1.0444,-1.0183,-0.9862,-0.8967,-0.7695,-0.7525,-0.7528,-0.7268,-0.7443,-0.7614,-0.7699,-0.7695,-0.7614,-0.7695,-0.7695,-0.7525,-0.719,-0.7097,-0.6929,-0.6675,-0.6509,-0.6337,-0.6251,-0.6254,-0.634,-0.6082,-0.5996,-0.586,-2.3018,-2.2325,-2.2138,-2.1863,-2.1695,-2.1695,-2.1695,-2.1695,-2.1695,-2.0808,-1.9379,-1.9204,-1.9216,-1.9296,-1.9287,-1.9087,-1.8866,-1.8832,-1.8374,-1.7722,-1.853,-1.826,-1.7171,-1.7968,-1.8069,-1.7738,-1.7658,-1.8052,-1.8638,-1.8449,-1.833,-1.833,-1.7033,-1.5858,-1.5168,-1.4864,-1.4569,-1.4112,-1.3837,-1.3364,-1.2764,-1.268,-1.2373,-1.1897,-1.1774,-1.1508,-1.1007,-1.0977,-1.089,-1.0709,-1.0701,-1.0701,-1.0701,-1.0709,-1.0731,-1.0797,-1.0927,-1.1015,-1.1105,-1.1592,-1.239,-1.3445,-1.2568,-1.1791,-1.1505,-1.0418,-0.9708,-0.978,-0.9666,-0.9717,-0.9793,-0.9841,-0.9922,-0.9922,-0.997,-1.0008,-1.0019,-1.0202,-1.0379,-1.0428,-1.067,-1.0794,-1.0988,-1.1063,-1.1043,-1.1182,-1.1322,-1.1058,-1.0707,-1.0977,-1.0717,-0.9758,-0.8882,-0.8341,-0.8181,-0.8261,-0.8345,-0.8273,-0.8348,-0.8416,-0.842,-0.8348,-0.8177,-0.7811,-0.7643,-0.7544,-0.6868,-0.6868,-0.6861,-0.6845,-0.7014,-0.677,-0.641,-0.6148,-0.5849,-2.4282,-2.41,-2.328,-2.2482,-2.1784,-2.1784,-2.1784,-2.1784,-2.1695,-2.1606,-2.1427,-2.1427,-2.0962,-2.0288,-2.018,-1.9975,-1.9658,-1.9562,-1.9783,-1.9889,-1.8976,-1.8885,-1.9371,-1.8151,-1.798,-1.8957,-1.8691,-1.8771,-1.9335,-1.9052,-1.9173,-1.9468,-1.8154,-1.7602,-1.8005,-1.7116,-1.6228,-1.5641,-1.5536,-1.4767,-1.3124,-1.2729,-1.2538,-1.2485,-1.2235,-1.1859,-1.1546,-1.1508,-1.1363,-1.1081,-1.1066,-1.1058,-1.1066,-1.1058,-1.1188,-1.1478,-1.1508,-1.163,-1.1943,-1.2405,-1.2924,-1.3469,-1.303,-1.2795,-1.2906,-1.2487,-1.1629,-1.0755,-1.0137,-0.9954,-0.9916,-0.9927,-1.0024,-1.0041,-1.0203,-1.0234,-1.0339,-1.0523,-1.0746,-1.0896,-1.1078,-1.1031,-1.1305,-1.1348,-1.137,-1.1397,-1.1494,-1.1413,-1.1322,-1.1322,-1.1413,-1.1063,-1.0631,-0.985,-0.9152,-0.9419,-0.9593,-0.9685,-0.9772,-0.968,-0.968,-0.9685,-0.9685,-0.8978,-0.9336,-0.9157,-0.9157,-0.9598,-0.9074,-0.8189,-0.8364,-0.8982,-0.7921,-0.7044,-0.6395,-2.455,-2.4454,-2.409,-2.3734,-2.3377,-2.3387,-2.3377,-2.3387,-2.3387,-2.3387,-2.3387,-2.3387,-2.2843,-2.1943,-2.1943,-2.1585,-2.0917,-2.0926,-2.0518,-2.0155,-1.9986,-2.0129,-2.0274,-1.9887,-1.9944,-2.0324,-1.9938,-2.0051,-2.0605,-2.0682,-2.0389,-1.9922,-1.93,-1.8458,-1.7414,-1.6875,-1.6119,-1.5133,-1.5062,-1.4711,-1.408,-1.3666,-1.3392,-1.3165,-1.2852,-1.2562,-1.2329,-1.215,-1.1904,-1.1721,-1.1705,-1.1705,-1.1705,-1.1705,-1.1774,-1.1913,-1.2166,-1.2328,-1.2373,-1.2977,-1.3563,-1.4171,-1.3779,-1.3692,-1.3962,-1.3558,-1.3049,-1.27,-1.1732,-1.1111,-1.1135,-1.0953,-1.0824,-1.0858,-1.1048,-1.1197,-1.1282,-1.1497,-1.1705,-1.1732,-1.1865,-1.198,-1.2072,-1.21,-1.21,-1.21,-1.21,-1.21,-1.2106,-1.21,-1.2015,-1.1752,-1.1494,-1.0977,-1.0197,-1.0371,-1.0549,-1.0467,-1.0641,-1.0722,-1.0381,-1.0381,-1.0202,-0.9501,-0.9506,-0.9244,-0.854,-0.8715,-0.8536,-0.8448,-0.836,-0.836,-0.7394,-0.7041,-0.6517,-2.455,-2.455,-2.455,-2.455,-2.455,-2.455,-2.455,-2.455,-2.455,-2.455,-2.455,-2.455,-2.409,-2.3551,-2.3183,-2.2746,-2.2129,-2.205,-2.1715,-2.108,-2.1318,-2.1428,-2.1537,-2.1399,-2.1469,-2.1481,-2.1194,-2.1296,-2.1752,-2.1807,-2.1318,-2.0562,-2.0347,-1.9422,-1.7825,-1.7461,-1.683,-1.5854,-1.5468,-1.5125,-1.4879,-1.4457,-1.4093,-1.3735,-1.3402,-1.3154,-1.3016,-1.2782,-1.2602,-1.2391,-1.2383,-1.2344,-1.2259,-1.2336,-1.2429,-1.253,-1.2811,-1.3009,-1.2913,-1.3388,-1.3998,-1.4502,-1.4359,-1.4363,-1.4522,-1.4367,-1.4301,-1.4343,-1.3447,-1.2709,-1.249,-1.2132,-1.1858,-1.1883,-1.2031,-1.2023,-1.196,-1.2264,-1.2421,-1.2439,-1.2493,-1.2705,-1.2705,-1.2619,-1.2613,-1.2619,-1.2619,-1.2753,-1.2801,-1.2745,-1.2677,-1.247,-1.2412,-1.1902,-1.1105,-1.0982,-1.1063,-1.0982,-1.1068,-1.1063,-1.0809,-1.0809,-1.0636,-1.0024,-0.9584,-0.924,-0.9157,-0.8715,-0.8448,-0.836,-0.8273,-0.8097,-0.7746,-0.7217,-0.6694,-2.455,-2.455,-2.455,-2.455,-2.455,-2.455,-2.455,-2.455,-2.455,-2.455,-2.455,-2.455,-2.4454,-2.4358,-2.3551,-2.3096,-2.3008,-2.3008,-2.3347,-2.372,-2.2922,-2.2978,-2.3649,-2.2529,-2.2109,-2.2467,-2.2354,-2.2175,-2.1869,-2.1807,-2.1797,-2.1669,-2.1203,-2.0956,-2.051,-1.9778,-1.9193,-1.8203,-1.7153,-1.6403,-1.57,-1.4974,-1.4426,-1.4093,-1.3751,-1.3561,-1.3553,-1.3545,-1.3386,-1.3084,-1.3068,-1.2925,-1.2655,-1.2893,-1.3195,-1.3465,-1.3537,-1.3553,-1.3526,-1.3894,-1.4271,-1.4498,-1.4584,-1.4545,-1.4704,-1.487,-1.5075,-1.5138,-1.4782,-1.4355,-1.3917,-1.3297,-1.2844,-1.2857,-1.2544,-1.2365,-1.23,-1.2499,-1.2662,-1.2668,-1.2681,-1.2705,-1.2705,-1.2705,-1.2735,-1.2741,-1.2729,-1.2825,-1.3043,-1.3103,-1.3105,-1.3255,-1.3207,-1.2933,-1.163,-1.1614,-1.15,-1.1424,-1.157,-1.1451,-1.1332,-1.1235,-1.0906,-1.0722,-1.0458,-1.0197,-1.0033,-0.9859,-0.9685,-0.9506,-0.9065,-0.8803,-0.836,-0.7482,-0.6956,-2.455,-2.455,-2.455,-2.455,-2.455,-2.455,-2.455,-2.455,-2.455,-2.455,-2.455,-2.455,-2.455,-2.4454,-2.4176,-2.3637,-2.3105,-2.3105,-2.327,-2.3531,-2.3113,-2.3398,-2.4165,-2.3492,-2.3216,-2.337,-2.308,-2.2697,-2.2252,-2.1963,-2.1807,-2.1797,-2.1652,-2.1189,-2.0501,-2.0116,-1.9452,-1.8417,-1.7664,-1.6955,-1.6223,-1.5677,-1.5059,-1.445,-1.4109,-1.3926,-1.3918,-1.3703,-1.3521,-1.341,-1.341,-1.3354,-1.3308,-1.3338,-1.3457,-1.3584,-1.3791,-1.3842,-1.3713,-1.4096,-1.4458,-1.4561,-1.4569,-1.4752,-1.4951,-1.5118,-1.5356,-1.566,-1.5764,-1.5612,-1.5453,-1.4538,-1.3769,-1.3729,-1.3474,-1.3149,-1.309,-1.2905,-1.2705,-1.2705,-1.2705,-1.2705,-1.2753,-1.2856,-1.297,-1.2994,-1.3109,-1.3242,-1.3332,-1.3279,-1.3231,-1.3489,-1.361,-1.3465,-1.2939,-1.269,-1.269,-1.2511,-1.2416,-1.2314,-1.2258,-1.2014,-1.1844,-1.1271,-1.1142,-1.0978,-1.066,-1.0304,-1.0289,-1.01,-0.9652,-0.9504,-0.8978,-0.8347,-0.762,-2.455,-2.455,-2.455,-2.455,-2.4529,-2.4615,-2.4625,-2.454,-2.4625,-2.4625,-2.454,-2.455,-2.455,-2.455,-2.455,-2.4186,-2.3541,-2.3551,-2.3541,-2.3551,-2.3551,-2.3907,-2.4317,-2.4229,-2.4002,-2.3815,-2.3412,-2.2956,-2.2511,-2.218,-2.1963,-2.1818,-2.1807,-2.1425,-2.0667,-2.0432,-1.9875,-1.912,-1.8227,-1.7388,-1.6738,-1.6007,-1.532,-1.4697,-1.4411,-1.4283,-1.4275,-1.4053,-1.3862,-1.3775,-1.3759,-1.3751,-1.3759,-1.3751,-1.3807,-1.3934,-1.4148,-1.4198,-1.398,-1.4348,-1.4561,-1.4577,-1.4688,-1.4935,-1.5173,-1.538,-1.5745,-1.6103,-1.6333,-1.6492,-1.6448,-1.568,-1.4976,-1.4753,-1.4275,-1.4062,-1.3984,-1.3639,-1.33,-1.313,-1.3045,-1.2997,-1.2843,-1.3012,-1.3139,-1.323,-1.3417,-1.3519,-1.3616,-1.3543,-1.3493,-1.3749,-1.3902,-1.392,-1.3674,-1.357,-1.3362,-1.3138,-1.3018,-1.3038,-1.298,-1.2831,-1.2471,-1.196,-1.1636,-1.1465,-1.1206,-1.0853,-1.0671,-1.0485,-1.0469,-1.0357,-0.9848,-0.928,-0.8653,-2.454,-2.454,-2.455,-2.454,-2.454,-2.4775,-2.4786,-2.4615,-2.4786,-2.4775,-2.4625,-2.454,-2.4625,-2.454,-2.4625,-2.454,-2.4444,-2.4444,-2.4358,-2.4368,-2.4368,-2.4368,-2.454,-2.4498,-2.4291,-2.3939,-2.3443,-2.2998,-2.2646,-2.249,-2.2232,-2.1901,-2.1828,-2.1711,-2.17,-2.1223,-2.1081,-2.0569,-1.9187,-1.8055,-1.7379,-1.628,-1.5332,-1.4824,-1.4673,-1.4649,-1.4569,-1.4601,-1.4411,-1.4156,-1.4109,-1.4109,-1.4117,-1.4117,-1.4252,-1.4427,-1.4537,-1.4553,-1.4545,-1.4577,-1.4704,-1.4744,-1.4982,-1.5213,-1.538,-1.5793,-1.615,-1.6285,-1.6508,-1.6722,-1.6722,-1.6535,-1.6265,-1.5809,-1.5144,-1.4734,-1.4734,-1.465,-1.4405,-1.3932,-1.3783,-1.3531,-1.3305,-1.3282,-1.3398,-1.3471,-1.358,-1.3688,-1.387,-1.3906,-1.402,-1.4171,-1.4171,-1.4105,-1.4201,-1.4256,-1.3948,-1.3713,-1.3573,-1.3519,-1.3477,-1.3326,-1.3091,-1.2687,-1.2367,-1.2187,-1.2002,-1.1642,-1.1504,-1.1333,-1.1308,-1.1024,-1.0606,-1.0017,-0.9609,-2.4956,-2.4946,-2.4956,-2.4871,-2.4775,-2.5031,-2.4946,-2.4786,-2.5031,-2.5041,-2.5031,-2.4956,-2.4956,-2.4956,-2.4946,-2.4946,-2.4946,-2.4946,-2.4786,-2.454,-2.454,-2.454,-2.455,-2.455,-2.4467,-2.4281,-2.3877,-2.3598,-2.335,-2.2811,-2.2408,-2.2263,-2.1952,-2.1818,-2.1807,-2.1652,-2.158,-2.1463,-2.068,-1.9851,-1.9168,-1.7879,-1.6876,-1.6245,-1.5429,-1.5014,-1.5006,-1.4776,-1.4522,-1.4474,-1.4474,-1.4474,-1.4474,-1.4474,-1.453,-1.4545,-1.4569,-1.4569,-1.4601,-1.4871,-1.5006,-1.5086,-1.5332,-1.5634,-1.5848,-1.6071,-1.6325,-1.6508,-1.6675,-1.673,-1.673,-1.673,-1.6566,-1.6402,-1.5816,-1.5401,-1.5347,-1.5006,-1.4832,-1.4836,-1.4792,-1.4583,-1.4326,-1.4218,-1.4195,-1.3859,-1.3912,-1.4069,-1.4141,-1.4147,-1.4183,-1.4292,-1.4298,-1.4298,-1.4298,-1.4298,-1.4147,-1.3978,-1.393,-1.3863,-1.3809,-1.3773,-1.3522,-1.3377,-1.3141,-1.2934,-1.2648,-1.2476,-1.233,-1.1918,-1.1707,-1.1415,-1.1129,-1.07,-1.0197,-2.52,-2.52,-2.52,-2.5115,-2.5031,-2.5295,-2.52,-2.5041,-2.5211,-2.5285,-2.52,-2.52,-2.52,-2.52,-2.52,-2.52,-2.52,-2.52,-2.5031,-2.4786,-2.4786,-2.4786,-2.4786,-2.4786,-2.47,-2.4573,-2.4409,-2.4116,-2.3836,-2.3143,-2.2666,-2.2449,-2.2035,-2.1807,-2.1807,-2.1807,-2.1807,-2.168,-2.1206,-2.0597,-1.9883,-1.8958,-1.7947,-1.7035,-1.623,-1.569,-1.5263,-1.4959,-1.4776,-1.4601,-1.4569,-1.4569,-1.4569,-1.4561,-1.4569,-1.4569,-1.4577,-1.4689,-1.4839,-1.5046,-1.5261,-1.5471,-1.569,-1.5952,-1.6182,-1.6293,-1.6524,-1.669,-1.673,-1.673,-1.673,-1.673,-1.673,-1.6648,-1.6319,-1.6125,-1.6126,-1.5928,-1.5738,-1.5871,-1.5872,-1.5606,-1.5424,-1.5315,-1.5153,-1.469,-1.4564,-1.4484,-1.4394,-1.4292,-1.4298,-1.4298,-1.4298,-1.4298,-1.4298,-1.4298,-1.4298,-1.4256,-1.422,-1.4141,-1.4069,-1.4057,-1.392,-1.3884,-1.3649,-1.3661,-1.3461,-1.3339,-1.3157,-1.2692,-1.2176,-1.1979,-1.1747,-1.1153,-1.071,-2.5285,-2.52,-2.5285,-2.5285,-2.5295,-2.5464,-2.5475,-2.5295,-2.5475,-2.5475,-2.5295,-2.5285,-2.5285,-2.5285,-2.5285,-2.5285,-2.5285,-2.5285,-2.5285,-2.5285,-2.52,-2.52,-2.5115,-2.5115,-2.5031,-2.485,-2.4829,-2.4556,-2.3981,-2.3474,-2.2987,-2.2584,-2.2159,-2.1828,-2.1828,-2.1807,-2.1807,-2.1721,-2.1058,-2.0542,-2.0216,-1.9345,-1.8501,-1.7418,-1.7113,-1.6472,-1.5674,-1.5247,-1.4982,-1.4624,-1.4569,-1.4569,-1.4569,-1.4569,-1.4569,-1.4569,-1.4569,-1.4832,-1.5078,-1.5229,-1.5396,-1.5697,-1.6023,-1.623,-1.6389,-1.6605,-1.6764,-1.6812,-1.682,-1.673,-1.673,-1.673,-1.6746,-1.6778,-1.6751,-1.687,-1.7207,-1.7186,-1.7024,-1.6915,-1.6838,-1.6766,-1.6344,-1.6338,-1.6009,-1.5611,-1.5419,-1.5146,-1.4675,-1.458,-1.4388,-1.4298,-1.4298,-1.4298,-1.4298,-1.4298,-1.4298,-1.4298,-1.4298,-1.4268,-1.4232,-1.4226,-1.4226,-1.4208,-1.4189,-1.4232,-1.4136,-1.3868,-1.3761,-1.3446,-1.3003,-1.2635,-1.2134,-1.1569,-1.1052,-2.5728,-2.5717,-2.5728,-2.5633,-2.5559,-2.5728,-2.5728,-2.5559,-2.5728,-2.5728,-2.5717,-2.5717,-2.5717,-2.5728,-2.5728,-2.5728,-2.5728,-2.5717,-2.5728,-2.5728,-2.5728,-2.5454,-2.5285,-2.52,-2.5115,-2.4946,-2.4946,-2.4723,-2.4333,-2.3867,-2.3514,-2.3008,-2.2501,-2.2118,-2.1859,-2.1807,-2.1807,-2.1807,-2.1645,-2.1364,-2.1166,-2.0428,-1.9937,-1.9505,-1.8122,-1.7192,-1.6464,-1.5682,-1.5022,-1.4609,-1.4569,-1.4569,-1.4585,-1.4593,-1.4609,-1.4624,-1.4689,-1.4816,-1.5165,-1.5495,-1.5705,-1.6047,-1.6445,-1.6676,-1.709,-1.7163,-1.7229,-1.7229,-1.7229,-1.7066,-1.6812,-1.6746,-1.6849,-1.7088,-1.7143,-1.7215,-1.7326,-1.7509,-1.7684,-1.7911,-1.7885,-1.7689,-1.7423,-1.7257,-1.7015,-1.6452,-1.6197,-1.5913,-1.5242,-1.5153,-1.5057,-1.449,-1.4298,-1.4298,-1.4298,-1.4298,-1.4298,-1.4298,-1.4298,-1.4298,-1.4274,-1.4274,-1.428,-1.428,-1.425,-1.4274,-1.428,-1.4154,-1.41,-1.401,-1.3437,-1.2759,-1.2467,-1.1935,-1.1341,-2.5895,-2.5895,-2.5895,-2.5822,-2.5738,-2.5812,-2.5822,-2.5738,-2.5822,-2.5895,-2.5895,-2.5895,-2.5895,-2.5895,-2.5906,-2.5906,-2.5895,-2.5895,-2.5906,-2.5906,-2.5895,-2.5728,-2.5549,-2.5464,-2.5369,-2.5211,-2.5211,-2.5031,-2.4777,-2.4326,-2.3865,-2.3405,-2.2877,-2.2418,-2.198,-2.1807,-2.1807,-2.1807,-2.1807,-2.1807,-2.1731,-2.1328,-2.0847,-2.0343,-1.893,-1.7882,-1.6757,-1.5799,-1.5229,-1.4959,-1.4871,-1.4863,-1.4871,-1.4871,-1.4935,-1.5046,-1.5217,-1.5543,-1.5859,-1.6264,-1.6517,-1.6828,-1.7122,-1.7269,-1.744,-1.7538,-1.7635,-1.7635,-1.7635,-1.7473,-1.7335,-1.7434,-1.754,-1.7584,-1.7782,-1.7951,-1.7786,-1.789,-1.8144,-1.8398,-1.8533,-1.849,-1.8149,-1.8156,-1.7785,-1.7318,-1.7044,-1.6379,-1.5622,-1.5717,-1.5534,-1.4771,-1.449,-1.458,-1.4394,-1.4298,-1.4298,-1.4298,-1.4298,-1.4298,-1.4298,-1.4298,-1.4298,-1.4298,-1.4298,-1.4298,-1.4298,-1.4298,-1.4298,-1.4016,-1.3443,-1.3055,-1.2667,-1.2078,-1.1487,-2.5895,-2.5895,-2.5895,-2.5895,-2.5895,-2.5895,-2.5906,-2.5906,-2.5906,-2.5895,-2.5895,-2.5895,-2.5895,-2.5895,-2.5895,-2.5895,-2.5895,-2.5895,-2.5895,-2.5895,-2.5895,-2.5895,-2.5812,-2.5812,-2.5728,-2.5559,-2.557,-2.5391,-2.5126,-2.4775,-2.436,-2.3875,-2.324,-2.2667,-2.2321,-2.2012,-2.1873,-2.1873,-2.1959,-2.1949,-2.1949,-2.1797,-2.1482,-2.0827,-1.9743,-1.8442,-1.7075,-1.6239,-1.5831,-1.5466,-1.5402,-1.5378,-1.5378,-1.5378,-1.5573,-1.5851,-1.6111,-1.6428,-1.6879,-1.7156,-1.7507,-1.7557,-1.7827,-1.7942,-1.7836,-1.7942,-1.8121,-1.804,-1.8031,-1.8074,-1.8023,-1.8326,-1.8389,-1.8269,-1.8671,-1.8685,-1.8522,-1.8351,-1.8478,-1.8772,-1.8819,-1.8827,-1.8827,-1.8735,-1.8542,-1.7978,-1.7699,-1.7225,-1.6567,-1.6292,-1.5724,-1.4873,-1.4771,-1.4867,-1.458,-1.4298,-1.4298,-1.4298,-1.4298,-1.4298,-1.4298,-1.4298,-1.4298,-1.4298,-1.4298,-1.4298,-1.4298,-1.4298,-1.4298,-1.401,-1.3534,-1.3244,-1.2861,-1.2073,-1.1389,-2.5895,-2.5895,-2.5895,-2.5895,-2.5895,-2.5895,-2.5895,-2.5895,-2.5895,-2.5895,-2.5895,-2.5895,-2.5895,-2.5895,-2.5895,-2.5895,-2.5895,-2.5895,-2.5895,-2.5895,-2.5895,-2.5895,-2.5895,-2.5895,-2.5822,-2.5654,-2.557,-2.5475,-2.5221,-2.5135,-2.4796,-2.4317,-2.3828,-2.3345,-2.2889,-2.24,-2.2252,-2.2252,-2.2252,-2.2252,-2.2252,-2.2252,-2.2101,-2.168,-2.0397,-1.9291,-1.8417,-1.7535,-1.708,-1.6876,-1.6436,-1.6135,-1.6103,-1.6405,-1.6548,-1.6708,-1.6809,-1.7022,-1.7311,-1.7526,-1.7629,-1.7963,-1.8103,-1.8121,-1.8451,-1.8514,-1.8531,-1.8531,-1.854,-1.8565,-1.8564,-1.8602,-1.887,-1.9221,-1.9159,-1.915,-1.9175,-1.8975,-1.874,-1.8796,-1.8827,-1.8827,-1.8827,-1.8827,-1.8643,-1.8542,-1.8357,-1.8071,-1.7512,-1.6864,-1.6008,-1.5153,-1.4867,-1.4867,-1.458,-1.4298,-1.4298,-1.4298,-1.4298,-1.4298,-1.4298,-1.4298,-1.4298,-1.4298,-1.4298,-1.4298,-1.4298,-1.4298,-1.4298,-1.401,-1.3624,-1.3244,-1.2759,-1.1975,-1.1487,-2.5895,-2.5895,-2.5895,-2.5895,-2.5895,-2.5895,-2.5895,-2.5895,-2.5895,-2.5895,-2.5895,-2.5895,-2.5895,-2.5895,-2.5895,-2.5895,-2.5895,-2.5895,-2.5895,-2.5895,-2.5895,-2.5895,-2.5895,-2.5895,-2.5812,-2.5728,-2.5728,-2.5644,-2.5549,-2.5505,-2.5279,-2.4826,-2.4293,-2.3709,-2.3193,-2.2745,-2.2424,-2.2402,-2.2392,-2.2392,-2.2392,-2.2402,-2.209,-2.1756,-2.0609,-1.9618,-1.8973,-1.8162,-1.782,-1.768,-1.7535,-1.7174,-1.6953,-1.7098,-1.7321,-1.7476,-1.7674,-1.7822,-1.8022,-1.8224,-1.8452,-1.8559,-1.8594,-1.8763,-1.8922,-1.9002,-1.8993,-1.9002,-1.9038,-1.8995,-1.9215,-1.9676,-1.9945,-1.9948,-1.997,-1.9889,-1.9596,-1.9096,-1.8827,-1.8827,-1.8827,-1.8827,-1.8827,-1.8827,-1.8827,-1.8643,-1.8635,-1.8357,-1.7878,-1.7225,-1.6473,-1.5717,-1.5153,-1.4867,-1.449,-1.4298,-1.4298,-1.4298,-1.4298,-1.4298,-1.4298,-1.4298,-1.4298,-1.4298,-1.4298,-1.4298,-1.4298,-1.4298,-1.4298,-1.4106,-1.3817,-1.3244,-1.2662,-1.2175,-1.1683,-2.5895,-2.5895,-2.5895,-2.5895,-2.5895,-2.5895,-2.5895,-2.5895,-2.5895,-2.5895,-2.5895,-2.5895,-2.5895,-2.5895,-2.5895,-2.5895,-2.5895,-2.5895,-2.5895,-2.5895,-2.5895,-2.5895,-2.5895,-2.5895,-2.5895,-2.5895,-2.5906,-2.5895,-2.5895,-2.5884,-2.5637,-2.5273,-2.4653,-2.4162,-2.3576,-2.3004,-2.2649,-2.2574,-2.2553,-2.2553,-2.2553,-2.2542,-2.2241,-2.1669,-2.1038,-2.0314,-1.959,-1.8859,-1.8327,-1.8282,-1.8612,-1.8347,-1.7979,-1.7804,-1.7909,-1.823,-1.8506,-1.8665,-1.8744,-1.9027,-1.9186,-1.9292,-1.9292,-1.9301,-1.9292,-1.9222,-1.9222,-1.9259,-1.9332,-1.9597,-2.0081,-2.0434,-2.0766,-2.0738,-2.0918,-2.061,-1.9911,-1.9279,-1.9004,-1.8827,-1.8827,-1.8827,-1.8827,-1.8827,-1.8827,-1.8827,-1.8827,-1.8635,-1.8156,-1.7498,-1.6842,-1.6096,-1.5534,-1.4867,-1.449,-1.4298,-1.4298,-1.4298,-1.4298,-1.4298,-1.4298,-1.4298,-1.4298,-1.4298,-1.4298,-1.4298,-1.4298,-1.4298,-1.4298,-1.4202,-1.3817,-1.3147,-1.2662,-1.2273,-1.178,-2.5895,-2.5895,-2.5895,-2.5895,-2.5895,-2.5895,-2.5895,-2.5895,-2.5895,-2.5895,-2.5895,-2.5895,-2.5895,-2.5895,-2.5895,-2.5895,-2.5895,-2.5895,-2.5895,-2.5895,-2.5895,-2.5895,-2.5895,-2.5895,-2.5895,-2.5895,-2.5895,-2.5895,-2.5895,-2.5884,-2.583,-2.5666,-2.5251,-2.4701,-2.4266,-2.3787,-2.321,-2.2971,-2.2885,-2.2852,-2.2852,-2.2841,-2.2767,-2.2456,-2.1852,-2.1308,-2.0769,-2.0157,-1.9618,-1.9143,-1.9143,-1.9107,-1.8937,-1.884,-1.8894,-1.8957,-1.9063,-1.9152,-1.9143,-1.9222,-1.9292,-1.9292,-1.9292,-1.9292,-1.9292,-1.9301,-1.932,-1.9457,-1.9714,-2.0127,-2.0842,-2.1062,-2.1282,-2.1255,-2.1194,-2.0997,-2.0637,-2.0002,-1.9371,-1.9004,-1.892,-1.8827,-1.8827,-1.8827,-1.8827,-1.8827,-1.8827,-1.8827,-1.8542,-1.7971,-1.7318,-1.6567,-1.5825,-1.5057,-1.4388,-1.4394,-1.4298,-1.4298,-1.4298,-1.4298,-1.4298,-1.4298,-1.4298,-1.4298,-1.4298,-1.4298,-1.4298,-1.4298,-1.4298,-1.4298,-1.363,-1.2958,-1.2565,-1.2175,-1.1585,-2.5895,-2.5895,-2.5895,-2.5895,-2.5895,-2.5895,-2.5895,-2.5895,-2.5895,-2.5895,-2.5895,-2.5895,-2.5895,-2.5895,-2.5895,-2.5895,-2.5895,-2.5895,-2.5895,-2.5895,-2.5895,-2.5895,-2.5895,-2.5895,-2.5895,-2.5895,-2.5895,-2.5895,-2.5895,-2.5895,-2.5895,-2.5786,-2.5415,-2.5054,-2.4705,-2.4082,-2.3678,-2.3362,-2.3154,-2.3012,-2.3001,-2.3001,-2.3001,-2.2852,-2.2478,-2.1939,-2.1558,-2.0624,-2.0089,-1.9775,-1.945,-1.9292,-1.9292,-1.9292,-1.9292,-1.9292,-1.9292,-1.9292,-1.9292,-1.9292,-1.9292,-1.9292,-1.9292,-1.9292,-1.9292,-1.9311,-1.9421,-1.9714,-2.0228,-2.0686,-2.1053,-2.1282,-2.153,-2.1587,-2.1463,-2.1275,-2.0997,-2.0546,-2.0002,-1.9279,-1.9004,-1.8912,-1.8827,-1.8827,-1.8827,-1.8827,-1.8827,-1.8827,-1.8827,-1.8265,-1.7598,-1.685,-1.6103,-1.5343,-1.458,-1.4394,-1.4298,-1.4298,-1.4298,-1.4298,-1.4298,-1.4298,-1.4298,-1.4298,-1.4298,-1.4298,-1.4298,-1.4298,-1.4298,-1.4202,-1.3534,-1.2856,-1.2565,-1.2175,-1.1487,-2.5895,-2.5895,-2.5895,-2.5895,-2.5979,-2.6063,-2.6063,-2.6063,-2.6135,-2.6063,-2.5906,-2.5979,-2.5979,-2.5895,-2.5895,-2.5979,-2.5979,-2.5979,-2.5895,-2.5895,-2.5895,-2.5895,-2.5895,-2.5895,-2.5895,-2.5895,-2.5895,-2.5895,-2.5895,-2.5895,-2.5895,-2.583,-2.548,-2.524,-2.4989,-2.4486,-2.405,-2.3624,-2.3383,-2.3143,-2.3023,-2.3001,-2.3001,-2.3001,-2.2563,-2.2252,-2.1949,-2.1098,-2.0401,-2.0079,-1.9687,-1.9292,-1.9292,-1.9292,-1.9292,-1.9292,-1.9292,-1.9292,-1.9292,-1.9292,-1.9292,-1.9292,-1.9292,-1.9292,-1.9347,-1.9448,-1.9659,-2.0154,-2.0631,-2.1117,-2.1291,-2.153,-2.1686,-2.1731,-2.1642,-2.1553,-2.1266,-2.0907,-2.0456,-1.9911,-1.9271,-1.8912,-1.8827,-1.8827,-1.8827,-1.8827,-1.8827,-1.8827,-1.8735,-1.8542,-1.7885,-1.7131,-1.6285,-1.5527,-1.486,-1.4484,-1.4394,-1.4298,-1.4298,-1.4298,-1.4298,-1.4298,-1.4298,-1.4298,-1.4298,-1.4298,-1.4298,-1.4298,-1.4208,-1.3919,-1.3244,-1.2759,-1.237,-1.198,-1.1389,-2.5895,-2.5895,-2.5895,-2.6135,-2.6373,-2.6373,-2.6456,-2.6445,-2.6775,-2.6539,-2.5979,-2.6218,-2.6218,-2.5979,-2.599,-2.6135,-2.6207,-2.6052,-2.5895,-2.5895,-2.5895,-2.5895,-2.5895,-2.5895,-2.5895,-2.5895,-2.5895,-2.5895,-2.5895,-2.5895,-2.5895,-2.5863,-2.5797,-2.5622,-2.5262,-2.4934,-2.4563,-2.3908,-2.3678,-2.3416,-2.3078,-2.3001,-2.3001,-2.3001,-2.2852,-2.2628,-2.2176,-2.1482,-2.0857,-2.0235,-1.9687,-1.9292,-1.9292,-1.9292,-1.9292,-1.9292,-1.9292,-1.9292,-1.9292,-1.9292,-1.9292,-1.9292,-1.9292,-1.9292,-1.9448,-1.9769,-2.0191,-2.0906,-2.1108,-2.1273,-2.152,-2.1676,-2.1731,-2.1731,-2.1642,-2.1642,-2.1544,-2.1275,-2.0817,-2.0275,-1.9646,-1.9188,-1.892,-1.8827,-1.8827,-1.8827,-1.8827,-1.8827,-1.8735,-1.8542,-1.8357,-1.7606,-1.6662,-1.5812,-1.5248,-1.4771,-1.4394,-1.4298,-1.4298,-1.4298,-1.4298,-1.4298,-1.4298,-1.4298,-1.4298,-1.4298,-1.4298,-1.4208,-1.4016,-1.3727,-1.3244,-1.2759,-1.217,-1.1683,-1.1194,-2.6385,-2.5895,-2.5895,-2.5979,-2.6135,-2.6124,-2.6135,-2.6218,-2.6385,-2.6385,-2.6302,-2.6373,-2.6362,-2.629,-2.6218,-2.6207,-2.6135,-2.5979,-2.5895,-2.5895,-2.5895,-2.5895,-2.5895,-2.5895,-2.5895,-2.5895,-2.5895,-2.5895,-2.5895,-2.5895,-2.5895,-2.5895,-2.5895,-2.5819,-2.5513,-2.5284,-2.4967,-2.4508,-2.405,-2.3504,-2.3132,-2.3001,-2.3001,-2.3001,-2.3012,-2.2852,-2.2553,-2.2025,-2.1395,-2.0779,-2.0157,-1.9618,-1.9371,-1.9292,-1.9292,-1.9292,-1.9292,-1.9292,-1.9292,-1.9292,-1.9301,-1.9311,-1.9329,-1.9402,-1.9687,-2.0209,-2.0649,-2.1044,-2.1337,-2.1548,-2.1676,-2.1731,-2.1731,-2.1731,-2.1731,-2.1731,-2.1642,-2.1553,-2.1186,-2.0645,-2.0102,-1.9554,-1.9104,-1.8827,-1.8827,-1.8827,-1.8827,-1.8827,-1.8827,-1.8735,-1.855,-1.8179,-1.7138,-1.6103,-1.5629,-1.5159,-1.4484,-1.4298,-1.4298,-1.4298,-1.4298,-1.4298,-1.4298,-1.4298,-1.4298,-1.4298,-1.4298,-1.4298,-1.4106,-1.3727,-1.3346,-1.2759,-1.2175,-1.1585,-1.1194,-2.6787,-2.6218,-2.6218,-2.6313,-2.6396,-2.6396,-2.6479,-2.6396,-2.6644,-2.6622,-2.661,-2.6693,-2.6775,-2.6787,-2.661,-2.6362,-2.6302,-2.5979,-2.5895,-2.5895,-2.5895,-2.5895,-2.5895,-2.5895,-2.5895,-2.5895,-2.5895,-2.5895,-2.5895,-2.5895,-2.5895,-2.5895,-2.5895,-2.5884,-2.5797,-2.5568,-2.5284,-2.5022,-2.4334,-2.382,-2.3504,-2.3285,-2.3241,-2.3165,-2.3088,-2.3001,-2.2927,-2.2402,-2.1787,-2.1405,-2.0547,-1.9932,-1.9696,-1.9381,-1.9292,-1.9292,-1.9292,-1.9292,-1.9292,-1.9301,-1.9259,-1.935,-1.9613,-1.9879,-2.0246,-2.0824,-2.1209,-2.1291,-2.1511,-2.1676,-2.1731,-2.1731,-2.1731,-2.1731,-2.1731,-2.1731,-2.1642,-2.1553,-2.1374,-2.0826,-2.0283,-1.9828,-1.9379,-1.9012,-1.8827,-1.8827,-1.8827,-1.8827,-1.8827,-1.8827,-1.8542,-1.8265,-1.7699,-1.6567,-1.5724,-1.5255,-1.4675,-1.4298,-1.4298,-1.4298,-1.4298,-1.4298,-1.4298,-1.4298,-1.4298,-1.4298,-1.4298,-1.4298,-1.4202,-1.3727,-1.3249,-1.2861,-1.237,-1.1683,-1.1194,-2.7185,-2.7103,-2.7103,-2.7278,-2.7638,-2.78,-2.7719,-2.7545,-2.803,-2.7684,-2.7196,-2.7185,-2.7452,-2.7464,-2.7033,-2.6775,-2.7021,-2.6218,-2.6063,-2.5979,-2.5895,-2.5895,-2.5895,-2.5895,-2.5895,-2.5895,-2.5895,-2.5895,-2.5895,-2.5895,-2.5895,-2.5895,-2.5895,-2.5895,-2.5874,-2.5775,-2.5491,-2.5196,-2.4639,-2.4399,-2.4148,-2.3919,-2.3689,-2.3591,-2.3285,-2.3012,-2.3023,-2.2616,-2.2216,-2.2053,-2.1188,-2.0255,-2.0029,-1.9618,-1.945,-1.9301,-1.9384,-1.9393,-1.9402,-1.9332,-1.9343,-1.9543,-1.9989,-2.0493,-2.0787,-2.097,-2.1282,-2.1575,-2.1686,-2.1713,-2.1731,-2.1731,-2.1731,-2.1731,-2.1731,-2.1731,-2.1731,-2.1731,-2.1463,-2.1006,-2.0555,-2.0011,-1.9463,-1.9104,-1.8827,-1.8827,-1.8827,-1.8827,-1.8827,-1.8735,-1.8442,-1.8164,-1.7878,-1.6943,-1.5818,-1.5248,-1.4867,-1.4484,-1.4298,-1.4298,-1.4298,-1.4298,-1.4298,-1.4298,-1.4298,-1.4298,-1.4298,-1.4298,-1.4106,-1.363,-1.3152,-1.2667,-1.2175,-1.1585,-1.1194,-2.8007,-2.8007,-2.8007,-2.7765,-2.7441,-2.7452,-2.7452,-2.7534,-2.7603,-2.7696,-2.7615,-2.7857,-2.795,-2.78,-2.7626,-2.7278,-2.7185,-2.694,-2.6539,-2.629,-2.629,-2.6135,-2.6052,-2.5895,-2.5895,-2.5895,-2.5895,-2.5895,-2.5895,-2.5895,-2.5895,-2.5895,-2.5895,-2.5895,-2.5895,-2.5874,-2.5611,-2.5295,-2.5,-2.4814,-2.4465,-2.4355,-2.4203,-2.4159,-2.4082,-2.3919,-2.394,-2.3686,-2.3182,-2.2594,-2.2045,-2.1291,-2.0498,-2.0068,-1.9664,-1.9482,-1.9549,-1.965,-1.9597,-1.9516,-1.9571,-2.0366,-2.0856,-2.1179,-2.1172,-2.1319,-2.1511,-2.1686,-2.1731,-2.1731,-2.1731,-2.1731,-2.1731,-2.1731,-2.1731,-2.1731,-2.1731,-2.1731,-2.1553,-2.1186,-2.0645,-2.011,-1.9554,-1.9096,-1.892,-1.8827,-1.8827,-1.8827,-1.8827,-1.8827,-1.8542,-1.8257,-1.8071,-1.7412,-1.6197,-1.5629,-1.5146,-1.4675,-1.4298,-1.4298,-1.4298,-1.4298,-1.4298,-1.4298,-1.4298,-1.4298,-1.4298,-1.4298,-1.4112,-1.3823,-1.3244,-1.2467,-1.198,-1.1389,-1.1096,-2.851,-2.851,-2.851,-2.8179,-2.7603,-2.7592,-2.7592,-2.7592,-2.7592,-2.7765,-2.8111,-2.8351,-2.8351,-2.8122,-2.7881,-2.7708,-2.7441,-2.7196,-2.7021,-2.6857,-2.6693,-2.6445,-2.6218,-2.6052,-2.6052,-2.5979,-2.5895,-2.5895,-2.5895,-2.5895,-2.5895,-2.5895,-2.5895,-2.5895,-2.5895,-2.5874,-2.571,-2.548,-2.5349,-2.5262,-2.4945,-2.477,-2.4694,-2.4639,-2.4497,-2.4388,-2.4366,-2.4244,-2.3989,-2.3481,-2.2951,-2.2254,-2.1323,-2.0603,-2.0188,-1.9919,-1.9806,-1.998,-1.9989,-2.0052,-2.0189,-2.1024,-2.1395,-2.1475,-2.1401,-2.1575,-2.1686,-2.1713,-2.1731,-2.1731,-2.1731,-2.1731,-2.1731,-2.1731,-2.1731,-2.1731,-2.1731,-2.1642,-2.1544,-2.1275,-2.0826,-2.0374,-1.9745,-1.9279,-1.892,-1.8827,-1.8827,-1.8827,-1.8827,-1.8827,-1.8735,-1.8542,-1.8357,-1.7606,-1.6763,-1.6197,-1.5629,-1.4586,-1.4298,-1.4298,-1.4298,-1.4298,-1.4298,-1.4298,-1.4298,-1.4298,-1.4298,-1.4298,-1.4298,-1.4298,-1.3431,-1.2473,-1.198,-1.1487,-1.0801,-2.859,-2.851,-2.851,-2.851,-2.8351,-2.8431,-2.8431,-2.8339,-2.8351,-2.8351,-2.8431,-2.851,-2.851,-2.8363,-2.8122,-2.795,-2.7777,-2.7522,-2.7267,-2.7185,-2.7196,-2.694,-2.661,-2.6445,-2.6207,-2.5979,-2.5895,-2.5895,-2.5895,-2.5895,-2.5895,-2.5895,-2.5895,-2.5895,-2.5895,-2.5895,-2.5884,-2.5874,-2.583,-2.5753,-2.5622,-2.5327,-2.5196,-2.5098,-2.4902,-2.477,-2.4781,-2.4781,-2.4592,-2.4339,-2.3865,-2.3189,-2.2413,-2.154,-2.1015,-2.0661,-2.0282,-2.0292,-2.0503,-2.0747,-2.1053,-2.1451,-2.166,-2.1603,-2.1676,-2.1731,-2.1731,-2.1731,-2.1731,-2.1731,-2.1731,-2.1731,-2.1731,-2.1731,-2.1731,-2.1731,-2.1731,-2.1731,-2.1544,-2.1365,-2.1087,-2.0727,-2.0102,-1.9471,-1.9012,-1.8827,-1.8827,-1.8827,-1.8827,-1.8827,-1.8827,-1.8735,-1.8542,-1.7792,-1.6951,-1.6676,-1.6109,-1.4968,-1.4298,-1.4298,-1.4298,-1.4298,-1.4298,-1.4298,-1.4298,-1.4298,-1.4298,-1.4298,-1.4298,-1.4202,-1.3437,-1.2565,-1.2078,-1.1487,-1.0801,-2.9484,-2.9118,-2.9118,-2.8882,-2.851,-2.851,-2.851,-2.851,-2.851,-2.851,-2.851,-2.851,-2.851,-2.8431,-2.8351,-2.8271,-2.8271,-2.8179,-2.8007,-2.7708,-2.7708,-2.7371,-2.7033,-2.6693,-2.6445,-2.629,-2.6135,-2.5979,-2.5895,-2.5895,-2.5895,-2.5895,-2.5895,-2.5895,-2.5895,-2.5895,-2.5895,-2.5895,-2.5895,-2.5884,-2.5884,-2.5732,-2.5633,-2.5622,-2.5437,-2.5338,-2.5327,-2.5295,-2.5196,-2.4989,-2.4589,-2.4136,-2.3369,-2.2625,-2.2362,-2.1934,-2.1598,-2.1343,-2.1383,-2.1377,-2.1511,-2.1682,-2.1728,-2.1731,-2.1731,-2.1731,-2.1731,-2.1731,-2.1731,-2.1731,-2.1731,-2.1731,-2.1731,-2.1731,-2.1731,-2.1731,-2.1731,-2.1731,-2.1642,-2.1374,-2.1096,-2.0275,-1.9554,-1.9379,-1.892,-1.8827,-1.8827,-1.8827,-1.8827,-1.8827,-1.8827,-1.8827,-1.855,-1.7792,-1.7232,-1.6777,-1.592,-1.4777,-1.4298,-1.4298,-1.4298,-1.4298,-1.4298,-1.4298,-1.4298,-1.4298,-1.4298,-1.4298,-1.4298,-1.401,-1.3437,-1.2764,-1.2175,-1.1487,-1.0605,-3.0101,-2.9716,-2.9496,-2.9197,-2.8816,-2.859,-2.851,-2.851,-2.851,-2.851,-2.851,-2.851,-2.851,-2.851,-2.851,-2.851,-2.851,-2.851,-2.8431,-2.8122,-2.8122,-2.7869,-2.7452,-2.7115,-2.6951,-2.6704,-2.6373,-2.6146,-2.6135,-2.5979,-2.5895,-2.5895,-2.5895,-2.5895,-2.5895,-2.5895,-2.5895,-2.5895,-2.5895,-2.5895,-2.5895,-2.5863,-2.5874,-2.5874,-2.5841,-2.5852,-2.5884,-2.5841,-2.5753,-2.5491,-2.5267,-2.5005,-2.4235,-2.379,-2.3484,-2.3079,-2.2624,-2.2225,-2.1813,-2.1676,-2.1676,-2.1704,-2.1731,-2.1731,-2.1731,-2.1731,-2.1731,-2.1731,-2.1731,-2.1731,-2.1731,-2.1731,-2.1731,-2.1731,-2.1731,-2.1731,-2.1731,-2.1731,-2.1642,-2.1463,-2.1006,-2.0102,-1.9288,-1.9012,-1.8827,-1.8827,-1.8827,-1.8827,-1.8827,-1.8827,-1.8827,-1.8827,-1.8643,-1.7893,-1.7239,-1.6777,-1.573,-1.449,-1.4298,-1.4298,-1.4298,-1.4298,-1.4298,-1.4298,-1.4298,-1.4298,-1.4298,-1.4298,-1.4298,-1.4106,-1.363,-1.305,-1.237,-1.1487,-1.06,-3.033,-3.0254,-2.9716,-2.9496,-2.9275,-2.8736,-2.851,-2.851,-2.851,-2.851,-2.851,-2.851,-2.851,-2.851,-2.851,-2.851,-2.851,-2.851,-2.851,-2.8443,-2.8431,-2.8111,-2.7962,-2.78,-2.7464,-2.7115,-2.6775,-2.6539,-2.6528,-2.6218,-2.6063,-2.5895,-2.5895,-2.5895,-2.5895,-2.5895,-2.5895,-2.5895,-2.5895,-2.5895,-2.5895,-2.5895,-2.5895,-2.5895,-2.5895,-2.5895,-2.5895,-2.5874,-2.5874,-2.5819,-2.583,-2.5411,-2.5019,-2.4493,-2.4198,-2.3725,-2.325,-2.2669,-2.1873,-2.1692,-2.1774,-2.1784,-2.1722,-2.1731,-2.1731,-2.1731,-2.1731,-2.1731,-2.1731,-2.1731,-2.1731,-2.1731,-2.1731,-2.1731,-2.1731,-2.1731,-2.1731,-2.1731,-2.1731,-2.1463,-2.1096,-2.0374,-1.9471,-1.9104,-1.8827,-1.8827,-1.8827,-1.8827,-1.8827,-1.8827,-1.8827,-1.8827,-1.8542,-1.8079,-1.7426,-1.6683,-1.573,-1.4586,-1.4394,-1.4298,-1.4298,-1.4298,-1.4298,-1.4298,-1.4298,-1.4298,-1.4298,-1.4298,-1.4298,-1.4016,-1.3823,-1.334,-1.2662,-1.1477,-1.0493,-3.1408,-3.0921,-3.0771,-3.0177,-2.9341,-2.8736,-2.851,-2.851,-2.851,-2.851,-2.851,-2.851,-2.859,-2.851,-2.851,-2.851,-2.851,-2.851,-2.851,-2.851,-2.851,-2.8431,-2.8271,-2.8042,-2.7881,-2.7626,-2.7278,-2.7021,-2.694,-2.6539,-2.6146,-2.599,-2.6063,-2.5979,-2.5979,-2.5895,-2.5895,-2.5895,-2.5895,-2.5895,-2.5895,-2.5895,-2.5895,-2.5895,-2.5895,-2.5895,-2.5895,-2.5895,-2.5895,-2.5895,-2.5895,-2.5728,-2.5611,-2.5419,-2.5221,-2.4628,-2.4211,-2.37,-2.2187,-2.2183,-2.2217,-2.1896,-2.1756,-2.1731,-2.1731,-2.1731,-2.1731,-2.1731,-2.1731,-2.1731,-2.1731,-2.1731,-2.1731,-2.1731,-2.1731,-2.1731,-2.1731,-2.1731,-2.1642,-2.1463,-2.1096,-2.0266,-1.9463,-1.9104,-1.8827,-1.8827,-1.8827,-1.8827,-1.8827,-1.8827,-1.8827,-1.8827,-1.8643,-1.8172,-1.7333,-1.6588,-1.5635,-1.4777,-1.449,-1.4298,-1.4298,-1.4298,-1.4298,-1.4298,-1.4298,-1.4298,-1.4298,-1.4298,-1.4298,-1.4298,-1.4106,-1.3528,-1.2851,-1.1765,-1.0489,-3.195,-3.1616,-3.1307,-3.062,-2.9793,-2.9341,-2.9184,-2.9118,-2.8749,-2.8749,-2.9106,-2.8961,-2.8895,-2.8882,-2.8882,-2.8736,-2.851,-2.851,-2.851,-2.851,-2.851,-2.851,-2.8351,-2.8271,-2.8203,-2.795,-2.7788,-2.7452,-2.736,-2.7021,-2.6622,-2.6467,-2.6385,-2.6385,-2.6373,-2.6302,-2.6135,-2.6135,-2.6063,-2.5895,-2.5895,-2.5895,-2.5895,-2.5895,-2.5895,-2.5895,-2.5895,-2.5895,-2.5895,-2.5895,-2.5895,-2.5895,-2.5906,-2.5895,-2.5801,-2.5211,-2.485,-2.4478,-2.37,-2.3211,-2.2669,-2.2193,-2.2249,-2.2403,-2.2087,-2.1909,-2.182,-2.1731,-2.1731,-2.1731,-2.1731,-2.1731,-2.1731,-2.1731,-2.1731,-2.1731,-2.1731,-2.1731,-2.1553,-2.1365,-2.0718,-1.9894,-1.9347,-1.8996,-1.8827,-1.8827,-1.8827,-1.8827,-1.8827,-1.8827,-1.8827,-1.8827,-1.8643,-1.8357,-1.7426,-1.6487,-1.5629,-1.4867,-1.449,-1.4298,-1.4298,-1.4298,-1.4298,-1.4298,-1.4298,-1.4298,-1.4298,-1.4298,-1.4298,-1.4298,-1.4298,-1.3817,-1.3136,-1.2155,-1.0783,-3.2169,-3.2096,-3.1468,-3.0921,-3.0393,-3.0241,-3.0241,-3.0241,-2.9197,-2.9263,-3.0024,-2.9716,-2.9496,-2.9484,-2.9484,-2.9106,-2.8895,-2.8749,-2.859,-2.851,-2.851,-2.851,-2.851,-2.851,-2.8363,-2.8363,-2.8203,-2.7869,-2.7708,-2.7452,-2.7196,-2.7185,-2.7103,-2.701,-2.694,-2.6693,-2.661,-2.6539,-2.6218,-2.5979,-2.5895,-2.5895,-2.5895,-2.5895,-2.5895,-2.5895,-2.5895,-2.5895,-2.5895,-2.5895,-2.5895,-2.5895,-2.5895,-2.5895,-2.5812,-2.5728,-2.538,-2.5243,-2.4882,-2.4358,-2.3501,-2.3114,-2.3114,-2.3183,-2.2862,-2.2264,-2.2087,-2.1909,-2.1909,-2.1731,-2.1731,-2.1731,-2.1731,-2.1731,-2.1731,-2.1731,-2.1731,-2.1642,-2.1553,-2.1186,-2.0637,-1.9894,-1.9115,-1.8764,-1.8827,-1.8827,-1.8827,-1.8827,-1.8827,-1.8827,-1.8827,-1.8827,-1.8643,-1.8357,-1.7412,-1.6473,-1.5717,-1.5051,-1.458,-1.4298,-1.4298,-1.4298,-1.4298,-1.4298,-1.4298,-1.4298,-1.4298,-1.4298,-1.4298,-1.4298,-1.4202,-1.4016,-1.3329,-1.2349,-1.0974,-3.2169,-3.2169,-3.1468,-3.1071,-3.0921,-3.0469,-3.0545,-3.0921,-3.0241,-3.0024,-3.0241,-3.0165,-3.0088,-3.0088,-3.0101,-2.9793,-2.9263,-2.9197,-2.8882,-2.8736,-2.8669,-2.8736,-2.859,-2.8736,-2.859,-2.851,-2.8351,-2.8203,-2.7962,-2.7788,-2.7534,-2.7267,-2.7255,-2.7348,-2.7348,-2.7103,-2.7021,-2.7021,-2.661,-2.6218,-2.6063,-2.5979,-2.5895,-2.5895,-2.5895,-2.5895,-2.5895,-2.5895,-2.5895,-2.5895,-2.5895,-2.5895,-2.5895,-2.5895,-2.5895,-2.5895,-2.5728,-2.5771,-2.5602,-2.5158,-2.4519,-2.4378,-2.4292,-2.382,-2.3387,-2.2872,-2.253,-2.2353,-2.2176,-2.1909,-2.1731,-2.1731,-2.1731,-2.1731,-2.1731,-2.1731,-2.1731,-2.1553,-2.1463,-2.1006,-2.0555,-1.9877,-1.919,-1.8832,-1.8804,-1.8827,-1.8827,-1.8827,-1.8827,-1.8827,-1.8827,-1.8827,-1.8827,-1.8357,-1.7404,-1.6655,-1.59,-1.5134,-1.4472,-1.4382,-1.4298,-1.4298,-1.4298,-1.4298,-1.4298,-1.4298,-1.4298,-1.4298,-1.4298,-1.4298,-1.4298,-1.4106,-1.3426,-1.2446,-1.117,-3.2169,-3.2169,-3.1776,-3.1616,-3.1616,-3.1246,-3.1334,-3.1542,-3.132,-3.1172,-3.1084,-3.0859,-3.0696,-3.0696,-3.0696,-3.0393,-2.9871,-2.9793,-2.9651,-2.9419,-2.9197,-2.9328,-2.9263,-2.9184,-2.9118,-2.8961,-2.8578,-2.8351,-2.8203,-2.8122,-2.8018,-2.7765,-2.7765,-2.7765,-2.7684,-2.7603,-2.7534,-2.7441,-2.7021,-2.6704,-2.6385,-2.6135,-2.5979,-2.5895,-2.5895,-2.5895,-2.5895,-2.5895,-2.5895,-2.5895,-2.5895,-2.5895,-2.5895,-2.5895,-2.5895,-2.5895,-2.5895,-2.5895,-2.5812,-2.557,-2.5327,-2.5094,-2.5285,-2.4765,-2.4337,-2.3831,-2.356,-2.3299,-2.2618,-2.2353,-2.2176,-2.2097,-2.182,-2.1731,-2.1731,-2.1731,-2.1731,-2.1642,-2.1454,-2.1087,-2.0645,-2.0209,-1.953,-1.898,-1.8928,-1.8827,-1.8827,-1.8827,-1.8827,-1.8827,-1.8827,-1.8827,-1.8827,-1.845,-1.7692,-1.6842,-1.6096,-1.533,-1.4555,-1.4382,-1.4298,-1.4298,-1.4298,-1.4298,-1.4298,-1.4298,-1.4298,-1.4298,-1.4298,-1.4298,-1.4298,-1.4202,-1.342,-1.2538,-1.117,-3.2169,-3.2169,-3.2169,-3.2169,-3.2169,-3.2169,-3.2169,-3.2169,-3.2169,-3.2169,-3.2023,-3.1542,-3.1381,-3.1307,-3.1294,-3.0846,-3.0558,-3.0469,-3.0317,-3.0177,-3.0177,-3.0024,-3.0024,-3.0177,-2.9716,-2.9263,-2.8816,-2.8578,-2.8431,-2.8431,-2.8431,-2.851,-2.851,-2.851,-2.8351,-2.8191,-2.7962,-2.7869,-2.7615,-2.736,-2.6951,-2.6456,-2.6135,-2.5979,-2.5895,-2.5895,-2.5895,-2.5895,-2.5895,-2.5895,-2.5895,-2.5895,-2.5895,-2.5895,-2.5895,-2.5895,-2.5895,-2.5895,-2.5895,-2.5812,-2.5443,-2.5168,-2.5611,-2.5633,-2.5115,-2.4861,-2.4509,-2.3993,-2.3309,-2.2706,-2.2539,-2.2185,-2.1909,-2.1731,-2.1731,-2.1731,-2.1731,-2.1642,-2.1275,-2.0997,-2.0564,-2.0226,-1.977,-1.9212,-1.8936,-1.8827,-1.8827,-1.8827,-1.8827,-1.8827,-1.8827,-1.8827,-1.8827,-1.835,-1.7878,-1.7037,-1.6292,-1.5602,-1.4835,-1.4573,-1.4298,-1.4298,-1.4298,-1.4298,-1.4298,-1.4298,-1.4298,-1.4298,-1.4298,-1.4298,-1.4298,-1.4202,-1.3613,-1.2732,-1.1258,-3.2169,-3.2169,-3.2169,-3.2169,-3.2169,-3.2169,-3.2169,-3.2169,-3.2169,-3.2169,-3.2169,-3.2096,-3.2023,-3.2023,-3.2009,-3.1629,-3.1158,-3.1009,-3.062,-3.033,-3.0558,-3.0482,-3.033,-3.0393,-2.9947,-2.9419,-2.8895,-2.859,-2.851,-2.851,-2.851,-2.851,-2.851,-2.851,-2.851,-2.8363,-2.8283,-2.8203,-2.8042,-2.7788,-2.7534,-2.7033,-2.6528,-2.629,-2.6052,-2.5979,-2.5895,-2.5895,-2.5895,-2.5895,-2.5979,-2.5979,-2.5979,-2.5979,-2.5979,-2.5895,-2.5895,-2.5895,-2.5895,-2.5895,-2.5527,-2.5527,-2.5895,-2.5812,-2.5549,-2.5549,-2.52,-2.4605,-2.3917,-2.3057,-2.2618,-2.2097,-2.1741,-2.1731,-2.1731,-2.1731,-2.1731,-2.1365,-2.1087,-2.0727,-2.0275,-1.9928,-1.9662,-1.9204,-1.8928,-1.8827,-1.8827,-1.8827,-1.8827,-1.8827,-1.8827,-1.8827,-1.8827,-1.8827,-1.8542,-1.7232,-1.6292,-1.5697,-1.5026,-1.4573,-1.4298,-1.4298,-1.4298,-1.4298,-1.4298,-1.4298,-1.4298,-1.4298,-1.4298,-1.4298,-1.4298,-1.4202,-1.3709,-1.2926,-1.1551]},{"header":{"parameterUnit":"m.s-1","parameterCategory":1,"la1":31.0,"la2":29.5877,"lo1":-88.7671,"lo2":-86.6584,"dy":0.0162,"dx":0.0185,"nx":115,"ny":88,"refTime":"2024-06-04T06:00:00:Z","depth":0,"parameterNumber":3,"parameterNumberName":"V-component_of_WINDS"},"data":[0.0,0.0,0.0,0.0,0.0,0.0,0.0,0.0,0.0,0.0,0.0,0.0,0.0,0.0,0.0,0.0,0.0,0.0,0.0,0.0,0.0,0.0,0.0,0.0,0.0,0.0,0.0,0.0,0.0,0.0,0.0,0.0,0.0,0.0,0.0,0.0,0.0,0.0,0.0,0.0,0.0,0.0,0.0,0.0,0.0,0.0,0.0,0.0,0.0,0.0,0.0,0.0,0.0,0.0,0.0,0.0,0.0,0.0,0.0,0.0,0.0,0.0,0.0,0.0,0.0,0.0,0.0,0.0,0.0,0.0,0.0,0.0,0.0,0.0,0.0,0.0,0.0,0.0,0.0,0.0,0.0,0.0,0.0,0.0,0.0,0.0,0.0,0.0,0.0,0.0,0.0,0.0,0.0,0.0,0.0,0.0,0.0,0.0,0.0,0.0,0.0,0.0,0.0,0.0,0.0,0.0,0.0,0.0,0.0,0.0,0.0,0.0,0.0,0.0,0.0,0.0,0.0,0.0,0.0,0.0,0.0,0.0,0.0,0.0,0.0,0.0,0.0,0.0,0.0,0.0,0.0,0.0,0.0,0.0,0.0,0.0,0.0,0.0,0.0,0.0,0.0,0.0,0.0,0.0,0.0,0.0,0.0,0.0,0.0,0.0,0.0,0.0,0.0,0.0,0.0,0.0,0.0,0.0,0.0,0.0,0.0,0.0,0.0,0.0,0.0,0.0,0.0,0.0,0.0,0.0,0.0,0.0,0.0,0.0,0.0,0.0,0.0,0.0,0.0,0.0,0.0,0.0,0.0,0.0,0.0,0.0,0.0,0.0,0.0,0.0,0.0,0.0,0.0,0.0,0.0,0.0,0.0,0.0,0.0,0.0,0.0,0.0,0.0,0.0,0.0,0.0,0.0,0.0,0.0,0.0,0.0,0.0,0.0,0.0,0.0,0.0,0.0,0.0,0.0,0.0,0.0,0.0,0.0,0.0,0.0,0.0,0.0,0.0,0.0,0.0,0.0,0.0,0.0,0.0,0.0,0.0,0.0,0.0,0.0,0.0,0.0,0.0,0.0,0.0,0.0,0.0,0.0,0.0,0.0,0.0,0.0,0.0,0.0,0.0,0.0,0.0,0.0,0.0,0.0,0.0,0.0,0.0,0.0,0.0,0.0,0.0,0.0,0.0,0.0,0.0,0.0,0.0,0.0,0.0,0.0,0.0,0.0,0.0,0.0,0.0,0.0,0.0,0.0,0.0,0.0,0.0,0.0,0.0,0.0,0.0,0.0,0.0,0.0,0.0,0.0,0.0,0.0,0.0,0.0,0.0,0.0,0.0,0.0,0.0,0.0,0.0,0.0,0.0,0.0,0.0,0.0,0.0,0.0,0.0,0.0,0.0,0.0,0.0,0.0,0.0,0.0,0.0,0.0,0.0,0.0,0.0,0.0,0.0,0.0,0.0,0.0,0.0,0.0,0.0,0.0,0.0,0.0,0.0,0.0,0.0,0.0,0.0,0.0,0.0,0.0,0.0,0.0,0.0,0.0,0.0,0.0,0.0,0.0,0.0,0.0,0.0,0.0,0.0,0.0,0.0,0.0,0.0,0.0,0.0,0.0,0.0,0.0,0.0,0.0,0.0,0.0,0.0,0.0,0.0,0.0,0.0,0.0,0.0,0.0,0.0,0.0,0.0,0.0,0.0,0.0,0.0,0.0,0.0,0.0,0.0,0.0,0.0,0.0,0.0,0.0,0.0,0.0,0.0,0.0,0.0,0.0,0.0,0.0,0.0,0.0,0.0,0.0,0.0,0.0,0.0,0.0,0.0,0.0,0.0,0.0,0.0,0.0,0.0,0.0,0.0,0.0,0.0,0.0,0.0,0.0,0.0,0.0,0.0,0.0,0.0,0.0,0.0,0.0,0.0,0.0,0.0,0.0,0.0,0.0,0.0,0.0,0.0,0.0,0.0,0.0,0.0,0.0,0.0,0.0,0.0,0.0,0.0,0.0,0.0,0.0,0.0,0.0,0.0,0.0,0.0,0.0,0.0,0.0,0.0,0.0,0.0,0.0,0.0,0.0,0.0,0.0,0.0,0.0,0.0,0.0,0.0,0.0,0.0,0.0,0.0,0.0,0.0,0.0,0.0,0.0,0.0,0.0,0.0,0.0,0.0,0.0,0.0,0.0,0.0,0.0,0.0,0.0,0.0,0.0,0.0,0.0,0.0,0.0,0.0,0.0,0.0,0.0,0.0,0.0,0.0,0.0,0.0,0.0,0.0,0.0,0.0,0.0,0.0,0.0,0.0,0.0,0.0,0.0,0.0,0.0,0.0,0.0,0.0,0.0,0.0,0.0,0.0,0.0,0.0,0.0,0.0,0.0,0.0,0.0,0.0,0.0,0.0,0.0,0.0,0.0,0.0,0.0,0.0,0.0,0.0,0.0,0.0,0.0,0.0,0.0,0.0,0.0,0.0,0.0,0.0,0.0,0.0,0.0,0.0,0.0,0.0,0.0,0.0,0.0,0.0,0.0,0.0,0.0,0.0,0.0,0.0,0.0,0.0,0.0,0.0,0.0,0.0,0.0,0.0,0.0,0.0,0.0,0.0,0.0,0.0,0.0,0.0,0.0,0.0,0.0,0.0,0.0,0.0,0.0,0.0,0.0,0.0,0.0,0.0,0.0,0.0,0.0,0.0,0.0,0.0,0.0,0.0,0.0,0.0,0.0,0.0,0.0,0.0,0.0,0.0,0.0,0.0,0.0,0.0,0.0,0.0,0.0,0.0,0.0,0.0,0.0,0.0,0.0,0.0,0.0,0.0,0.0,0.0,0.0,0.0,0.0,0.0,0.0,0.0,0.0,0.0,0.0,0.0,0.0,0.0,0.0,0.0,0.0,0.0,0.0,0.0,0.0,0.0,0.0,0.0,0.0,0.0,0.0,0.0,0.0,0.0,0.0,0.0,0.0,0.0,0.0,0.0,0.0,0.0,0.0,0.0,0.0,0.0,0.0,0.0,0.0,0.0,0.0,0.0,0.0,0.0,0.0,0.0,0.0,0.0,0.0,0.0,0.0,0.0,0.0,0.0,0.0,0.0,0.0,0.0,0.0,0.0,0.0,0.0,0.0,0.0,0.0,0.0,0.0,0.0,0.0,0.0,0.0,0.0,0.0,0.0,0.0,0.0,0.0,0.0,0.0,0.0,0.0,0.0,0.0,0.0,0.0,0.0,0.0,0.0,0.0,0.0,0.0,0.0,0.0,0.0,0.0,0.0,0.0,0.0,0.0,0.0,0.0,0.0,0.0,0.0,0.0,0.0,0.0,0.0,0.0,0.0,0.0,0.0,0.0,0.0,0.0,0.0,0.0,0.0,0.0,0.0,0.0,0.0,0.0,0.0,0.0,0.0,0.0,0.0,0.0,0.0,0.0,0.0,0.0,0.0,0.0,0.0,0.0,0.0,0.0,0.0,0.0,0.0,0.0,0.0,0.0,0.0,0.0,0.0,0.0,0.0,0.0,0.0,0.0,0.0,0.0,0.0,0.0,0.0,0.0,0.0,0.0,0.0,0.0,0.0,0.0,0.0,0.0,0.0,0.0,0.0,0.0,0.0,0.0,0.0,0.0,0.0,0.0,0.0,0.0,0.0,0.0,0.0,0.0,0.0,0.0,0.0,0.0,0.0,0.0,0.0,0.0,0.0,0.0,0.0,0.0,0.0,0.0,0.0,0.0,0.0,0.0,0.0,0.0,0.0,0.0,0.0,0.0,0.0,0.0,0.0,0.0,0.0,0.0,0.0,0.0,0.0,0.0,0.0,0.0,0.0,0.0,0.0,0.0,0.0,0.0,0.0,0.0,0.0,0.0,0.0,0.0,0.0,0.0,0.0,0.0,0.0,0.0,0.0,0.0,0.0,0.0,0.0,0.0,0.0,0.0,0.0,0.0,0.0,0.0,0.0,0.0,0.0,0.0,0.0,0.0,0.0,0.0,0.0,0.0,0.0,0.0,0.0,0.0,0.0,0.0,0.0,0.0,0.0,0.0,0.0,0.0,0.0,0.0,0.0,0.0,0.0,0.0,0.0,0.0,0.0,0.0,0.0,0.0,0.0,0.0,0.0,0.0,0.0,0.0,0.0,0.0,0.0,0.0,0.0,0.0,0.0,0.0,0.0,0.0,0.0,0.0,0.0,0.0,0.0,0.0,0.0,0.0,0.0,0.0,0.0,0.0,0.0,0.0,0.0,0.0,0.0,0.0,0.0,0.0,0.0,0.0,0.0,0.0,0.0,-0.7753,0.0,0.0,0.0,0.0,0.0,0.0,0.0,0.0,0.0,0.0,0.0,0.0,0.0,0.0,0.0,0.0,0.0,0.0,0.0,0.0,0.0,0.0,0.0,0.0,0.0,0.0,0.0,0.0,0.0,0.0,0.0,0.0,0.0,0.0,0.0,0.0,0.0,0.0,0.0,0.0,0.0,0.0,0.0,0.0,0.0,0.0,0.0,0.0,0.0,0.0,0.0,0.0,0.0,0.0,0.0,0.0,0.0,0.0,0.0,0.0,0.0,0.0,0.0,0.0,0.0,0.0,0.0,0.0,0.0,0.0,0.0,0.0,0.0,0.0,0.0,0.0,0.0,0.0,0.0,0.0,0.0,0.0,0.0,0.0,0.0,0.0,0.0,0.0,0.0,0.0,0.0,0.0,0.0,0.0,0.0,0.0,0.0,0.0,0.0,0.0,0.0,0.0,0.0,0.0,0.0,0.0,0.0,0.0,0.0,0.0,-0.8245,-0.815,-0.804,-0.7926,-0.787,0.0,0.0,0.0,0.0,0.0,0.0,0.0,0.0,0.0,0.0,0.0,0.0,0.0,0.0,0.0,0.0,0.0,0.0,0.0,0.0,0.0,0.0,0.0,0.0,0.0,0.0,0.0,0.0,0.0,0.0,0.0,0.0,0.0,0.0,0.0,0.0,0.0,0.0,0.0,0.0,0.0,0.0,0.0,0.0,0.0,0.0,0.0,0.0,0.0,0.0,0.0,0.0,0.0,0.0,0.0,0.0,0.0,0.0,0.0,0.0,0.0,0.0,0.0,0.0,0.0,0.0,0.0,0.0,0.0,0.0,0.0,0.0,0.0,0.0,0.0,0.0,0.0,0.0,0.0,0.0,0.0,0.0,0.0,0.0,0.0,0.0,0.0,0.0,0.0,0.0,0.0,0.0,0.0,0.0,0.0,0.0,0.0,0.0,0.0,0.0,0.0,0.0,0.0,0.0,0.0,0.0,0.0,0.0,0.0,0.0,0.0,0.0,-0.8643,-0.8556,-0.8394,0.0,0.0,0.0,0.0,0.0,0.0,0.0,0.0,0.0,0.0,0.0,0.0,0.0,0.0,0.0,0.0,0.0,0.0,0.0,0.0,0.0,0.0,0.0,0.0,0.0,0.0,0.0,0.0,0.0,0.0,0.0,0.0,0.0,0.0,0.0,0.0,0.0,0.0,0.0,0.0,0.0,0.0,0.0,0.0,0.0,0.0,0.0,0.0,0.0,0.0,0.0,0.0,0.0,0.0,0.0,0.0,0.0,0.0,0.0,0.0,0.0,0.0,0.0,0.0,0.0,0.0,0.0,0.0,0.0,0.0,0.0,0.0,0.0,0.0,0.0,0.0,0.0,0.0,0.0,0.0,0.0,0.0,0.0,0.0,0.0,0.0,0.0,0.0,0.0,0.0,0.0,0.0,0.0,0.0,0.0,0.0,0.0,0.0,0.0,0.0,0.0,0.0,0.0,0.0,0.0,0.0,0.0,0.0,0.0,0.0,-0.9287,-1.0335,-1.024,0.0,-0.9958,0.0,0.0,0.0,0.0,0.0,0.0,0.0,0.0,0.0,0.0,0.0,0.0,0.0,0.0,0.0,0.0,0.0,0.0,0.0,0.0,0.0,0.0,0.0,0.0,0.0,0.0,0.0,0.0,0.0,0.0,0.0,0.0,0.0,0.0,0.0,0.0,0.0,0.0,0.0,0.0,0.0,0.0,0.0,0.0,0.0,0.0,0.0,0.0,0.0,0.0,0.0,0.0,0.0,0.0,0.0,0.0,0.0,0.0,0.0,0.0,0.0,0.0,0.0,0.0,0.0,0.0,0.0,0.0,0.0,0.0,0.0,0.0,0.0,0.0,0.0,0.0,0.0,0.0,0.0,0.0,0.0,0.0,0.0,0.0,0.0,0.0,0.0,0.0,0.0,0.0,0.0,0.0,0.0,0.0,0.0,0.0,0.0,0.0,0.0,0.0,0.0,0.0,0.0,0.0,0.0,0.0,0.0,0.0,0.0,0.0,0.0,-1.0543,-1.0527,-1.0463,0.0,0.0,0.0,0.0,0.0,0.0,0.0,0.0,0.0,0.0,0.0,0.0,0.0,0.0,0.0,0.0,0.0,0.0,0.0,0.0,0.0,0.0,0.0,0.0,0.0,0.0,0.0,0.0,0.0,0.0,0.0,0.0,0.0,0.0,0.0,0.0,0.0,0.0,0.0,0.0,0.0,0.0,0.0,0.0,0.0,0.0,0.0,0.0,0.0,0.0,0.0,0.0,0.0,0.0,0.0,0.0,0.0,0.0,0.0,0.0,0.0,0.0,0.0,0.0,0.0,0.0,0.0,0.0,0.0,0.0,0.0,0.0,0.0,0.0,0.0,0.0,0.0,0.0,0.0,0.0,0.0,0.0,0.0,0.0,0.0,0.0,0.0,0.0,0.0,0.0,0.0,0.0,0.0,0.0,0.0,0.0,0.0,0.0,0.0,0.0,0.0,0.0,0.0,0.0,0.0,0.0,0.0,0.0,0.0,0.0,-1.0648,0.0,-1.1171,-1.1136,-1.0927,-1.0527,0.0,0.0,0.0,0.0,0.0,0.0,0.0,0.0,0.0,0.0,0.0,0.0,0.0,0.0,0.0,0.0,0.0,0.0,0.0,0.0,0.0,0.0,0.0,0.0,0.0,0.0,0.0,0.0,0.0,0.0,0.0,0.0,0.0,0.0,0.0,0.0,0.0,0.0,0.0,0.0,0.0,0.0,0.0,0.0,0.0,0.0,0.0,0.0,0.0,0.0,0.0,0.0,0.0,0.0,0.0,0.0,0.0,0.0,0.0,0.0,0.0,0.0,0.0,0.0,0.0,0.0,0.0,0.0,0.0,0.0,0.0,0.0,0.0,0.0,0.0,0.0,0.0,0.0,0.0,0.0,0.0,0.0,0.0,0.0,0.0,0.0,0.0,0.0,0.0,0.0,0.0,0.0,0.0,0.0,0.0,0.0,0.0,0.0,0.0,0.0,0.0,0.0,0.0,0.0,0.0,0.0,0.0,0.0,0.0,-1.1981,-1.1851,-1.2833,-1.2581,-1.1809,0.0,0.0,0.0,0.0,0.0,0.0,0.0,0.0,0.0,0.0,0.0,0.0,0.0,0.0,0.0,0.0,0.0,0.0,0.0,0.0,0.0,0.0,0.0,0.0,0.0,0.0,0.0,0.0,0.0,0.0,0.0,0.0,0.0,0.0,0.0,0.0,0.0,0.0,0.0,0.0,0.0,0.0,0.0,0.0,0.0,0.0,0.0,0.0,0.0,0.0,0.0,0.0,0.0,0.0,0.0,0.0,0.0,0.0,0.0,0.0,0.0,0.0,0.0,0.0,0.0,0.0,0.0,0.0,0.0,0.0,0.0,0.0,0.0,0.0,0.0,0.0,0.0,0.0,0.0,0.0,0.0,0.0,0.0,0.0,0.0,0.0,0.0,0.0,0.0,0.0,0.0,0.0,0.0,0.0,0.0,0.0,0.0,0.0,0.0,0.0,0.0,0.0,0.0,0.0,0.0,0.0,0.0,0.0,0.0,-1.0535,-1.0865,-1.2091,0.0,-1.248,-1.1645,0.0,0.0,0.0,0.0,0.0,0.0,0.0,0.0,0.0,0.0,0.0,0.0,0.0,0.0,0.0,0.0,0.0,0.0,0.0,0.0,0.0,0.0,0.0,0.0,0.0,0.0,0.0,0.0,0.0,0.0,0.0,0.0,0.0,0.0,0.0,0.0,0.0,0.0,0.0,0.0,0.0,0.0,0.0,0.0,0.0,0.0,0.0,0.0,0.0,0.0,0.0,0.0,0.0,0.0,0.0,0.0,0.0,0.0,0.0,0.0,0.0,0.0,0.0,0.0,0.0,0.0,0.0,0.0,0.0,0.0,0.0,0.0,0.0,0.0,0.0,0.0,0.0,0.0,0.0,0.0,0.0,0.0,0.0,0.0,0.0,0.0,0.0,0.0,0.0,0.0,0.0,0.0,0.0,0.0,0.0,0.0,0.0,0.0,0.0,0.0,0.0,0.0,0.0,0.0,0.0,0.0,0.0,0.0,0.0,-1.0478,0.0,-1.3123,0.0,-1.2673,-1.1625,0.0,0.0,0.0,0.0,0.0,0.0,0.0,0.0,0.0,0.0,0.0,0.0,0.0,0.0,0.0,0.0,0.0,0.0,0.0,0.0,0.0,0.0,0.0,0.0,0.0,0.0,0.0,0.0,0.0,0.0,0.0,0.0,0.0,0.0,0.0,0.0,0.0,0.0,0.0,0.0,0.0,0.0,0.0,0.0,0.0,0.0,0.0,0.0,0.0,0.0,0.0,0.0,0.0,0.0,0.0,0.0,0.0,0.0,0.0,0.0,0.0,0.0,0.0,0.0,0.0,0.0,0.0,0.0,0.0,0.0,0.0,0.0,0.0,0.0,0.0,0.0,0.0,0.0,0.0,0.0,0.0,0.0,0.0,0.0,0.0,0.0,0.0,0.0,0.0,0.0,0.0,0.0,0.0,0.0,0.0,0.0,0.0,0.0,0.0,0.0,0.0,0.0,0.0,0.0,0.0,0.0,0.0,0.0,0.0,-1.3415,-1.4864,-1.4912,-1.3615,-1.3261,-1.1832,0.0,0.0,0.0,0.0,0.0,0.0,0.0,0.0,0.0,0.0,0.0,0.0,0.0,0.0,0.0,0.0,0.0,0.0,0.0,0.0,0.0,0.0,0.0,0.0,0.0,0.0,0.0,0.0,0.0,0.0,0.0,0.0,0.0,0.0,0.0,0.0,0.0,0.0,0.0,0.0,0.0,0.0,0.0,0.0,0.0,0.0,0.0,0.0,0.0,0.0,0.0,0.0,0.0,0.0,0.0,0.0,0.0,0.0,0.0,0.0,0.0,0.0,0.0,0.0,0.0,0.0,0.0,0.0,0.0,0.0,0.0,0.0,0.0,0.0,0.0,0.0,0.0,0.0,0.0,0.0,0.0,0.0,0.0,0.0,0.0,0.0,0.0,0.0,0.0,0.0,0.0,0.0,0.0,0.0,0.0,0.0,0.0,0.0,0.0,0.0,0.0,0.0,0.0,0.0,0.0,0.0,0.0,0.0,0.0,-1.2103,-1.3475,-1.4724,-1.5624,-1.3209,-1.2109,0.0,0.0,0.0,0.0,0.0,0.0,0.0,0.0,0.0,0.0,0.0,0.0,0.0,0.0,0.0,0.0,0.0,0.0,0.0,0.0,0.0,0.0,0.0,0.0,0.0,0.0,0.0,0.0,0.0,0.0,0.0,0.0,0.0,0.0,0.0,0.0,0.0,0.0,0.0,0.0,0.0,0.0,0.0,0.0,0.0,0.0,0.0,0.0,0.0,0.0,0.0,0.0,0.0,0.0,0.0,0.0,0.0,0.0,0.0,0.0,0.0,0.0,0.0,0.0,0.0,0.0,0.0,0.0,0.0,0.0,0.0,0.0,0.0,0.0,0.0,0.0,0.0,0.0,0.0,0.0,0.0,0.0,0.0,0.0,0.0,0.0,0.0,0.0,0.0,0.0,0.0,0.0,0.0,0.0,0.0,0.0,0.0,0.0,0.0,0.0,0.0,0.0,0.0,0.0,0.0,0.0,0.0,0.0,0.0,-1.3676,-1.4951,-1.6045,-1.686,-1.4332,-1.3067,-1.3273,0.0,0.0,0.0,0.0,0.0,0.0,0.0,0.0,0.0,0.0,0.0,0.0,0.0,0.0,0.0,0.0,0.0,0.0,0.0,0.0,0.0,0.0,0.0,0.0,0.0,0.0,0.0,0.0,0.0,0.0,0.0,0.0,0.0,0.0,0.0,0.0,0.0,0.0,0.0,0.0,0.0,0.0,0.0,0.0,0.0,0.0,0.0,0.0,0.0,0.0,0.0,0.0,0.0,0.0,0.0,0.0,0.0,0.0,0.0,0.0,0.0,0.0,0.0,0.0,0.0,0.0,0.0,0.0,0.0,0.0,0.0,0.0,0.0,0.0,0.0,0.0,0.0,0.0,0.0,0.0,0.0,0.0,0.0,0.0,0.0,0.0,0.0,0.0,0.0,0.0,0.0,0.0,0.0,0.0,0.0,0.0,0.0,0.0,0.0,0.0,0.0,0.0,0.0,0.0,0.0,0.0,0.0,0.0,-1.7326,-1.8693,-1.8724,-1.7346,-1.6364,-1.4589,0.0,0.0,0.0,0.0,0.0,0.0,0.0,0.0,0.0,0.0,0.0,0.0,0.0,0.0,0.0,0.0,0.0,0.0,0.0,0.0,0.0,0.0,0.0,0.0,0.0,0.0,0.0,0.0,0.0,0.0,0.0,0.0,0.0,0.0,0.0,0.0,0.0,0.0,0.0,0.0,0.0,0.0,0.0,0.0,0.0,0.0,0.0,0.0,0.0,0.0,0.0,0.0,0.0,0.0,0.0,0.0,0.0,0.0,0.0,0.0,0.0,0.0,0.0,0.0,0.0,0.0,0.0,0.0,0.0,0.0,0.0,0.0,0.0,0.0,0.0,0.0,0.0,0.0,0.0,0.0,0.0,0.0,0.0,0.0,0.0,0.0,0.0,0.0,0.0,0.0,0.0,0.0,0.0,0.0,0.0,0.0,0.0,0.0,0.0,0.0,0.0,0.0,0.0,0.0,0.0,0.0,0.0,0.0,0.0,-1.8031,-1.9981,-2.0815,-2.0349,-1.753,-1.5905,0.0,0.0,0.0,0.0,0.0,0.0,0.0,0.0,0.0,0.0,0.0,0.0,0.0,0.0,0.0,0.0,0.0,0.0,0.0,0.0,0.0,0.0,0.0,0.0,0.0,0.0,0.0,0.0,0.0,0.0,0.0,0.0,0.0,0.0,0.0,0.0,0.0,0.0,0.0,0.0,0.0,0.0,0.0,0.0,0.0,0.0,0.0,0.0,0.0,0.0,0.0,0.0,0.0,0.0,0.0,0.0,0.0,0.0,0.0,0.0,0.0,0.0,0.0,0.0,0.0,0.0,0.0,0.0,0.0,0.0,0.0,0.0,0.0,0.0,0.0,0.0,0.0,0.0,0.0,0.0,0.0,0.0,0.0,0.0,0.0,0.0,0.0,0.0,0.0,0.0,0.0,0.0,0.0,0.0,0.0,0.0,0.0,0.0,0.0,0.0,0.0,0.0,0.0,0.0,0.0,0.0,0.0,0.0,-1.7788,-1.9935,-2.1388,-2.2133,-2.2133,-1.9364,-1.7485,0.0,0.0,0.0,0.0,0.0,0.0,0.0,0.0,0.0,0.0,0.0,0.0,0.0,0.0,0.0,0.0,0.0,0.0,0.0,0.0,0.0,0.0,0.0,0.0,0.0,0.0,0.0,0.0,0.0,0.0,0.0,0.0,0.0,0.0,0.0,0.0,0.0,0.0,0.0,0.0,0.0,0.0,0.0,0.0,0.0,0.0,0.0,0.0,0.0,0.0,0.0,0.0,0.0,0.0,0.0,0.0,0.0,0.0,0.0,0.0,0.0,0.0,0.0,0.0,0.0,0.0,0.0,0.0,0.0,0.0,0.0,0.0,0.0,0.0,0.0,0.0,0.0,0.0,0.0,0.0,0.0,0.0,0.0,0.0,0.0,0.0,0.0,0.0,0.0,0.0,0.0,0.0,0.0,0.0,0.0,0.0,0.0,0.0,0.0,0.0,0.0,0.0,0.0,0.0,0.0,0.0,0.0,0.0,-1.9198,-2.2114,-2.2676,-2.2927,-2.2867,-2.1309,-1.9187,0.0,0.0,0.0,0.0,0.0,0.0,0.0,0.0,0.0,0.0,0.0,0.0,0.0,0.0,0.0,0.0,0.0,0.0,0.0,0.0,0.0,0.0,0.0,0.0,0.0,0.0,0.0,0.0,0.0,0.0,0.0,0.0,0.0,0.0,0.0,0.0,0.0,0.0,0.0,0.0,0.0,0.0,0.0,0.0,0.0,0.0,0.0,0.0,0.0,0.0,0.0,0.0,0.0,0.0,0.0,0.0,0.0,0.0,0.0,0.0,0.0,0.0,0.0,0.0,0.0,0.0,0.0,0.0,0.0,0.0,0.0,0.0,0.0,0.0,0.0,0.0,0.0,0.0,0.0,0.0,0.0,0.0,0.0,0.0,0.0,0.0,0.0,0.0,0.0,0.0,0.0,0.0,0.0,0.0,0.0,0.0,0.0,0.0,0.0,0.0,0.0,0.0,0.0,0.0,0.0,0.0,0.0,0.0,-2.0208,-2.1404,-2.2652,-2.3236,-2.3035,-2.1517,-1.9907,0.0,0.0,0.0,0.0,0.0,0.0,0.0,0.0,0.0,0.0,0.0,0.0,0.0,0.0,0.0,0.0,0.0,0.0,0.0,0.0,0.0,0.0,0.0,0.0,0.0,0.0,0.0,0.0,0.0,0.0,0.0,0.0,0.0,0.0,0.0,0.0,0.0,0.0,0.0,0.0,0.0,0.0,0.0,0.0,0.0,0.0,0.0,0.0,-1.2221,0.0,0.0,0.0,0.0,0.0,0.0,0.0,0.0,0.0,0.0,0.0,0.0,0.0,0.0,0.0,0.0,0.0,0.0,0.0,0.0,0.0,0.0,0.0,0.0,0.0,0.0,0.0,0.0,0.0,0.0,0.0,0.0,0.0,0.0,0.0,0.0,0.0,0.0,0.0,0.0,0.0,0.0,0.0,0.0,0.0,0.0,0.0,0.0,0.0,0.0,0.0,0.0,0.0,0.0,0.0,0.0,0.0,0.0,0.0,-2.0932,-2.2429,-2.3153,-2.345,-2.3294,-2.2531,-2.1025,0.0,0.0,0.0,0.0,0.0,0.0,0.0,0.0,0.0,0.0,0.0,0.0,0.0,0.0,0.0,0.0,0.0,0.0,0.0,0.0,0.0,0.0,0.0,0.0,0.0,0.0,0.0,0.0,0.0,0.0,0.0,0.0,0.0,0.0,0.0,0.0,0.0,0.0,0.0,0.0,0.0,0.0,0.0,0.0,0.0,0.0,0.0,0.0,0.0,0.0,0.0,0.0,0.0,0.0,0.0,0.0,0.0,0.0,0.0,0.0,0.0,0.0,0.0,0.0,0.0,0.0,0.0,0.0,0.0,0.0,0.0,0.0,0.0,0.0,0.0,0.0,0.0,0.0,0.0,0.0,0.0,0.0,0.0,0.0,0.0,0.0,0.0,0.0,0.0,0.0,0.0,0.0,0.0,0.0,0.0,0.0,0.0,0.0,0.0,0.0,0.0,0.0,0.0,0.0,0.0,0.0,0.0,-1.9378,-2.1461,-2.3828,-2.3777,-2.3692,-2.3631,-2.3649,-2.2114,-1.886,0.0,0.0,0.0,0.0,0.0,0.0,0.0,0.0,0.0,0.0,0.0,0.0,0.0,0.0,0.0,0.0,0.0,0.0,0.0,0.0,0.0,0.0,0.0,0.0,0.0,0.0,0.0,0.0,0.0,0.0,0.0,0.0,0.0,0.0,0.0,0.0,0.0,0.0,-1.2039,-1.4165,0.0,0.0,0.0,0.0,0.0,0.0,0.0,0.0,-1.436,0.0,0.0,0.0,0.0,0.0,0.0,0.0,0.0,0.0,0.0,0.0,0.0,0.0,0.0,0.0,0.0,0.0,0.0,0.0,0.0,0.0,0.0,0.0,0.0,0.0,0.0,0.0,0.0,0.0,0.0,0.0,0.0,0.0,0.0,0.0,0.0,0.0,0.0,0.0,0.0,0.0,0.0,0.0,0.0,0.0,0.0,0.0,0.0,0.0,0.0,0.0,0.0,0.0,0.0,0.0,0.0,-1.9951,-2.0368,-2.1711,-2.4062,-2.4173,-2.4077,-2.3858,-2.3855,-2.2312,-1.9126,0.0,0.0,0.0,0.0,0.0,0.0,0.0,0.0,0.0,0.0,0.0,0.0,0.0,0.0,0.0,0.0,0.0,0.0,0.0,0.0,0.0,0.0,0.0,0.0,0.0,0.0,0.0,0.0,0.0,0.0,0.0,0.0,0.0,0.0,0.0,0.0,0.0,0.0,0.0,-1.5755,-1.6775,0.0,0.0,0.0,0.0,0.0,0.0,0.0,0.0,-1.4822,0.0,0.0,0.0,0.0,0.0,0.0,0.0,0.0,0.0,0.0,0.0,0.0,0.0,0.0,0.0,0.0,0.0,0.0,0.0,0.0,0.0,0.0,0.0,0.0,0.0,0.0,0.0,0.0,0.0,0.0,0.0,0.0,0.0,0.0,0.0,0.0,0.0,0.0,0.0,0.0,0.0,0.0,0.0,0.0,0.0,0.0,0.0,0.0,0.0,0.0,0.0,0.0,0.0,0.0,0.0,-1.9258,-2.0993,-2.2629,-2.4136,-2.4228,-2.419,-2.4037,-2.3251,-2.1661,0.0,0.0,0.0,0.0,0.0,0.0,0.0,0.0,0.0,0.0,0.0,0.0,0.0,0.0,0.0,0.0,0.0,0.0,0.0,0.0,0.0,0.0,0.0,0.0,0.0,0.0,0.0,0.0,0.0,0.0,0.0,0.0,0.0,0.0,0.0,0.0,0.0,0.0,0.0,0.0,-1.72,-1.8135,-1.8518,0.0,0.0,0.0,0.0,0.0,0.0,-1.7156,-1.6314,0.0,0.0,0.0,0.0,0.0,0.0,0.0,0.0,0.0,0.0,0.0,0.0,0.0,0.0,0.0,0.0,0.0,0.0,0.0,0.0,0.0,0.0,0.0,0.0,0.0,0.0,0.0,0.0,0.0,0.0,0.0,0.0,0.0,0.0,0.0,0.0,0.0,0.0,0.0,0.0,0.0,0.0,0.0,0.0,0.0,0.0,0.0,0.0,0.0,0.0,0.0,0.0,0.0,0.0,0.0,-1.8452,-2.1288,-2.3217,-2.4154,-2.419,-2.4209,-2.4172,-2.2959,-2.1377,0.0,0.0,0.0,0.0,0.0,0.0,0.0,0.0,0.0,0.0,0.0,0.0,0.0,0.0,0.0,0.0,0.0,0.0,0.0,0.0,0.0,0.0,0.0,0.0,0.0,0.0,0.0,0.0,0.0,0.0,0.0,0.0,0.0,0.0,0.0,0.0,0.0,0.0,0.0,0.0,0.0,-1.9903,-1.9733,-2.0305,0.0,0.0,0.0,0.0,-1.9915,-1.9241,0.0,0.0,0.0,0.0,0.0,0.0,0.0,0.0,0.0,0.0,0.0,0.0,0.0,0.0,0.0,0.0,0.0,0.0,0.0,0.0,0.0,0.0,0.0,0.0,0.0,0.0,0.0,0.0,0.0,0.0,0.0,0.0,0.0,0.0,0.0,0.0,0.0,0.0,0.0,0.0,0.0,0.0,0.0,0.0,0.0,0.0,0.0,0.0,0.0,0.0,0.0,0.0,0.0,0.0,0.0,0.0,-1.9188,-2.1025,-2.2682,-2.41,-2.4247,-2.4266,-2.4192,-2.4008,-2.2517,0.0,0.0,0.0,0.0,0.0,0.0,0.0,0.0,0.0,0.0,0.0,0.0,0.0,0.0,0.0,0.0,0.0,0.0,0.0,0.0,0.0,0.0,0.0,0.0,0.0,0.0,0.0,0.0,0.0,0.0,0.0,0.0,0.0,0.0,0.0,0.0,0.0,0.0,0.0,0.0,0.0,-2.2278,-2.151,-2.156,-2.1558,0.0,0.0,0.0,-2.2438,-2.1837,0.0,0.0,0.0,0.0,0.0,0.0,0.0,0.0,0.0,0.0,0.0,0.0,0.0,0.0,0.0,0.0,0.0,0.0,0.0,0.0,0.0,0.0,0.0,0.0,0.0,0.0,0.0,0.0,0.0,0.0,0.0,0.0,0.0,0.0,0.0,0.0,0.0,0.0,0.0,0.0,0.0,0.0,0.0,0.0,0.0,0.0,0.0,0.0,0.0,0.0,0.0,0.0,0.0,0.0,0.0,-1.7009,-1.9338,-2.1875,-2.3511,-2.4173,-2.4247,-2.4228,-2.419,-2.2886,-2.1083,0.0,0.0,0.0,0.0,0.0,0.0,0.0,0.0,0.0,0.0,0.0,0.0,0.0,0.0,0.0,0.0,0.0,0.0,0.0,0.0,0.0,0.0,0.0,0.0,0.0,0.0,0.0,0.0,0.0,0.0,0.0,0.0,0.0,0.0,0.0,0.0,0.0,0.0,0.0,0.0,0.0,0.0,-2.2394,-2.2887,0.0,0.0,0.0,-2.3129,-2.3032,0.0,0.0,0.0,0.0,0.0,0.0,0.0,0.0,0.0,0.0,0.0,0.0,0.0,0.0,0.0,0.0,0.0,0.0,0.0,0.0,0.0,0.0,0.0,0.0,0.0,0.0,0.0,0.0,0.0,0.0,0.0,0.0,0.0,0.0,0.0,0.0,0.0,0.0,0.0,0.0,0.0,0.0,0.0,0.0,0.0,0.0,0.0,0.0,0.0,0.0,0.0,0.0,0.0,0.0,0.0,0.0,0.0,-1.9353,-2.2537,-2.419,-2.419,-2.419,-2.419,-2.4153,-2.2262,0.0,0.0,0.0,0.0,0.0,0.0,0.0,0.0,0.0,0.0,0.0,0.0,0.0,0.0,0.0,0.0,0.0,0.0,0.0,0.0,0.0,0.0,0.0,0.0,0.0,0.0,0.0,-1.0324,0.0,0.0,0.0,0.0,0.0,0.0,0.0,0.0,0.0,0.0,0.0,0.0,0.0,0.0,-2.2599,-2.3245,-2.4061,-2.4391,0.0,0.0,-2.4397,-2.3756,-2.4216,-2.3745,0.0,0.0,0.0,0.0,0.0,0.0,0.0,0.0,0.0,0.0,0.0,0.0,0.0,0.0,0.0,0.0,0.0,0.0,0.0,0.0,0.0,0.0,0.0,0.0,0.0,0.0,0.0,0.0,0.0,0.0,0.0,0.0,0.0,0.0,0.0,0.0,0.0,0.0,0.0,0.0,0.0,0.0,0.0,0.0,0.0,0.0,0.0,0.0,0.0,0.0,0.0,0.0,0.0,0.0,0.0,-1.9526,-2.2609,-2.419,-2.419,-2.419,-2.419,-2.4171,-2.3309,-2.1711,0.0,0.0,0.0,0.0,0.0,0.0,0.0,0.0,0.0,0.0,0.0,0.0,0.0,0.0,0.0,0.0,0.0,0.0,0.0,0.0,0.0,0.0,0.0,0.0,0.0,0.0,0.0,0.0,0.0,0.0,0.0,0.0,0.0,0.0,0.0,0.0,0.0,0.0,0.0,0.0,0.0,-2.4141,-2.4205,-2.4954,-2.5504,0.0,0.0,-2.5504,-2.5426,-2.5465,-2.4624,-2.2046,0.0,0.0,0.0,0.0,0.0,0.0,0.0,0.0,0.0,0.0,0.0,0.0,0.0,0.0,0.0,0.0,0.0,0.0,0.0,0.0,0.0,0.0,0.0,0.0,0.0,0.0,0.0,0.0,0.0,0.0,0.0,0.0,0.0,0.0,0.0,0.0,0.0,0.0,0.0,0.0,0.0,0.0,0.0,0.0,0.0,0.0,0.0,0.0,0.0,0.0,0.0,0.0,0.0,-1.7784,-1.9383,-2.2573,-2.419,-2.419,-2.419,-2.419,-2.419,-2.3419,-2.1602,0.0,0.0,0.0,0.0,0.0,0.0,0.0,0.0,0.0,0.0,0.0,0.0,0.0,0.0,0.0,0.0,0.0,0.0,0.0,0.0,0.0,0.0,0.0,0.0,0.0,0.0,0.0,0.0,-1.0324,-1.0308,-1.0311,0.0,0.0,0.0,0.0,0.0,0.0,0.0,0.0,0.0,0.0,-2.4487,-2.5018,-2.5387,0.0,0.0,-2.6048,-2.6203,-2.5679,-2.6065,-2.5696,-2.3639,-2.3286,0.0,0.0,0.0,0.0,0.0,0.0,0.0,0.0,0.0,0.0,0.0,0.0,0.0,0.0,0.0,0.0,0.0,0.0,0.0,0.0,0.0,0.0,0.0,0.0,0.0,0.0,0.0,0.0,0.0,0.0,0.0,0.0,0.0,0.0,0.0,0.0,0.0,0.0,0.0,0.0,0.0,0.0,0.0,0.0,0.0,0.0,0.0,0.0,0.0,0.0,0.0,0.0,-1.7881,-1.9745,-2.2648,-2.4151,-2.4151,-2.4133,-2.4133,-2.4114,-2.3381,-2.1641,0.0,0.0,0.0,0.0,0.0,0.0,0.0,0.0,0.0,0.0,0.0,0.0,0.0,0.0,0.0,0.0,0.0,0.0,0.0,0.0,0.0,0.0,0.0,0.0,0.0,0.0,0.0,0.0,-1.0324,-1.0307,-1.0312,0.0,0.0,0.0,0.0,0.0,0.0,0.0,0.0,0.0,0.0,-2.4703,-2.5847,-2.5998,-2.6091,-2.6354,-2.6661,-2.6675,-2.6101,-2.6495,-2.6311,-2.4593,0.0,0.0,0.0,0.0,0.0,0.0,0.0,0.0,0.0,0.0,0.0,0.0,0.0,0.0,0.0,0.0,0.0,0.0,0.0,0.0,0.0,0.0,0.0,0.0,0.0,0.0,0.0,0.0,0.0,0.0,0.0,0.0,0.0,0.0,0.0,0.0,0.0,0.0,0.0,0.0,0.0,0.0,0.0,0.0,0.0,0.0,0.0,0.0,0.0,0.0,0.0,0.0,0.0,0.0,-2.0732,-2.2905,-2.4016,-2.3998,-2.3978,-2.3998,-2.3979,-2.3287,-2.2082,-2.0332,0.0,0.0,0.0,0.0,0.0,0.0,0.0,0.0,0.0,0.0,0.0,0.0,0.0,0.0,0.0,0.0,0.0,0.0,0.0,0.0,0.0,0.0,0.0,0.0,0.0,0.0,-1.0305,-1.0324,-1.0344,0.0,0.0,0.0,0.0,0.0,0.0,0.0,0.0,0.0,0.0,-2.3787,-2.4938,-2.6597,-2.6871,-2.716,-2.7967,-2.744,-2.6905,-2.688,-2.6903,-2.6342,0.0,0.0,0.0,0.0,0.0,0.0,0.0,0.0,0.0,0.0,0.0,0.0,0.0,0.0,0.0,0.0,0.0,0.0,0.0,0.0,0.0,0.0,0.0,0.0,0.0,0.0,0.0,-1.5238,-1.4005,0.0,0.0,0.0,0.0,0.0,0.0,0.0,0.0,0.0,0.0,0.0,-2.199,-2.2972,0.0,0.0,0.0,0.0,0.0,0.0,0.0,0.0,0.0,0.0,0.0,0.0,-1.8726,-2.0554,-2.2813,-2.3978,-2.3978,-2.3978,-2.3978,-2.3978,-2.376,-2.2373,-1.9694,0.0,0.0,0.0,0.0,0.0,0.0,0.0,0.0,0.0,0.0,0.0,0.0,0.0,0.0,0.0,0.0,0.0,0.0,0.0,0.0,0.0,0.0,0.0,0.0,0.0,-1.0258,0.0,0.0,0.0,0.0,0.0,0.0,0.0,0.0,0.0,0.0,0.0,-2.2655,-2.3749,-2.5137,-2.625,-2.6814,-2.74,-2.7869,0.0,0.0,0.0,0.0,0.0,0.0,0.0,0.0,0.0,0.0,0.0,0.0,0.0,0.0,-2.4537,-2.113,-2.0018,-1.9725,-1.9998,0.0,0.0,0.0,0.0,0.0,0.0,0.0,0.0,0.0,0.0,0.0,0.0,0.0,0.0,0.0,0.0,-1.7004,0.0,0.0,0.0,0.0,0.0,0.0,0.0,0.0,-2.2682,-2.4072,-2.4284,-2.5252,-2.4884,0.0,-2.3401,-2.1471,0.0,0.0,0.0,0.0,0.0,0.0,0.0,0.0,-1.9485,-2.126,-2.301,-2.3917,-2.3917,-2.3917,-2.3937,-2.3917,-2.3662,-2.2445,-2.0112,-1.8731,-1.6929,0.0,0.0,0.0,0.0,0.0,0.0,0.0,0.0,0.0,0.0,0.0,0.0,0.0,0.0,0.0,0.0,0.0,0.0,0.0,0.0,0.0,0.0,0.0,-1.1115,0.0,0.0,0.0,0.0,0.0,0.0,0.0,0.0,0.0,-2.1789,-2.3111,-2.4417,-2.5502,-2.6648,-2.7466,-2.7768,0.0,0.0,0.0,0.0,0.0,0.0,0.0,-2.9352,-2.8748,-2.8685,-2.8699,-2.8647,-2.8422,-2.8193,-2.8193,0.0,0.0,-2.3793,-2.2916,-2.2819,-2.3131,-2.3403,-2.3676,-2.3975,-2.403,-2.4186,0.0,0.0,0.0,0.0,0.0,0.0,0.0,0.0,-2.1006,-2.1061,0.0,-2.0047,0.0,0.0,0.0,0.0,0.0,0.0,0.0,0.0,-2.5244,-2.6312,-2.6312,-2.6385,-2.6367,-2.6331,-2.6258,-2.5447,-2.3785,-2.0246,0.0,0.0,0.0,0.0,0.0,0.0,-2.0404,-2.2758,-2.3462,-2.3795,-2.3795,-2.3795,-2.3795,-2.3777,-2.3125,-2.2404,-2.1644,-2.0789,-1.9282,-1.7002,-1.611,0.0,0.0,0.0,0.0,0.0,0.0,0.0,0.0,0.0,0.0,0.0,0.0,0.0,0.0,0.0,0.0,0.0,0.0,0.0,0.0,-1.2353,0.0,0.0,0.0,0.0,0.0,0.0,0.0,0.0,0.0,0.0,-2.4654,-2.5301,-2.6373,-2.7959,0.0,0.0,0.0,0.0,-3.0193,-3.1861,-3.1429,-3.1181,-3.1999,-3.209,-3.1496,-2.991,0.0,0.0,-2.9927,-2.8953,-2.8485,-2.8388,-2.8544,-2.8364,-2.8349,-2.7394,-2.7043,-2.7784,-2.7277,-2.7219,-2.7916,-2.7745,-2.7881,-2.7743,0.0,0.0,0.0,0.0,-2.5371,-2.6168,-2.7399,-2.7187,-2.6222,-2.4827,-2.4375,0.0,0.0,0.0,0.0,0.0,0.0,-2.5493,-2.6149,-2.7924,-2.8757,-2.8775,-2.9355,-2.9318,-2.8757,-2.8196,-2.7381,-2.6354,-2.4711,-2.199,-1.8374,0.0,0.0,0.0,0.0,-2.1552,-2.2735,-2.3436,-2.3795,-2.3795,-2.3795,-2.3795,-2.3795,-2.3596,-2.3146,-2.2404,-2.2131,-2.117,-1.9373,-1.7975,0.0,0.0,0.0,0.0,0.0,0.0,0.0,0.0,0.0,0.0,0.0,0.0,0.0,0.0,0.0,0.0,0.0,0.0,0.0,-1.3088,-1.404,-1.4848,0.0,0.0,0.0,0.0,0.0,0.0,0.0,0.0,0.0,-2.8641,-2.8095,-2.7667,0.0,0.0,-2.9435,-3.0312,-3.0959,-3.1744,-3.2883,0.0,0.0,0.0,-3.2502,-3.2147,-3.2259,-3.2698,-3.2849,-3.2362,-3.207,-3.1895,-3.1895,-3.1895,-3.1895,-3.1758,-2.9654,-2.8072,-2.8134,-2.7978,-2.7901,-2.8134,-2.8188,-2.8227,-3.2336,-3.0477,-2.8771,-2.8543,-2.93,-2.9274,-3.0016,-3.1166,-3.0577,-2.9789,-2.8993,-2.8051,-2.6747,-2.5226,-2.461,0.0,0.0,0.0,-2.7888,-2.8395,-2.9681,-3.0305,-3.0296,-3.0767,-3.0731,-3.026,-2.9789,-2.93,-2.8811,-2.7707,-2.5578,-2.2574,0.0,0.0,-2.1589,-2.2537,-2.3371,-2.4049,-2.4212,-2.4266,-2.4266,-2.3958,-2.3795,-2.3795,-2.3795,-2.3596,-2.3161,-2.3143,-2.2546,-2.1297,-1.9702,-1.7778,0.0,0.0,0.0,0.0,0.0,0.0,0.0,0.0,0.0,0.0,0.0,-1.2509,0.0,0.0,0.0,0.0,-1.2629,-1.3904,-1.5285,-1.6561,0.0,0.0,0.0,0.0,0.0,0.0,0.0,-2.5697,-2.6948,-2.8578,-3.0903,-3.0625,-3.0189,-3.0253,-3.0691,-3.1193,-3.1718,0.0,-3.283,-3.3706,-3.3842,-3.3959,-3.4296,-3.392,-3.3745,-3.4251,-3.3745,-3.3498,-3.377,-3.3582,-3.3354,-3.3323,-3.3329,-3.3354,-3.3323,-3.1565,-3.0189,-3.0253,-3.0258,-3.0258,-3.0258,-3.0258,-3.018,-3.5795,-3.5544,-3.2643,-3.183,-3.2441,-3.2401,-3.2816,-3.3436,-3.1988,-3.2133,-3.3273,-3.1148,-3.0532,-3.1093,-2.9618,0.0,-2.9119,-2.9771,-3.016,-3.0214,-3.0858,-3.1184,-3.1166,-3.1184,-3.1184,-3.1184,-3.1111,-3.1093,-3.1003,-2.9554,-2.8406,-2.7671,-2.6149,-2.5244,-2.5009,-2.5045,-2.5461,-2.6168,-2.5479,-2.5081,-2.499,-2.4194,-2.3795,-2.3795,-2.3795,-2.3795,-2.3795,-2.3795,-2.3487,-2.2779,-2.126,-1.9322,-1.6983,0.0,0.0,0.0,0.0,0.0,0.0,0.0,0.0,0.0,0.0,0.0,0.0,0.0,0.0,0.0,-1.5575,0.0,-1.7898,-1.9542,0.0,0.0,0.0,-2.2477,-2.3463,-2.4894,-2.6502,-2.8293,0.0,0.0,0.0,0.0,-3.3374,-3.356,-3.342,-3.3317,-3.3394,-3.3308,-3.3616,-3.4478,-3.4606,-3.4878,-3.5496,-3.5605,-3.5585,-3.5585,-3.4451,-3.3829,-3.44,-3.4073,-3.3556,-3.3526,-3.3471,-3.3524,-3.3429,-3.3382,-3.3444,-3.3476,-3.3345,-3.3292,-3.3131,-3.3073,-3.282,-3.824,-3.8133,-3.668,-3.5565,-3.4695,-3.4695,-3.4821,-3.4947,-3.4618,-3.433,-3.406,-3.3545,-3.3135,-3.2814,-3.234,-3.2491,-3.3176,-3.2741,-3.2886,-3.3429,-3.3013,-3.2832,-3.2832,-3.2832,-3.2832,-3.2777,-3.2198,-3.1908,-3.1854,-3.0912,-3.0333,-3.0097,-2.9137,-2.7417,-2.5117,-2.5606,-2.6005,-2.6186,-2.6005,-2.5606,-2.5009,-2.4194,-2.3795,-2.3795,-2.3795,-2.3795,-2.3795,-2.3795,-2.3723,-2.3524,-2.2039,-2.0409,-1.8614,-1.624,0.0,0.0,0.0,0.0,0.0,0.0,0.0,0.0,0.0,-1.6181,-1.2776,0.0,-1.6366,0.0,-1.724,-1.8839,-2.0298,-2.1416,0.0,0.0,-2.483,-2.6,-2.7571,-2.8086,-2.9012,-3.08,-3.137,-3.2186,-3.3693,-3.4062,-3.4459,-3.5104,-3.4066,-3.3448,-3.4097,-3.4206,-3.4509,-3.5286,-3.546,-3.5557,-3.5752,-3.5791,-3.5791,-3.5791,-3.5422,-3.5286,-3.5441,-3.5352,-3.5205,-3.5197,-3.5197,-3.5205,-3.513,-3.5169,-3.5158,-3.5123,-3.419,-3.3257,-3.3257,-3.3276,-3.3199,-3.9441,-3.9405,-3.8883,-3.8222,-3.7417,-3.6735,-3.6534,-3.655,-3.6209,-3.5795,-3.5364,-3.5019,-3.4704,-3.44,-3.4303,-3.4586,-3.5095,-3.4661,-3.4715,-3.5113,-3.4679,-3.428,-3.3936,-3.3936,-3.3755,-3.3393,-3.294,-3.2723,-3.2687,-3.1926,-3.1528,-3.151,-3.0713,-2.9427,-2.7725,-2.7417,-2.7272,-2.7272,-2.691,-2.6367,-2.5552,-2.4755,-2.432,-2.4339,-2.3976,-2.3795,-2.3795,-2.3795,-2.3632,-2.3288,-2.2147,-2.0934,-1.9685,-1.7693,-1.5986,0.0,0.0,0.0,0.0,0.0,0.0,0.0,0.0,0.0,0.0,0.0,-1.8574,0.0,-2.0038,-2.1703,-2.3377,-2.4358,-2.5409,-2.6715,-2.7631,-2.8698,-3.0114,-3.0565,-3.1317,-3.2715,-3.287,-3.3402,-3.4768,-3.4942,-3.5126,-3.567,-3.4933,-3.4477,-3.4902,-3.5029,-3.5204,-3.5679,-3.5757,-3.5757,-3.5757,-3.5757,-3.5757,-3.5776,-3.5757,-3.5757,-3.5757,-3.5756,-3.5745,-3.5757,-3.5747,-3.5756,-3.5757,-3.5757,-3.5757,-3.564,-3.501,-3.4408,-3.4365,-3.4373,-3.4295,-4.0057,-4.0057,-3.995,-3.9896,-3.9807,-3.8507,-3.8062,-3.8115,-3.7433,-3.7073,-3.6946,-3.6121,-3.5846,-3.5927,-3.5927,-3.5977,-3.6091,-3.6001,-3.5946,-3.5946,-3.5856,-3.5421,-3.4787,-3.4751,-3.4389,-3.3719,-3.361,-3.3538,-3.3538,-3.2741,-3.2343,-3.2325,-3.1546,-3.1148,-3.1093,-2.9663,-2.8804,-2.8587,-2.7791,-2.7073,-2.6367,-2.5461,-2.499,-2.4954,-2.4212,-2.3795,-2.3795,-2.3795,-2.3487,-2.2854,-2.2093,-2.1351,-2.0626,-1.9069,-1.8193,0.0,-1.7321,0.0,0.0,0.0,0.0,0.0,0.0,0.0,0.0,-2.038,-2.0997,-2.1852,-2.3353,-2.4905,-2.6477,-2.7446,-2.8313,-2.9104,-2.9964,-3.086,-3.1782,-3.2472,-3.3212,-3.4159,-3.4249,-3.457,-3.5316,-3.547,-3.5528,-3.5782,-3.5774,-3.5786,-3.5938,-3.5792,-3.5657,-3.5704,-3.5704,-3.5695,-3.5715,-3.5715,-3.5715,-3.5715,-3.5715,-3.5704,-3.5715,-3.5707,-3.5698,-3.5706,-3.5707,-3.5698,-3.5715,-3.5704,-3.5704,-3.5715,-3.5618,-3.5581,-3.5639,-3.5638,-3.5541,-4.0877,-4.0824,-4.0182,-3.9896,-3.9878,-3.9593,-3.9506,-3.9506,-3.9363,-3.9065,-3.86,-3.7703,-3.7413,-3.7688,-3.7584,-3.7636,-3.7703,-3.7051,-3.6761,-3.6743,-3.6109,-3.5747,-3.5584,-3.5584,-3.5494,-3.5331,-3.4679,-3.4371,-3.4371,-3.3556,-3.3176,-3.314,-3.2361,-3.1981,-3.1926,0.0,0.0,0.0,-2.7815,-2.732,-2.7145,-2.5733,-2.499,-2.4972,-2.423,0.0,-2.3795,-2.3795,-2.3741,-2.3578,-2.2872,0.0,0.0,0.0,0.0,0.0,0.0,0.0,0.0,0.0,0.0,0.0,-2.1821,-2.1638,-2.0233,-2.2476,-2.4384,-2.52,-2.6219,-2.7205,-2.8158,-2.9026,-2.9893,-3.0674,-3.1471,-3.2374,-3.3322,-3.3589,-3.4022,-3.4951,-3.5062,-3.5119,-3.5326,-3.5345,-3.5595,-3.6257,-3.6339,-3.6642,-3.729,-3.644,-3.5762,-3.5704,-3.5839,-3.5742,-3.5704,-3.5762,-3.5858,-3.5704,-3.5704,-3.5742,-3.58,-3.5773,-3.5745,-3.5781,-3.5715,-3.5753,-3.5742,-3.5704,-3.58,-3.5723,-3.5742,-3.5715,-3.5716,-3.5716,-3.5678,-4.144,0.0,-4.127,-4.1092,0.0,-4.1074,-4.1092,-4.1038,-4.0235,-3.9795,-3.9569,-3.9101,-3.8816,-3.8667,-3.8614,-3.8468,-3.8174,-3.7757,-3.7576,-3.7558,-3.6924,-3.6561,-3.6381,-3.6149,-3.5933,-3.577,-3.5403,-3.5204,-3.515,-3.4389,-3.4009,-3.3973,-3.3194,-3.2795,-3.2777,-3.1981,-3.0803,-2.921,-2.8413,-2.799,-2.7936,-2.6819,-2.5986,-2.5588,0.0,0.0,0.0,0.0,0.0,0.0,0.0,0.0,0.0,0.0,0.0,-2.1405,-2.1025,-2.0844,-2.0934,-2.1382,-2.2202,-2.3492,-2.4605,-2.481,-2.3771,-2.5262,-2.6721,-2.7896,-2.8446,-2.9185,-3.0397,-3.0928,-3.1516,-3.233,-3.2804,-3.3409,-3.4203,-3.441,-3.4579,-3.4973,-3.5105,-3.5255,-3.578,-3.5837,-3.6195,-3.699,-3.7143,-3.7297,-3.7638,-3.7213,-3.6774,-3.6819,-3.6899,-3.6942,-3.6922,-3.6942,-3.6903,-3.6942,-3.6942,-3.6942,-3.6942,-3.6922,-3.6942,-3.6942,-3.6942,-3.6942,-3.6942,-3.6942,-3.6942,-3.6922,-3.6942,-3.6922,-3.6884,-3.6303,-3.5704,-4.1622,-4.2044,-4.2086,-4.2145,-4.2145,-4.2287,-4.2287,-4.2198,0.0,0.0,0.0,-4.0157,-3.9839,-3.9373,-3.9391,-3.9011,-3.8393,-3.8375,-3.8285,-3.8124,-3.7756,-3.7451,-3.713,-3.6822,-3.6481,-3.6172,-3.6059,-3.5987,-3.5919,-3.5173,-3.4702,-3.4491,-3.3779,-3.34,-3.3238,-3.2538,-3.1518,-3.0215,-2.9274,-2.8732,-2.8587,-2.7809,-2.7085,-2.6439,-2.5642,-2.4827,-2.4031,-2.4013,-2.3668,-2.2944,-2.289,-2.2908,-2.289,-2.287,-2.3234,-2.394,-2.4013,-2.4067,-2.4212,-2.4976,-2.5536,-2.5722,-2.6636,-2.7355,-2.7691,-2.7854,-2.854,-3.0021,-3.0248,-3.0949,-3.2463,-3.2634,-3.2975,-3.3809,-3.3903,-3.4169,-3.4775,-3.4908,-3.4927,-3.5097,-3.5192,-3.5496,-3.6424,-3.6557,-3.6916,-3.7729,-3.794,-3.8053,-3.8091,-3.7931,-3.7717,-3.786,-3.7842,-3.8041,-3.8124,-3.8022,-3.8119,-3.7971,-3.8009,-3.8138,-3.8138,-3.8119,-3.8119,-3.7971,-3.8119,-3.8061,-3.808,-3.799,-3.815,-3.8163,-3.815,-3.8131,-3.8047,-3.7093,-3.6242,-4.0943,-4.1036,-4.1428,-4.1622,-4.1666,-4.2103,-4.2287,-4.2198,-4.1324,-4.0989,-4.1088,-4.0408,-4.007,-4.0056,-4.0056,-3.9643,-3.8996,-3.896,-3.86,0.0,-3.7933,-3.7879,-3.7772,-3.7857,-3.7803,-3.7574,-3.7076,-3.675,-3.6528,-3.584,-3.5101,-3.4393,-3.3883,-3.3359,-3.2737,-3.224,-3.1923,-3.1672,-3.0333,-2.93,-2.8605,-2.7791,-2.7363,-2.7218,-2.6457,-2.566,-2.4864,-2.4827,-2.4465,-2.3687,-2.365,-2.365,-2.365,-2.365,-2.3994,-2.4755,-2.4827,-2.5135,-2.5805,-2.599,-2.6445,-2.7284,-2.7581,-2.794,-2.8493,-2.9223,-3.0037,-3.093,-3.1612,-3.2444,-3.3373,-3.3524,-3.3809,-3.4548,-3.4718,-3.4794,-3.487,-3.4927,-3.5192,-3.5836,-3.6007,-3.631,-3.7088,-3.726,-3.7583,-3.8324,-3.8553,-3.8779,-3.9124,-3.8555,-3.7986,-3.808,-3.7998,-3.792,-3.8185,-3.7959,-3.8043,-3.7859,-3.797,-3.8101,-3.8082,-3.8101,-3.8082,-3.7951,-3.8078,-3.8024,-3.8005,-3.7859,-3.8089,-3.8213,-3.8224,-3.8108,-3.8246,-3.7932,-3.7713,-4.0563,-4.0802,-4.1036,-4.1128,-4.1111,-4.1401,-4.149,-4.1472,-4.1077,-4.1343,-4.1873,-4.1572,-4.1064,-4.0481,-4.0481,-4.0071,-3.932,-3.932,-3.9044,-3.8528,-3.8089,-3.7895,-3.7864,-3.7522,-3.7394,-3.7469,-3.7238,-3.6934,-3.6551,-3.5826,-3.5243,-3.48,-3.4058,-3.3399,-3.2884,-3.2683,-3.2415,-3.1984,-3.089,-2.9972,-2.9151,-2.8791,-2.8178,-2.7313,-2.6916,-2.6381,-2.5651,-2.5597,-2.5457,-2.5117,-2.5099,-2.5099,-2.5099,-2.5099,-2.5262,-2.5624,-2.5597,-2.576,-2.6121,-2.6513,-2.7378,-2.8739,-2.8923,-2.9292,-3.0085,-3.034,-3.0997,-3.2204,-3.2694,-3.326,-3.4089,-3.4183,-3.4334,-3.4694,-3.473,-3.473,-3.4787,-3.5145,-3.5541,-3.5937,-3.6371,-3.6955,-3.7766,-3.7879,-3.8181,-3.8958,-3.9127,-3.932,-3.9731,-3.9188,-3.8841,-3.9133,-3.9166,-3.9186,-3.9215,-3.9202,-3.9169,-3.9152,-3.9133,-3.9169,-3.9133,-3.9133,-3.9166,-3.9269,-3.9246,-3.9296,-3.936,-3.9427,-3.9455,-3.9469,-3.9488,-3.9474,-3.9515,-3.9528,-3.9213,-4.007,-4.0483,-4.0563,-4.0689,-4.0802,-4.0802,-4.0802,-4.0802,-4.0802,-4.1283,-4.2037,-4.2139,-4.1682,-4.0912,-4.0895,-4.0471,-3.9776,-3.9705,-3.9403,-3.8887,-3.8204,-3.7857,-3.7678,-3.7044,-3.6843,-3.6981,-3.702,-3.6808,-3.6383,-3.5821,-3.5399,-3.5025,-3.3977,-3.3247,-3.2902,-3.2805,-3.2531,-3.2072,-3.1446,-3.0736,-2.9889,-2.9691,-2.8973,-2.7859,-2.7571,-2.7112,-2.6411,-2.6339,-2.6291,-2.6175,-2.6157,-2.6157,-2.6157,-2.6175,-2.623,-2.6392,-2.6381,-2.6429,-2.6646,-2.7309,-2.8327,-2.9674,-2.9971,-3.0516,-3.1396,-3.1362,-3.1752,-3.3016,-3.3435,-3.3888,-3.4435,-3.4604,-3.4602,-3.4602,-3.4771,-3.4902,-3.494,-3.5578,-3.6197,-3.6366,-3.6906,-3.7643,-3.8319,-3.8582,-3.8831,-3.932,-3.9483,-3.9537,-3.9614,-3.958,-3.9651,-3.9878,-4.0062,-4.0099,-4.0211,-4.0155,-4.0118,-4.0212,-4.0137,-4.0023,-4.0042,-4.0137,-4.0192,-4.0185,-4.0257,-4.0216,-4.0496,-4.0496,-4.0457,-4.0361,-4.0292,-4.0453,-4.0472,-4.0532,-4.034,-3.9432,-3.952,-3.9919,-4.0351,-4.0754,-4.0754,-4.0754,-4.0754,-4.0802,-4.0849,-4.0943,-4.0943,-4.1139,-4.1367,-4.1376,-4.0955,-4.0305,-4.033,-3.9678,-3.8617,-3.8268,-3.7877,-3.7411,-3.7216,-3.6865,-3.6416,-3.6487,-3.6446,-3.6172,-3.6212,-3.5683,-3.4585,-3.3436,-3.2758,-3.2315,-3.2021,-3.2021,-3.2247,-3.221,-3.1668,-3.0733,-2.9988,-2.9539,-2.9413,-2.8649,-2.7939,-2.7202,-2.7112,-2.677,-2.6105,-2.6069,-2.6051,-2.6069,-2.6051,-2.6357,-2.704,-2.7112,-2.7399,-2.8136,-2.8874,-2.9372,-2.9556,-3.0327,-3.1083,-3.1944,-3.2111,-3.239,-3.3101,-3.3949,-3.443,-3.4583,-3.462,-3.4674,-3.473,-3.5293,-3.5691,-3.5762,-3.64,-3.7169,-3.8,-3.8008,-3.8469,-3.9102,-3.9252,-3.9327,-3.9421,-3.9433,-3.9477,-3.9483,-3.9483,-3.9477,-3.9556,-3.9675,-3.9876,-4.0041,-4.0,-3.9958,-3.9956,-3.9935,-3.9937,-3.9937,-3.9956,-3.9956,-4.0081,-4.0039,-4.006,-4.006,-3.9977,-4.0099,-4.025,-4.0213,-4.01,-4.0283,-4.0466,-4.0376,-3.9288,-3.9325,-3.9504,-3.9696,-3.9885,-3.9901,-3.9885,-3.9901,-3.9901,-3.9901,-3.9901,-3.9901,-4.017,-4.0625,-4.0625,-4.0595,-4.0613,-4.0631,-4.0269,-3.9556,-3.9225,-3.8668,-3.7929,-3.7206,-3.6732,-3.6478,-3.6156,-3.5803,-3.5509,-3.5464,-3.5138,-3.4506,-3.3939,-3.3471,-3.2924,-3.2765,-3.2687,-3.2639,-3.2672,-3.2467,-3.2,-3.1243,-3.0617,-3.0098,-2.9382,-2.8891,-2.8524,-2.8111,-2.7707,-2.7446,-2.741,-2.741,-2.741,-2.741,-2.7571,-2.7895,-2.8317,-2.8694,-2.8973,-2.9669,-3.0285,-3.0738,-3.113,-3.1679,-3.2499,-3.2733,-3.3128,-3.3744,-3.4072,-3.4197,-3.4271,-3.474,-3.5128,-3.524,-3.5856,-3.6341,-3.6335,-3.7026,-3.7697,-3.8077,-3.8506,-3.888,-3.9178,-3.9272,-3.9272,-3.9272,-3.9272,-3.9272,-3.929,-3.9272,-3.9298,-3.9357,-3.9433,-3.958,-3.9788,-3.9743,-3.9717,-3.9758,-3.9712,-3.967,-3.9781,-3.9781,-3.9807,-3.996,-3.9979,-4.004,-4.0177,-4.0139,-4.0157,-4.0176,-4.0194,-4.0194,-4.0383,-4.0446,-4.0574,-3.9288,-3.9288,-3.9288,-3.9288,-3.9288,-3.9288,-3.9288,-3.9288,-3.9288,-3.9288,-3.9288,-3.9288,-3.9504,-3.9782,-3.9952,-4.0203,-4.0546,-4.0611,-4.0414,-4.0066,-3.9674,-3.9059,-3.8261,-3.7441,-3.6814,-3.6468,-3.598,-3.5442,-3.498,-3.4899,-3.4788,-3.4561,-3.437,-3.3982,-3.3524,-3.3187,-3.2854,-3.2686,-3.2611,-3.2621,-3.2648,-3.2282,-3.1653,-3.085,-3.0101,-2.9719,-2.9758,-2.9221,-2.881,-2.8667,-2.8649,-2.856,-2.8362,-2.8542,-2.8757,-2.899,-2.9464,-2.974,-2.9697,-3.0427,-3.1075,-3.1639,-3.1876,-3.2259,-3.2809,-3.3239,-3.3692,-3.4204,-3.4357,-3.4449,-3.455,-3.5235,-3.5699,-3.5773,-3.6485,-3.7002,-3.7084,-3.7745,-3.8228,-3.8284,-3.8738,-3.9101,-3.9101,-3.9129,-3.911,-3.9129,-3.9129,-3.925,-3.9398,-3.9519,-3.9602,-3.9852,-3.9973,-3.9862,-3.9707,-3.9599,-3.9556,-3.9599,-3.9575,-3.9556,-3.9647,-3.9647,-3.9693,-3.9832,-3.992,-4.0021,-4.006,-4.0139,-4.0176,-4.0194,-4.0212,-4.0248,-4.0317,-4.0415,-4.0545,-3.9288,-3.9288,-3.9288,-3.9288,-3.9288,-3.9288,-3.9288,-3.9288,-3.9288,-3.9288,-3.9288,-3.9288,-3.9325,-3.9362,-3.9782,-4.0003,-4.0053,-4.0053,-3.9834,-3.9476,-3.9109,-3.8623,-3.8216,-3.7868,-3.7163,-3.6306,-3.6123,-3.566,-3.4998,-3.4899,-3.4883,-3.4847,-3.4263,-3.3865,-3.3634,-3.2593,-3.1943,-3.2338,-3.209,-3.202,-3.237,-3.2669,-3.2402,-3.1653,-3.0886,-3.0457,-3.044,-3.0422,-3.0065,-2.9387,-2.9351,-2.903,-2.8423,-2.8959,-2.9637,-3.0243,-3.0404,-3.044,-3.0558,-3.1207,-3.168,-3.1813,-3.2375,-3.2862,-3.3027,-3.3595,-3.4059,-3.4202,-3.5037,-3.553,-3.5788,-3.6043,-3.627,-3.6306,-3.722,-3.7774,-3.7856,-3.8469,-3.8971,-3.899,-3.9027,-3.9101,-3.9101,-3.9101,-3.9194,-3.9212,-3.9175,-3.9472,-4.0141,-4.0327,-4.0634,-4.1099,-4.1258,-4.1017,-3.9902,-3.9846,-3.9777,-3.984,-4.0021,-3.9608,-3.9521,-3.9508,-3.9661,-3.967,-3.9721,-3.9788,-3.987,-3.9914,-3.9956,-3.9979,-4.0061,-4.012,-4.0194,-4.0367,-4.0481,-3.9288,-3.9288,-3.9288,-3.9288,-3.9288,-3.9288,-3.9288,-3.9288,-3.9288,-3.9288,-3.9288,-3.9288,-3.9288,-3.9325,-3.9451,-3.9731,-4.002,-4.002,-3.9902,-3.9749,-3.9632,-3.9328,-3.8861,-3.8335,-3.7886,-3.74,-3.6936,-3.6324,-3.5611,-3.5148,-3.4899,-3.4883,-3.4651,-3.4409,-3.4119,-3.3644,-3.3355,-3.3225,-3.2702,-3.257,-3.2897,-3.2685,-3.2479,-3.2456,-3.1689,-3.1278,-3.126,-3.0779,-3.0368,-3.0118,-3.0118,-2.9993,-2.9715,-2.9958,-3.0225,-3.0511,-3.0975,-3.1273,-3.1351,-3.2036,-3.2474,-3.2513,-3.2723,-3.3134,-3.358,-3.3955,-3.449,-3.5381,-3.5826,-3.6339,-3.6852,-3.6908,-3.6826,-3.6966,-3.7787,-3.8459,-3.8561,-3.885,-3.9101,-3.9101,-3.9101,-3.9101,-3.925,-3.9565,-3.9918,-3.9993,-4.0346,-4.0754,-4.1033,-4.1173,-4.1332,-4.1516,-4.1579,-4.1441,-4.1036,-4.0868,-4.0868,-4.0923,-4.0932,-4.0595,-4.0408,-4.0237,-4.0308,-3.9964,-3.9838,-3.9924,-4.0132,-4.0204,-4.0148,-4.0135,-4.0205,-4.0361,-4.0081,-4.0576,-4.0619,-3.9288,-3.9288,-3.9288,-3.9288,-3.9255,-3.9202,-3.9218,-3.9272,-3.9218,-3.9218,-3.9272,-3.9288,-3.9288,-3.9288,-3.9288,-3.9468,-3.9765,-3.9782,-3.9765,-3.9782,-3.9782,-3.9592,-3.9295,-3.8775,-3.8411,-3.8112,-3.7466,-3.6738,-3.6025,-3.5495,-3.5148,-3.4916,-3.4899,-3.4792,-3.4566,-3.4343,-3.4081,-3.3794,-3.3396,-3.3225,-3.3208,-3.3002,-3.2854,-3.2816,-3.2367,-3.2081,-3.2063,-3.1564,-3.1135,-3.0939,-3.0903,-3.0886,-3.0903,-3.0886,-3.1011,-3.1296,-3.1778,-3.2076,-3.2151,-3.2608,-3.2898,-3.2934,-3.3184,-3.3544,-3.4079,-3.4543,-3.5364,-3.6167,-3.6684,-3.7041,-3.7381,-3.7392,-3.7301,-3.7453,-3.818,-3.8634,-3.8683,-3.8785,-3.8902,-3.896,-3.8989,-3.9128,-3.9528,-4.0048,-4.0438,-4.0717,-4.1293,-4.1609,-4.1906,-4.1991,-4.2151,-4.2314,-4.247,-4.2526,-4.24,-4.2393,-4.1742,-4.1669,-4.1605,-4.1352,-4.1166,-4.1008,-4.0792,-4.0375,-4.0246,-4.0315,-4.0408,-4.0505,-4.0533,-4.0541,-4.0848,-4.1158,-4.1022,-4.1014,-4.1151,-3.9272,-3.9272,-3.9288,-3.9272,-3.9272,-3.9077,-3.9094,-3.9202,-3.9094,-3.9077,-3.9218,-3.9272,-3.9218,-3.9272,-3.9218,-3.9272,-3.9309,-3.9309,-3.9362,-3.9379,-3.9379,-3.9379,-3.9272,-3.9206,-3.8874,-3.8311,-3.7516,-3.6804,-3.6241,-3.5992,-3.5578,-3.5048,-3.4932,-3.4913,-3.4897,-3.4296,-3.3902,-3.3896,-3.3913,-3.3601,-3.3031,-3.3565,-3.3644,-3.3102,-3.2955,-3.2902,-3.2916,-3.2795,-3.2367,-3.1796,-3.1689,-3.1689,-3.1706,-3.1706,-3.201,-3.2594,-3.2844,-3.288,-3.2862,-3.2934,-3.3027,-3.3116,-3.3651,-3.4169,-3.4543,-3.5471,-3.6274,-3.6577,-3.7077,-3.7559,-3.7559,-3.7578,-3.7631,-3.7931,-3.8201,-3.8382,-3.8382,-3.8415,-3.8528,-3.8805,-3.8921,-3.9298,-4.0055,-4.0577,-4.0929,-4.146,-4.1794,-4.2129,-4.2686,-4.2797,-4.315,-4.3615,-4.3615,-4.341,-4.3708,-4.3875,-4.2927,-4.2203,-4.2084,-4.1917,-4.1787,-4.163,-4.152,-4.1176,-4.1089,-4.1143,-4.1177,-4.128,-4.1481,-4.1569,-4.1838,-4.1874,-4.176,-4.1724,-4.2041,-3.8985,-3.8969,-3.8985,-3.904,-3.9077,-3.8914,-3.8969,-3.9094,-3.8914,-3.8931,-3.8914,-3.8985,-3.8985,-3.8985,-3.8969,-3.8969,-3.8969,-3.8969,-3.9094,-3.9272,-3.9272,-3.9272,-3.9288,-3.9288,-3.9156,-3.8858,-3.8212,-3.7765,-3.7367,-3.6506,-3.586,-3.5628,-3.5131,-3.4916,-3.4899,-3.4651,-3.4535,-3.4515,-3.408,-3.3869,-3.3879,-3.3982,-3.4034,-3.4058,-3.3857,-3.3723,-3.3705,-3.3187,-3.2809,-3.2509,-3.2509,-3.2509,-3.2509,-3.2509,-3.2634,-3.2862,-3.2916,-3.2916,-3.2987,-3.3401,-3.3705,-3.3883,-3.4436,-3.5114,-3.5596,-3.6096,-3.6667,-3.7077,-3.7452,-3.7577,-3.7577,-3.7577,-3.7649,-3.7721,-3.7949,-3.8119,-3.8225,-3.834,-3.8638,-3.9159,-3.9301,-3.9795,-4.0738,-4.1292,-4.1816,-4.234,-4.2816,-4.3299,-4.3522,-4.354,-4.3652,-4.3986,-4.4005,-4.4005,-4.4005,-4.4005,-4.354,-4.302,-4.2872,-4.2667,-4.25,-4.2389,-4.2244,-4.2106,-4.1996,-4.1978,-4.2025,-4.2117,-4.2302,-4.2258,-4.2215,-4.2234,-4.227,-4.2522,-4.2886,-3.8805,-3.8805,-3.8805,-3.886,-3.8914,-3.8766,-3.8805,-3.8931,-3.8821,-3.875,-3.8805,-3.8805,-3.8805,-3.8805,-3.8805,-3.8805,-3.8805,-3.8805,-3.8914,-3.9094,-3.9094,-3.9094,-3.9094,-3.9094,-3.9148,-3.9135,-3.8685,-3.8408,-3.8146,-3.7036,-3.6274,-3.5926,-3.5263,-3.4899,-3.4899,-3.4899,-3.4899,-3.4864,-3.4605,-3.4449,-3.4438,-3.4377,-3.4476,-3.4544,-3.4412,-3.4232,-3.4082,-3.3598,-3.3187,-3.2987,-3.2916,-3.2916,-3.2916,-3.2898,-3.2916,-3.2916,-3.2934,-3.2991,-3.333,-3.3794,-3.4276,-3.4545,-3.5239,-3.5828,-3.6345,-3.6595,-3.7113,-3.7487,-3.7577,-3.7577,-3.7577,-3.7577,-3.7577,-3.7613,-3.7757,-3.7989,-3.8222,-3.8453,-3.8952,-3.953,-3.9783,-4.0391,-4.1254,-4.1794,-4.2496,-4.2968,-4.3526,-4.3923,-4.3974,-4.3986,-4.4005,-4.4005,-4.4005,-4.4005,-4.4005,-4.4005,-4.4005,-4.3875,-4.3763,-4.3522,-4.3299,-4.3262,-4.3162,-4.3051,-4.2962,-4.2999,-4.3021,-4.2957,-4.3034,-4.2847,-4.2814,-4.3194,-4.346,-4.3515,-4.3767,-3.875,-3.8805,-3.875,-3.875,-3.8766,-3.8655,-3.8672,-3.8766,-3.8672,-3.8672,-3.8766,-3.875,-3.875,-3.875,-3.875,-3.875,-3.875,-3.875,-3.875,-3.875,-3.8805,-3.8805,-3.886,-3.886,-3.8914,-3.9007,-3.8974,-3.8731,-3.8377,-3.7566,-3.6787,-3.6141,-3.5462,-3.4932,-3.4932,-3.4899,-3.4899,-3.493,-3.522,-3.5049,-3.4492,-3.4899,-3.4979,-3.4746,-3.4701,-3.4534,-3.4196,-3.4046,-3.3651,-3.3041,-3.2916,-3.2916,-3.2916,-3.2916,-3.2916,-3.2916,-3.2916,-3.3312,-3.3865,-3.4204,-3.4579,-3.5257,-3.5989,-3.6453,-3.6595,-3.7077,-3.7433,-3.754,-3.7558,-3.7577,-3.7577,-3.7577,-3.7612,-3.7684,-3.7845,-3.8113,-3.8647,-3.8827,-3.9388,-4.0093,-4.0401,-4.0727,-4.1759,-4.2013,-4.2536,-4.3183,-4.3542,-4.3679,-4.386,-4.3892,-4.3955,-4.4005,-4.4005,-4.4005,-4.4005,-4.4005,-4.4005,-4.4005,-4.4005,-4.3912,-4.3801,-4.3782,-4.3782,-4.3726,-4.367,-4.3801,-4.3831,-4.3651,-4.3644,-4.3639,-4.3896,-4.443,-4.4508,-4.4336,-4.4326,-3.8504,-3.8488,-3.8504,-3.8544,-3.8616,-3.8504,-3.8504,-3.8616,-3.8504,-3.8504,-3.8488,-3.8488,-3.8488,-3.8504,-3.8504,-3.8504,-3.8504,-3.8488,-3.8504,-3.8504,-3.8504,-3.8639,-3.875,-3.8805,-3.886,-3.8969,-3.8969,-3.8995,-3.8941,-3.8195,-3.7448,-3.682,-3.6009,-3.5396,-3.4982,-3.4899,-3.4899,-3.4899,-3.4977,-3.5035,-3.4881,-3.5205,-3.5419,-3.5369,-3.5374,-3.5054,-3.4517,-3.4214,-3.374,-3.3005,-3.2916,-3.2916,-3.2952,-3.2969,-3.3005,-3.3041,-3.2991,-3.3277,-3.4062,-3.4599,-3.5275,-3.6042,-3.672,-3.7237,-3.7071,-3.723,-3.7372,-3.7372,-3.7372,-3.7447,-3.754,-3.7612,-3.7844,-3.838,-3.8504,-3.8665,-3.8915,-3.9325,-3.9953,-4.0706,-4.0888,-4.142,-4.2062,-4.2446,-4.2649,-4.3141,-4.3321,-4.3426,-4.3646,-4.3697,-4.373,-4.3942,-4.4005,-4.4005,-4.4005,-4.4005,-4.4005,-4.4005,-4.4005,-4.4005,-4.3931,-4.3931,-4.3949,-4.3949,-4.3856,-4.3931,-4.3949,-4.3887,-4.4048,-4.4097,-4.4296,-4.4496,-4.4578,-4.4542,-4.4656,-3.8391,-3.8391,-3.8391,-3.8464,-3.852,-3.8448,-3.8464,-3.852,-3.8464,-3.8391,-3.8391,-3.8391,-3.8391,-3.8391,-3.8408,-3.8408,-3.8391,-3.8391,-3.8408,-3.8408,-3.8391,-3.8504,-3.86,-3.8655,-3.8694,-3.8821,-3.8821,-3.8914,-3.8891,-3.8368,-3.7642,-3.6916,-3.6257,-3.553,-3.4837,-3.4899,-3.4899,-3.4899,-3.4899,-3.4899,-3.4947,-3.5148,-3.5391,-3.5593,-3.579,-3.5671,-3.5329,-3.4869,-3.4204,-3.3598,-3.3401,-3.3384,-3.3401,-3.3401,-3.3544,-3.3794,-3.3781,-3.4106,-3.4799,-3.5279,-3.5829,-3.6503,-3.7142,-3.7246,-3.7188,-3.7185,-3.7182,-3.7182,-3.7182,-3.7259,-3.7388,-3.76,-3.8046,-3.8584,-3.9245,-3.9619,-3.9715,-4.0182,-4.0753,-4.1324,-4.1627,-4.1774,-4.2498,-4.2516,-4.2673,-4.2864,-4.2995,-4.3232,-4.3511,-4.3477,-4.3563,-4.3828,-4.3942,-4.3892,-4.3974,-4.4005,-4.4005,-4.4005,-4.4005,-4.4005,-4.4005,-4.4005,-4.4005,-4.4005,-4.4005,-4.4005,-4.4005,-4.4005,-4.4005,-4.4116,-4.4314,-4.443,-4.4542,-4.4685,-4.4821,-3.8391,-3.8391,-3.8391,-3.8391,-3.8391,-3.8391,-3.8408,-3.8408,-3.8408,-3.8391,-3.8391,-3.8391,-3.8391,-3.8391,-3.8391,-3.8391,-3.8391,-3.8391,-3.8391,-3.8391,-3.8391,-3.8391,-3.8448,-3.8448,-3.8504,-3.8616,-3.8632,-3.8727,-3.869,-3.815,-3.7511,-3.694,-3.6304,-3.558,-3.5037,-3.4886,-3.4835,-3.4835,-3.4804,-3.4787,-3.4787,-3.4883,-3.5055,-3.5357,-3.5617,-3.6,-3.6,-3.5634,-3.494,-3.4333,-3.4191,-3.4138,-3.4138,-3.4138,-3.4371,-3.4781,-3.4747,-3.503,-3.5789,-3.5766,-3.6095,-3.6808,-3.696,-3.6992,-3.6978,-3.6992,-3.6948,-3.6987,-3.697,-3.7058,-3.7365,-3.7782,-3.8337,-3.8956,-4.004,-4.0765,-4.1118,-4.1217,-4.1502,-4.2162,-4.2269,-4.2287,-4.2287,-4.2328,-4.2391,-4.2613,-4.2729,-4.2902,-4.316,-4.3286,-4.3495,-4.3814,-4.3828,-4.3795,-4.3892,-4.4005,-4.4005,-4.4005,-4.4005,-4.4005,-4.4005,-4.4005,-4.4005,-4.4005,-4.4005,-4.4005,-4.4005,-4.4005,-4.4005,-4.4097,-4.4266,-4.4354,-4.4487,-4.4667,-4.4846,-3.8391,-3.8391,-3.8391,-3.8391,-3.8391,-3.8391,-3.8391,-3.8391,-3.8391,-3.8391,-3.8391,-3.8391,-3.8391,-3.8391,-3.8391,-3.8391,-3.8391,-3.8391,-3.8391,-3.8391,-3.8391,-3.8391,-3.8391,-3.8391,-3.8464,-3.8576,-3.8632,-3.8672,-3.8652,-3.8521,-3.8182,-3.7445,-3.6692,-3.612,-3.5415,-3.4824,-3.4594,-3.4594,-3.4594,-3.4594,-3.4594,-3.4594,-3.4691,-3.4864,-3.4975,-3.553,-3.6145,-3.5952,-3.5608,-3.5381,-3.5048,-3.4801,-3.473,-3.4588,-3.4693,-3.4833,-3.4849,-3.5094,-3.5691,-3.5934,-3.6145,-3.6829,-3.6913,-3.6948,-3.6806,-3.6731,-3.6766,-3.6766,-3.6783,-3.7033,-3.7644,-3.793,-3.869,-3.9627,-4.0394,-4.1067,-4.1594,-4.1878,-4.2091,-4.2216,-4.2287,-4.2287,-4.2287,-4.2287,-4.2369,-4.2391,-4.2472,-4.2573,-4.2806,-4.3087,-4.3391,-4.3697,-4.3795,-4.3795,-4.3892,-4.4005,-4.4005,-4.4005,-4.4005,-4.4005,-4.4005,-4.4005,-4.4005,-4.4005,-4.4005,-4.4005,-4.4005,-4.4005,-4.4005,-4.4097,-4.4218,-4.4354,-4.4496,-4.4693,-4.4821,-3.8391,-3.8391,-3.8391,-3.8391,-3.8391,-3.8391,-3.8391,-3.8391,-3.8391,-3.8391,-3.8391,-3.8391,-3.8391,-3.8391,-3.8391,-3.8391,-3.8391,-3.8391,-3.8391,-3.8391,-3.8391,-3.8391,-3.8391,-3.8391,-3.8448,-3.8504,-3.8504,-3.856,-3.86,-3.8535,-3.8193,-3.7508,-3.6878,-3.6163,-3.5544,-3.4857,-3.453,-3.4497,-3.448,-3.448,-3.448,-3.4497,-3.4675,-3.4816,-3.4987,-3.5574,-3.6253,-3.6427,-3.6334,-3.625,-3.5952,-3.5606,-3.5344,-3.5252,-3.5317,-3.5633,-3.5644,-3.5745,-3.6147,-3.6155,-3.6214,-3.662,-3.669,-3.6626,-3.6544,-3.6502,-3.6485,-3.6502,-3.6572,-3.688,-3.7711,-3.8616,-3.9356,-4.001,-4.0718,-4.1235,-4.1785,-4.2145,-4.2287,-4.2287,-4.2287,-4.2287,-4.2287,-4.2287,-4.2287,-4.2369,-4.2351,-4.2472,-4.2634,-4.2902,-4.3196,-4.3477,-4.3697,-4.3795,-4.3942,-4.4005,-4.4005,-4.4005,-4.4005,-4.4005,-4.4005,-4.4005,-4.4005,-4.4005,-4.4005,-4.4005,-4.4005,-4.4005,-4.4005,-4.4067,-4.4158,-4.4354,-4.4524,-4.4659,-4.477,-3.8391,-3.8391,-3.8391,-3.8391,-3.8391,-3.8391,-3.8391,-3.8391,-3.8391,-3.8391,-3.8391,-3.8391,-3.8391,-3.8391,-3.8391,-3.8391,-3.8391,-3.8391,-3.8391,-3.8391,-3.8391,-3.8391,-3.8391,-3.8391,-3.8391,-3.8391,-3.8408,-3.8391,-3.8391,-3.8375,-3.8188,-3.7469,-3.6896,-3.6332,-3.5619,-3.492,-3.4546,-3.4431,-3.4399,-3.4399,-3.4399,-3.4382,-3.4578,-3.4847,-3.5186,-3.5542,-3.6079,-3.6422,-3.6759,-3.6869,-3.6725,-3.6399,-3.6059,-3.5906,-3.6116,-3.6764,-3.6516,-3.6435,-3.6394,-3.6357,-3.6274,-3.6284,-3.6284,-3.6301,-3.6284,-3.6343,-3.6343,-3.6412,-3.655,-3.7051,-3.7767,-3.8839,-3.968,-4.0266,-4.0833,-4.1338,-4.1744,-4.2061,-4.2187,-4.2287,-4.2287,-4.2287,-4.2287,-4.2287,-4.2287,-4.2287,-4.2287,-4.2351,-4.2516,-4.277,-4.3032,-4.3338,-4.3563,-4.3795,-4.3942,-4.4005,-4.4005,-4.4005,-4.4005,-4.4005,-4.4005,-4.4005,-4.4005,-4.4005,-4.4005,-4.4005,-4.4005,-4.4005,-4.4005,-4.4036,-4.4158,-4.4383,-4.4524,-4.4632,-4.4745,-3.8391,-3.8391,-3.8391,-3.8391,-3.8391,-3.8391,-3.8391,-3.8391,-3.8391,-3.8391,-3.8391,-3.8391,-3.8391,-3.8391,-3.8391,-3.8391,-3.8391,-3.8391,-3.8391,-3.8391,-3.8391,-3.8391,-3.8391,-3.8391,-3.8391,-3.8391,-3.8391,-3.8391,-3.8391,-3.8375,-3.8294,-3.8051,-3.7436,-3.6794,-3.6145,-3.5432,-3.4737,-3.4379,-3.4249,-3.4201,-3.4201,-3.4184,-3.4234,-3.4415,-3.4802,-3.5115,-3.5436,-3.581,-3.6131,-3.6385,-3.6385,-3.6316,-3.6184,-3.6191,-3.6295,-3.6416,-3.6426,-3.6402,-3.6385,-3.6343,-3.6284,-3.6284,-3.6284,-3.6284,-3.6284,-3.6301,-3.6335,-3.6594,-3.7077,-3.7853,-3.9198,-3.9612,-4.0026,-4.0614,-4.0932,-4.1209,-4.1391,-4.1701,-4.2019,-4.2187,-4.2246,-4.2287,-4.2287,-4.2287,-4.2287,-4.2287,-4.2287,-4.2287,-4.2391,-4.2595,-4.2864,-4.316,-4.3479,-4.373,-4.3955,-4.3974,-4.4005,-4.4005,-4.4005,-4.4005,-4.4005,-4.4005,-4.4005,-4.4005,-4.4005,-4.4005,-4.4005,-4.4005,-4.4005,-4.4005,-4.4237,-4.4458,-4.4551,-4.4659,-4.4796,-3.8391,-3.8391,-3.8391,-3.8391,-3.8391,-3.8391,-3.8391,-3.8391,-3.8391,-3.8391,-3.8391,-3.8391,-3.8391,-3.8391,-3.8391,-3.8391,-3.8391,-3.8391,-3.8391,-3.8391,-3.8391,-3.8391,-3.8391,-3.8391,-3.8391,-3.8391,-3.8391,-3.8391,-3.8391,-3.8391,-3.8391,-3.823,-3.7679,-3.7145,-3.6627,-3.5704,-3.5104,-3.4635,-3.4327,-3.4117,-3.4101,-3.4101,-3.4101,-3.4201,-3.4448,-3.4771,-3.5008,-3.5543,-3.5871,-3.6045,-3.6199,-3.6284,-3.6284,-3.6284,-3.6284,-3.6284,-3.6284,-3.6284,-3.6284,-3.6284,-3.6284,-3.6284,-3.6284,-3.6284,-3.6284,-3.6318,-3.6525,-3.7077,-3.8043,-3.8905,-3.9595,-4.0026,-4.0491,-4.0814,-4.1012,-4.1088,-4.1209,-4.1436,-4.1701,-4.2061,-4.2187,-4.2228,-4.2287,-4.2287,-4.2287,-4.2287,-4.2287,-4.2287,-4.2287,-4.2512,-4.275,-4.305,-4.3356,-4.3631,-4.3892,-4.3974,-4.4005,-4.4005,-4.4005,-4.4005,-4.4005,-4.4005,-4.4005,-4.4005,-4.4005,-4.4005,-4.4005,-4.4005,-4.4005,-4.4036,-4.4266,-4.4468,-4.4551,-4.4659,-4.4821,-3.8391,-3.8391,-3.8391,-3.8391,-3.8335,-3.8278,-3.8278,-3.8278,-3.8205,-3.8278,-3.8408,-3.8335,-3.8335,-3.8391,-3.8391,-3.8335,-3.8335,-3.8335,-3.8391,-3.8391,-3.8391,-3.8391,-3.8391,-3.8391,-3.8391,-3.8391,-3.8391,-3.8391,-3.8391,-3.8391,-3.8391,-3.8294,-3.7776,-3.742,-3.7048,-3.6303,-3.5655,-3.5024,-3.4667,-3.4311,-3.4133,-3.4101,-3.4101,-3.4101,-3.4415,-3.4594,-3.4787,-3.5287,-3.5694,-3.5854,-3.6071,-3.6284,-3.6284,-3.6284,-3.6284,-3.6284,-3.6284,-3.6284,-3.6284,-3.6284,-3.6284,-3.6284,-3.6284,-3.6284,-3.6387,-3.6577,-3.6973,-3.7905,-3.8801,-3.9715,-4.0043,-4.0491,-4.0784,-4.0871,-4.0918,-4.0965,-4.1071,-4.1255,-4.148,-4.1744,-4.2044,-4.2228,-4.2287,-4.2287,-4.2287,-4.2287,-4.2287,-4.2287,-4.2328,-4.2391,-4.2652,-4.2939,-4.3267,-4.3545,-4.3777,-4.3923,-4.3974,-4.4005,-4.4005,-4.4005,-4.4005,-4.4005,-4.4005,-4.4005,-4.4005,-4.4005,-4.4005,-4.4005,-4.4055,-4.4147,-4.4354,-4.4496,-4.4605,-4.4712,-4.4846,-3.8391,-3.8391,-3.8391,-3.8205,-3.8017,-3.8017,-3.796,-3.7943,-3.7711,-3.7902,-3.8335,-3.8148,-3.8148,-3.8335,-3.8351,-3.8205,-3.8132,-3.8262,-3.8391,-3.8391,-3.8391,-3.8391,-3.8391,-3.8391,-3.8391,-3.8391,-3.8391,-3.8391,-3.8391,-3.8391,-3.8391,-3.8343,-3.8246,-3.7987,-3.7452,-3.6967,-3.6416,-3.5445,-3.5104,-3.4716,-3.4214,-3.4101,-3.4101,-3.4101,-3.4201,-3.4349,-3.4643,-3.5055,-3.5407,-3.5766,-3.6071,-3.6284,-3.6284,-3.6284,-3.6284,-3.6284,-3.6284,-3.6284,-3.6284,-3.6284,-3.6284,-3.6284,-3.6284,-3.6284,-3.6577,-3.718,-3.7974,-3.9319,-3.9698,-4.0008,-4.0474,-4.0767,-4.0871,-4.0871,-4.0918,-4.0918,-4.0948,-4.1088,-4.13,-4.1569,-4.1892,-4.2103,-4.2246,-4.2287,-4.2287,-4.2287,-4.2287,-4.2287,-4.2328,-4.2391,-4.2472,-4.2768,-4.3124,-4.3442,-4.3664,-4.3828,-4.3974,-4.4005,-4.4005,-4.4005,-4.4005,-4.4005,-4.4005,-4.4005,-4.4005,-4.4005,-4.4005,-4.4055,-4.4116,-4.4207,-4.4354,-4.4496,-4.464,-4.477,-4.4895,-3.8033,-3.8391,-3.8391,-3.8335,-3.8205,-3.8189,-3.8205,-3.8148,-3.8033,-3.8033,-3.8091,-3.8017,-3.8001,-3.8075,-3.8148,-3.8132,-3.8205,-3.8335,-3.8391,-3.8391,-3.8391,-3.8391,-3.8391,-3.8391,-3.8391,-3.8391,-3.8391,-3.8391,-3.8391,-3.8391,-3.8391,-3.8391,-3.8391,-3.8278,-3.7825,-3.7485,-3.7015,-3.6335,-3.5655,-3.4845,-3.4295,-3.4101,-3.4101,-3.4101,-3.4117,-3.4201,-3.4399,-3.4739,-3.5085,-3.5453,-3.581,-3.6131,-3.6241,-3.6284,-3.6284,-3.6284,-3.6284,-3.6284,-3.6284,-3.6284,-3.6301,-3.6318,-3.6353,-3.649,-3.7025,-3.8008,-3.8836,-3.9577,-4.0129,-4.0526,-4.0767,-4.0871,-4.0871,-4.0871,-4.0871,-4.0871,-4.0918,-4.0965,-4.1134,-4.1408,-4.1675,-4.1934,-4.2163,-4.2287,-4.2287,-4.2287,-4.2287,-4.2287,-4.2287,-4.2328,-4.2409,-4.257,-4.2957,-4.3356,-4.3529,-4.3716,-4.3923,-4.4005,-4.4005,-4.4005,-4.4005,-4.4005,-4.4005,-4.4005,-4.4005,-4.4005,-4.4005,-4.4005,-4.4067,-4.4207,-4.4344,-4.4496,-4.4659,-4.4796,-4.4895,-3.7727,-3.8148,-3.8148,-3.8107,-3.8049,-3.8049,-3.7992,-3.8049,-3.7876,-3.7844,-3.7828,-3.777,-3.7711,-3.7727,-3.7828,-3.8001,-3.8091,-3.8335,-3.8391,-3.8391,-3.8391,-3.8391,-3.8391,-3.8391,-3.8391,-3.8391,-3.8391,-3.8391,-3.8391,-3.8391,-3.8391,-3.8391,-3.8391,-3.8375,-3.8246,-3.7906,-3.7485,-3.7096,-3.6076,-3.5315,-3.4845,-3.4522,-3.4457,-3.4343,-3.423,-3.4101,-3.4151,-3.4497,-3.4866,-3.5102,-3.5588,-3.5958,-3.6088,-3.6259,-3.6284,-3.6284,-3.6284,-3.6284,-3.6284,-3.6301,-3.6412,-3.6585,-3.6887,-3.7387,-3.8077,-3.9163,-3.9888,-4.0043,-4.0457,-4.0767,-4.0871,-4.0871,-4.0871,-4.0871,-4.0871,-4.0871,-4.0918,-4.0965,-4.1059,-4.1318,-4.1587,-4.1805,-4.2037,-4.2205,-4.2287,-4.2287,-4.2287,-4.2287,-4.2287,-4.2287,-4.2391,-4.2512,-4.2729,-4.316,-4.3495,-4.3682,-4.386,-4.4005,-4.4005,-4.4005,-4.4005,-4.4005,-4.4005,-4.4005,-4.4005,-4.4005,-4.4005,-4.4005,-4.4036,-4.4207,-4.4373,-4.4487,-4.4605,-4.477,-4.4895,-3.7417,-3.7476,-3.7476,-3.7373,-3.7181,-3.706,-3.7121,-3.7225,-3.6862,-3.7074,-3.7433,-3.7417,-3.727,-3.7285,-3.7551,-3.7711,-3.7535,-3.8148,-3.8278,-3.8335,-3.8391,-3.8391,-3.8391,-3.8391,-3.8391,-3.8391,-3.8391,-3.8391,-3.8391,-3.8391,-3.8391,-3.8391,-3.8391,-3.8391,-3.8359,-3.8213,-3.7792,-3.7355,-3.6529,-3.6173,-3.5801,-3.5461,-3.5121,-3.4975,-3.4522,-3.4117,-3.4133,-3.466,-3.4872,-3.4952,-3.5438,-3.58,-3.5949,-3.6131,-3.6199,-3.6301,-3.6456,-3.6473,-3.649,-3.655,-3.6765,-3.7343,-3.7992,-3.8543,-3.9094,-3.9439,-4.0026,-4.0578,-4.0784,-4.0836,-4.0871,-4.0871,-4.0871,-4.0871,-4.0871,-4.0871,-4.0871,-4.0871,-4.1012,-4.1226,-4.1453,-4.1719,-4.1977,-4.2163,-4.2287,-4.2287,-4.2287,-4.2287,-4.2287,-4.2328,-4.2414,-4.2534,-4.2634,-4.3014,-4.3461,-4.3664,-4.3795,-4.3923,-4.4005,-4.4005,-4.4005,-4.4005,-4.4005,-4.4005,-4.4005,-4.4005,-4.4005,-4.4005,-4.4067,-4.4237,-4.4401,-4.4542,-4.4659,-4.4796,-4.4895,-3.6831,-3.6831,-3.6831,-3.7013,-3.7254,-3.727,-3.727,-3.721,-3.7134,-3.7089,-3.715,-3.6968,-3.6923,-3.706,-3.7165,-3.7373,-3.7417,-3.7594,-3.7902,-3.8075,-3.8075,-3.8205,-3.8262,-3.8391,-3.8391,-3.8391,-3.8391,-3.8391,-3.8391,-3.8391,-3.8391,-3.8391,-3.8391,-3.8391,-3.8391,-3.8359,-3.797,-3.7501,-3.7064,-3.6788,-3.627,-3.6108,-3.5882,-3.5817,-3.5704,-3.5461,-3.5493,-3.5616,-3.5527,-3.5465,-3.5625,-3.5786,-3.5864,-3.6017,-3.6217,-3.6448,-3.6766,-3.6956,-3.7051,-3.7093,-3.7395,-3.8102,-3.8814,-3.9416,-3.9819,-4.0095,-4.0457,-4.0784,-4.0871,-4.0871,-4.0871,-4.0871,-4.0871,-4.0871,-4.0871,-4.0871,-4.0871,-4.0871,-4.0965,-4.1134,-4.1408,-4.1692,-4.1934,-4.2145,-4.2246,-4.2287,-4.2287,-4.2287,-4.2287,-4.2287,-4.2391,-4.2494,-4.2573,-4.2826,-4.3321,-4.3529,-4.3679,-4.386,-4.4005,-4.4005,-4.4005,-4.4005,-4.4005,-4.4005,-4.4005,-4.4005,-4.4005,-4.4005,-4.4085,-4.4177,-4.4354,-4.4578,-4.4712,-4.4846,-4.4919,-3.6492,-3.6492,-3.6492,-3.6723,-3.7134,-3.7118,-3.7118,-3.7118,-3.7118,-3.7013,-3.68,-3.6616,-3.6616,-3.6816,-3.6999,-3.7105,-3.7254,-3.7433,-3.7535,-3.7653,-3.777,-3.7943,-3.8148,-3.8262,-3.8262,-3.8335,-3.8391,-3.8391,-3.8391,-3.8391,-3.8391,-3.8391,-3.8391,-3.8391,-3.8391,-3.8359,-3.8116,-3.7776,-3.7582,-3.7452,-3.6983,-3.6724,-3.661,-3.6529,-3.6319,-3.6157,-3.6125,-3.6113,-3.6072,-3.5985,-3.6025,-3.6139,-3.6198,-3.6231,-3.642,-3.6878,-3.7249,-3.7577,-3.7793,-3.8113,-3.8372,-3.8923,-3.9611,-3.9967,-4.025,-4.0578,-4.0784,-4.0836,-4.0871,-4.0871,-4.0871,-4.0871,-4.0871,-4.0871,-4.0871,-4.0871,-4.0871,-4.0918,-4.0948,-4.1088,-4.1318,-4.1542,-4.1866,-4.2061,-4.2246,-4.2287,-4.2287,-4.2287,-4.2287,-4.2287,-4.2328,-4.2391,-4.2472,-4.2768,-4.3105,-4.3321,-4.3529,-4.391,-4.4005,-4.4005,-4.4005,-4.4005,-4.4005,-4.4005,-4.4005,-4.4005,-4.4005,-4.4005,-4.4005,-4.4005,-4.4277,-4.4597,-4.4712,-4.4821,-4.4991,-3.6429,-3.6492,-3.6492,-3.6492,-3.6616,-3.6554,-3.6554,-3.66,-3.6616,-3.6616,-3.6554,-3.6492,-3.6492,-3.6631,-3.6816,-3.6923,-3.7029,-3.7194,-3.7358,-3.7417,-3.7433,-3.7594,-3.7828,-3.7943,-3.8132,-3.8335,-3.8391,-3.8391,-3.8391,-3.8391,-3.8391,-3.8391,-3.8391,-3.8391,-3.8391,-3.8391,-3.8375,-3.8359,-3.8294,-3.8181,-3.7987,-3.7549,-3.7355,-3.7209,-3.6918,-3.6724,-3.674,-3.674,-3.6632,-3.6425,-3.6574,-3.6753,-3.6935,-3.675,-3.7143,-3.8053,-3.7747,-3.7964,-3.856,-3.9226,-3.9595,-3.9714,-4.0311,-4.0629,-4.0767,-4.0871,-4.0871,-4.0871,-4.0871,-4.0871,-4.0871,-4.0871,-4.0871,-4.0871,-4.0871,-4.0871,-4.0871,-4.0871,-4.0948,-4.1041,-4.1163,-4.1346,-4.1675,-4.1995,-4.2205,-4.2287,-4.2287,-4.2287,-4.2287,-4.2287,-4.2287,-4.2328,-4.2391,-4.2691,-4.3032,-4.316,-4.3375,-4.3781,-4.4005,-4.4005,-4.4005,-4.4005,-4.4005,-4.4005,-4.4005,-4.4005,-4.4005,-4.4005,-4.4005,-4.4036,-4.4296,-4.4551,-4.4685,-4.4821,-4.4991,-3.5608,-3.5958,-3.5958,-3.6148,-3.6492,-3.6492,-3.6492,-3.6492,-3.6492,-3.6492,-3.6492,-3.6492,-3.6492,-3.6554,-3.6616,-3.6677,-3.6677,-3.6723,-3.6831,-3.7105,-3.7105,-3.7329,-3.7551,-3.777,-3.7943,-3.8075,-3.8205,-3.8335,-3.8391,-3.8391,-3.8391,-3.8391,-3.8391,-3.8391,-3.8391,-3.8391,-3.8391,-3.8391,-3.8391,-3.8375,-3.8375,-3.8149,-3.8003,-3.7987,-3.7711,-3.7566,-3.7549,-3.7501,-3.7355,-3.7048,-3.715,-3.7167,-3.7217,-3.692,-3.7216,-3.799,-3.798,-3.9105,-3.9795,-4.0417,-4.0457,-4.0565,-4.0651,-4.0871,-4.0871,-4.0871,-4.0871,-4.0871,-4.0871,-4.0871,-4.0871,-4.0871,-4.0871,-4.0871,-4.0871,-4.0871,-4.0871,-4.0871,-4.0918,-4.1059,-4.118,-4.1569,-4.1934,-4.2037,-4.2246,-4.2287,-4.2287,-4.2287,-4.2287,-4.2287,-4.2287,-4.2287,-4.2409,-4.2691,-4.292,-4.3142,-4.3444,-4.3846,-4.4005,-4.4005,-4.4005,-4.4005,-4.4005,-4.4005,-4.4005,-4.4005,-4.4005,-4.4005,-4.4005,-4.4097,-4.4296,-4.4515,-4.4659,-4.4821,-4.5038,-3.5088,-3.5415,-3.5623,-3.5894,-3.6226,-3.6429,-3.6492,-3.6492,-3.6492,-3.6492,-3.6492,-3.6492,-3.6492,-3.6492,-3.6492,-3.6492,-3.6492,-3.6492,-3.6554,-3.6816,-3.6816,-3.6984,-3.727,-3.7492,-3.761,-3.7786,-3.8017,-3.8221,-3.8205,-3.8335,-3.8391,-3.8391,-3.8391,-3.8391,-3.8391,-3.8391,-3.8391,-3.8391,-3.8391,-3.8391,-3.8391,-3.8343,-3.8359,-3.8359,-3.8311,-3.8327,-3.8375,-3.8311,-3.8181,-3.7792,-3.7637,-3.7601,-3.7498,-3.7343,-3.7582,-3.8221,-3.8989,-3.989,-4.0384,-4.0767,-4.0767,-4.0819,-4.0871,-4.0871,-4.0871,-4.0871,-4.0871,-4.0871,-4.0871,-4.0871,-4.0871,-4.0871,-4.0871,-4.0871,-4.0871,-4.0871,-4.0871,-4.0871,-4.0918,-4.1012,-4.1226,-4.1675,-4.2079,-4.2205,-4.2287,-4.2287,-4.2287,-4.2287,-4.2287,-4.2287,-4.2287,-4.2287,-4.2369,-4.267,-4.2938,-4.3142,-4.3513,-4.3942,-4.4005,-4.4005,-4.4005,-4.4005,-4.4005,-4.4005,-4.4005,-4.4005,-4.4005,-4.4005,-4.4005,-4.4067,-4.4237,-4.4411,-4.4605,-4.4821,-4.5019,-3.489,-3.4957,-3.5415,-3.5623,-3.5831,-3.6289,-3.6492,-3.6492,-3.6492,-3.6492,-3.6492,-3.6492,-3.6492,-3.6492,-3.6492,-3.6492,-3.6492,-3.6492,-3.6492,-3.6569,-3.6554,-3.68,-3.6938,-3.706,-3.7285,-3.7492,-3.7711,-3.7902,-3.7886,-3.8148,-3.8278,-3.8391,-3.8391,-3.8391,-3.8391,-3.8391,-3.8391,-3.8391,-3.8391,-3.8391,-3.8391,-3.8391,-3.8391,-3.8391,-3.8391,-3.8391,-3.8391,-3.8359,-3.8359,-3.8278,-3.8294,-3.8574,-3.8526,-3.8262,-3.8725,-3.9291,-3.9868,-4.0067,-4.0285,-4.0582,-4.0737,-4.0754,-4.0853,-4.0871,-4.0871,-4.0871,-4.0871,-4.0871,-4.0871,-4.0871,-4.0871,-4.0871,-4.0871,-4.0871,-4.0871,-4.0871,-4.0871,-4.0871,-4.0871,-4.1012,-4.118,-4.1542,-4.1995,-4.2163,-4.2287,-4.2287,-4.2287,-4.2287,-4.2287,-4.2287,-4.2287,-4.2287,-4.2391,-4.2591,-4.2862,-4.3178,-4.3513,-4.391,-4.3974,-4.4005,-4.4005,-4.4005,-4.4005,-4.4005,-4.4005,-4.4005,-4.4005,-4.4005,-4.4005,-4.4116,-4.4177,-4.4325,-4.4524,-4.4783,-4.5004,-3.3977,-3.4341,-3.4476,-3.5023,-3.5752,-3.6289,-3.6492,-3.6492,-3.6492,-3.6492,-3.6492,-3.6492,-3.6429,-3.6492,-3.6492,-3.6492,-3.6492,-3.6492,-3.6492,-3.6492,-3.6492,-3.6554,-3.6677,-3.6877,-3.6999,-3.7165,-3.7373,-3.7535,-3.7594,-3.7902,-3.8221,-3.8351,-3.8278,-3.8335,-3.8335,-3.8391,-3.8391,-3.8391,-3.8391,-3.8391,-3.8391,-3.8391,-3.8391,-3.8391,-3.8391,-3.8391,-3.8391,-3.8391,-3.8391,-3.8391,-3.8391,-3.8504,-3.8511,-3.8404,-3.8652,-3.9032,-3.9315,-3.9443,-3.9822,-4.0226,-4.0497,-4.0539,-4.0703,-4.0871,-4.0871,-4.0871,-4.0871,-4.0871,-4.0871,-4.0871,-4.0871,-4.0871,-4.0871,-4.0871,-4.0871,-4.0871,-4.0871,-4.0871,-4.0918,-4.1012,-4.118,-4.1552,-4.1977,-4.2163,-4.2287,-4.2287,-4.2287,-4.2287,-4.2287,-4.2287,-4.2287,-4.2287,-4.2369,-4.2552,-4.29,-4.3214,-4.3548,-4.3846,-4.3942,-4.4005,-4.4005,-4.4005,-4.4005,-4.4005,-4.4005,-4.4005,-4.4005,-4.4005,-4.4005,-4.4005,-4.4067,-4.4248,-4.4449,-4.4688,-4.4985,-3.3521,-3.3756,-3.4016,-3.461,-3.535,-3.5752,-3.5879,-3.5958,-3.6304,-3.6304,-3.5943,-3.6085,-3.6163,-3.6148,-3.6148,-3.6289,-3.6492,-3.6492,-3.6492,-3.6492,-3.6492,-3.6492,-3.6616,-3.6677,-3.6754,-3.6923,-3.7044,-3.727,-3.7314,-3.7535,-3.7844,-3.7976,-3.8033,-3.8033,-3.8017,-3.8091,-3.8205,-3.8205,-3.8278,-3.8391,-3.8391,-3.8391,-3.8391,-3.8391,-3.8391,-3.8391,-3.8391,-3.8391,-3.8391,-3.8391,-3.8391,-3.8391,-3.8408,-3.8391,-3.8432,-3.8821,-3.9007,-3.9172,-3.9443,-3.98,-4.0067,-4.0243,-4.0346,-4.0417,-4.068,-4.0776,-4.0823,-4.0871,-4.0871,-4.0871,-4.0871,-4.0871,-4.0871,-4.0871,-4.0871,-4.0871,-4.0871,-4.0871,-4.0965,-4.1041,-4.1328,-4.1709,-4.1966,-4.2169,-4.2287,-4.2287,-4.2287,-4.2287,-4.2287,-4.2287,-4.2287,-4.2287,-4.2369,-4.2472,-4.2862,-4.3232,-4.3529,-4.3795,-4.3942,-4.4005,-4.4005,-4.4005,-4.4005,-4.4005,-4.4005,-4.4005,-4.4005,-4.4005,-4.4005,-4.4005,-4.4005,-4.4158,-4.4345,-4.4584,-4.4915,-3.3312,-3.3382,-3.3894,-3.4341,-3.481,-3.4942,-3.4942,-3.4942,-3.5894,-3.5816,-3.5154,-3.5415,-3.5623,-3.5608,-3.5608,-3.5943,-3.6163,-3.6304,-3.6429,-3.6492,-3.6492,-3.6492,-3.6492,-3.6492,-3.6631,-3.6631,-3.6754,-3.6984,-3.7105,-3.727,-3.7433,-3.7417,-3.7476,-3.7519,-3.7594,-3.777,-3.7828,-3.7902,-3.8148,-3.8335,-3.8391,-3.8391,-3.8391,-3.8391,-3.8391,-3.8391,-3.8391,-3.8391,-3.8391,-3.8391,-3.8391,-3.8391,-3.8391,-3.8391,-3.8448,-3.8504,-3.8711,-3.887,-3.9056,-3.9362,-3.9698,-3.9834,-3.9834,-3.9952,-4.0204,-4.0583,-4.068,-4.0776,-4.0776,-4.0871,-4.0871,-4.0871,-4.0871,-4.0871,-4.0871,-4.0871,-4.0871,-4.0918,-4.0965,-4.1134,-4.1391,-4.1709,-4.1943,-4.2144,-4.2287,-4.2287,-4.2287,-4.2287,-4.2287,-4.2287,-4.2287,-4.2287,-4.2369,-4.2472,-4.2826,-4.3196,-4.3477,-4.3712,-4.3892,-4.4005,-4.4005,-4.4005,-4.4005,-4.4005,-4.4005,-4.4005,-4.4005,-4.4005,-4.4005,-4.4005,-4.4036,-4.4116,-4.4288,-4.453,-4.4849,-3.3312,-3.3312,-3.3894,-3.4206,-3.4341,-3.4743,-3.4677,-3.4341,-3.4942,-3.5154,-3.4942,-3.5008,-3.5073,-3.5073,-3.5088,-3.535,-3.5816,-3.5894,-3.6148,-3.6289,-3.6367,-3.6289,-3.6429,-3.6289,-3.6429,-3.6492,-3.6616,-3.6754,-3.6938,-3.7044,-3.721,-3.7358,-3.7342,-3.7298,-3.7298,-3.7476,-3.7535,-3.7535,-3.7828,-3.8148,-3.8278,-3.8335,-3.8391,-3.8391,-3.8391,-3.8391,-3.8391,-3.8391,-3.8391,-3.8391,-3.8391,-3.8391,-3.8391,-3.8391,-3.8391,-3.8391,-3.8504,-3.8569,-3.8681,-3.8925,-3.9239,-3.9395,-3.9448,-3.9644,-3.9901,-4.0221,-4.0436,-4.0534,-4.0631,-4.0776,-4.0871,-4.0871,-4.0871,-4.0871,-4.0871,-4.0871,-4.0871,-4.0965,-4.1012,-4.1226,-4.1453,-4.1674,-4.1866,-4.205,-4.2234,-4.2287,-4.2287,-4.2287,-4.2287,-4.2287,-4.2287,-4.2287,-4.2287,-4.2472,-4.2808,-4.3105,-4.3389,-4.3642,-4.3886,-4.3936,-4.4005,-4.4005,-4.4005,-4.4005,-4.4005,-4.4005,-4.4005,-4.4005,-4.4005,-4.4005,-4.4005,-4.4067,-4.4258,-4.4503,-4.48,-3.3312,-3.3312,-3.3632,-3.3756,-3.3756,-3.4099,-3.4045,-3.3825,-3.4031,-3.4167,-3.4221,-3.4423,-3.4543,-3.4543,-3.4543,-3.481,-3.5285,-3.535,-3.5494,-3.5688,-3.5894,-3.5737,-3.5816,-3.5879,-3.5958,-3.6085,-3.6414,-3.6616,-3.6754,-3.6816,-3.6846,-3.7013,-3.7013,-3.7013,-3.7074,-3.7134,-3.721,-3.7254,-3.7535,-3.7786,-3.8033,-3.8205,-3.8335,-3.8391,-3.8391,-3.8391,-3.8391,-3.8391,-3.8391,-3.8391,-3.8391,-3.8391,-3.8391,-3.8391,-3.8391,-3.8391,-3.8391,-3.8391,-3.8448,-3.8632,-3.8815,-3.9013,-3.8936,-3.9061,-3.9329,-3.9661,-3.9799,-3.9952,-4.0387,-4.0534,-4.0631,-4.0697,-4.0823,-4.0871,-4.0871,-4.0871,-4.0871,-4.0918,-4.0995,-4.1163,-4.1408,-4.1666,-4.1881,-4.2133,-4.2264,-4.2287,-4.2287,-4.2287,-4.2287,-4.2287,-4.2287,-4.2287,-4.2287,-4.2432,-4.2711,-4.3032,-4.3338,-4.3594,-4.3818,-4.3936,-4.4005,-4.4005,-4.4005,-4.4005,-4.4005,-4.4005,-4.4005,-4.4005,-4.4005,-4.4005,-4.4005,-4.4036,-4.424,-4.4457,-4.48,-3.3312,-3.3312,-3.3312,-3.3312,-3.3312,-3.3312,-3.3312,-3.3312,-3.3312,-3.3312,-3.3452,-3.3825,-3.3948,-3.4016,-3.4002,-3.4409,-3.4691,-3.4743,-3.4876,-3.5023,-3.5023,-3.5154,-3.5154,-3.5023,-3.5415,-3.5816,-3.6226,-3.6414,-3.6554,-3.6554,-3.6554,-3.6492,-3.6492,-3.6492,-3.6616,-3.6739,-3.6938,-3.6984,-3.715,-3.7314,-3.761,-3.796,-3.8205,-3.8335,-3.8391,-3.8391,-3.8391,-3.8391,-3.8391,-3.8391,-3.8391,-3.8391,-3.8391,-3.8391,-3.8391,-3.8391,-3.8391,-3.8391,-3.8391,-3.8448,-3.8623,-3.8756,-3.8511,-3.8544,-3.886,-3.9023,-3.9222,-3.954,-3.9969,-4.0337,-4.0453,-4.0648,-4.0776,-4.0871,-4.0871,-4.0871,-4.0871,-4.0918,-4.1088,-4.1209,-4.1471,-4.1701,-4.1919,-4.2157,-4.2282,-4.2287,-4.2287,-4.2287,-4.2287,-4.2287,-4.2287,-4.2287,-4.2287,-4.2454,-4.2634,-4.2976,-4.3286,-4.3456,-4.3703,-4.3873,-4.4005,-4.4005,-4.4005,-4.4005,-4.4005,-4.4005,-4.4005,-4.4005,-4.4005,-4.4005,-4.4005,-4.4036,-4.4181,-4.4402,-4.4738,-3.3312,-3.3312,-3.3312,-3.3312,-3.3312,-3.3312,-3.3312,-3.3312,-3.3312,-3.3312,-3.3312,-3.3382,-3.3452,-3.3452,-3.3437,-3.377,-3.4153,-3.4288,-3.461,-3.489,-3.4691,-3.4758,-3.489,-3.481,-3.5219,-3.5688,-3.6163,-3.6429,-3.6492,-3.6492,-3.6492,-3.6492,-3.6492,-3.6492,-3.6492,-3.6631,-3.6693,-3.6754,-3.6877,-3.7044,-3.721,-3.7551,-3.7886,-3.8075,-3.8262,-3.8335,-3.8391,-3.8391,-3.8391,-3.8391,-3.8335,-3.8335,-3.8335,-3.8335,-3.8335,-3.8391,-3.8391,-3.8391,-3.8391,-3.8391,-3.8567,-3.8567,-3.8391,-3.8448,-3.86,-3.86,-3.8805,-3.9185,-3.9609,-4.0138,-4.0387,-4.0697,-4.0888,-4.0871,-4.0871,-4.0871,-4.0871,-4.1041,-4.1163,-4.1346,-4.1569,-4.178,-4.1927,-4.2139,-4.2264,-4.2287,-4.2287,-4.2287,-4.2287,-4.2287,-4.2287,-4.2287,-4.2287,-4.2287,-4.2391,-4.292,-4.3286,-4.3422,-4.3638,-4.3873,-4.4005,-4.4005,-4.4005,-4.4005,-4.4005,-4.4005,-4.4005,-4.4005,-4.4005,-4.4005,-4.4005,-4.4036,-4.4151,-4.4346,-4.4663]}]]